[[{"header":{"parameterUnit":"m.s-1","parameterCategory":1,"la1":30.6,"la2":29.2853,"lo1":-89.7004,"lo2":-87.6739,"dy":0.0162,"dx":0.0183,"nx":112,"ny":82,"refTime":"2024-05-06T12:00:00:Z","depth":0,"parameterNumber":2,"parameterNumberName":"U-component_of_WINDS"},"data":[0.0,0.0,0.0,0.0,0.0,0.0,0.0,0.0,0.0,0.0,0.0,0.0,0.0,0.0,0.0,0.0,0.0,0.0,0.0,0.0,0.0,0.0,0.0,0.0,0.0,0.0,0.0,0.0,0.0,0.0,0.0,0.0,0.0,0.0,0.0,0.0,0.0,0.0,0.0,0.0,0.0,0.0,0.0,0.0,0.0,0.0,0.0,0.0,0.0,0.0,0.0,0.0,0.0,0.0,0.0,0.0,0.0,0.0,0.0,0.0,0.0,0.0,0.0,0.0,0.0,0.0,0.0,0.0,0.0,0.0,0.0,0.0,0.0,0.0,0.0,0.0,0.0,0.0,0.0,0.0,0.0,0.0,0.0,0.0,0.0,0.0,0.0,0.0,0.0,0.0,0.0,-5.509,-5.6725,-5.768,-5.784,-5.6154,-5.4329,-5.2589,0.0,0.0,0.0,0.0,0.0,0.0,0.0,0.0,0.0,0.0,0.0,0.0,0.0,0.0,0.0,0.0,0.0,0.0,0.0,0.0,0.0,0.0,0.0,0.0,0.0,0.0,0.0,0.0,0.0,0.0,0.0,0.0,0.0,0.0,0.0,0.0,0.0,0.0,0.0,0.0,0.0,0.0,0.0,0.0,0.0,0.0,0.0,0.0,0.0,0.0,0.0,0.0,0.0,0.0,0.0,0.0,0.0,0.0,0.0,0.0,0.0,0.0,0.0,0.0,0.0,0.0,0.0,0.0,0.0,0.0,0.0,0.0,0.0,0.0,0.0,0.0,0.0,0.0,0.0,0.0,0.0,0.0,0.0,0.0,0.0,0.0,0.0,0.0,0.0,0.0,0.0,0.0,0.0,0.0,0.0,0.0,0.0,0.0,0.0,0.0,0.0,0.0,0.0,0.0,-5.2439,-5.6361,-5.7813,-5.877,-5.9408,-5.79,-5.5608,-5.2594,0.0,0.0,0.0,0.0,0.0,0.0,0.0,0.0,0.0,0.0,0.0,0.0,0.0,0.0,0.0,0.0,0.0,0.0,0.0,0.0,0.0,0.0,0.0,0.0,0.0,0.0,0.0,0.0,0.0,0.0,0.0,0.0,0.0,0.0,0.0,0.0,0.0,0.0,0.0,0.0,0.0,0.0,0.0,0.0,0.0,0.0,0.0,0.0,0.0,0.0,0.0,0.0,0.0,0.0,0.0,0.0,0.0,0.0,0.0,0.0,0.0,0.0,0.0,0.0,0.0,0.0,0.0,0.0,0.0,0.0,0.0,0.0,0.0,0.0,0.0,0.0,0.0,0.0,0.0,0.0,0.0,0.0,0.0,0.0,0.0,0.0,0.0,0.0,0.0,0.0,0.0,0.0,0.0,0.0,0.0,0.0,0.0,0.0,0.0,0.0,0.0,0.0,0.0,-5.2151,-5.4752,-5.7414,-5.8644,-5.958,-6.0327,-5.8387,-5.5934,-5.3104,-4.9091,0.0,0.0,0.0,0.0,0.0,0.0,0.0,0.0,0.0,0.0,0.0,0.0,0.0,0.0,0.0,0.0,0.0,0.0,0.0,0.0,0.0,0.0,0.0,0.0,0.0,0.0,0.0,0.0,0.0,0.0,0.0,0.0,0.0,0.0,0.0,0.0,0.0,0.0,0.0,0.0,0.0,0.0,0.0,0.0,0.0,0.0,0.0,0.0,0.0,0.0,0.0,0.0,0.0,0.0,0.0,0.0,0.0,0.0,0.0,0.0,0.0,0.0,0.0,0.0,0.0,0.0,0.0,0.0,0.0,0.0,0.0,0.0,0.0,0.0,0.0,0.0,0.0,0.0,0.0,0.0,0.0,0.0,0.0,0.0,0.0,0.0,0.0,0.0,0.0,0.0,0.0,0.0,0.0,0.0,0.0,0.0,0.0,0.0,0.0,0.0,0.0,0.0,-5.4639,-5.7316,-5.838,-5.9444,-6.0289,-6.0805,-5.8339,-5.5685,-5.3261,-4.9263,0.0,0.0,0.0,0.0,0.0,0.0,0.0,0.0,0.0,0.0,0.0,0.0,0.0,0.0,0.0,0.0,0.0,0.0,0.0,0.0,0.0,0.0,0.0,0.0,0.0,0.0,0.0,0.0,0.0,0.0,0.0,0.0,0.0,0.0,0.0,0.0,0.0,0.0,0.0,0.0,0.0,0.0,0.0,0.0,0.0,0.0,0.0,0.0,0.0,0.0,0.0,0.0,0.0,0.0,0.0,0.0,0.0,0.0,0.0,0.0,0.0,0.0,0.0,0.0,0.0,0.0,0.0,0.0,0.0,0.0,0.0,0.0,0.0,0.0,0.0,0.0,0.0,0.0,0.0,0.0,0.0,0.0,0.0,0.0,0.0,0.0,0.0,0.0,0.0,0.0,0.0,0.0,0.0,0.0,0.0,0.0,0.0,0.0,0.0,0.0,0.0,0.0,-5.6823,-5.9354,-5.9417,-6.0242,-6.0787,-6.0716,-5.7812,-5.4883,-5.234,-4.8394,0.0,0.0,0.0,0.0,0.0,0.0,0.0,0.0,0.0,0.0,0.0,0.0,0.0,0.0,0.0,0.0,0.0,0.0,0.0,0.0,0.0,0.0,0.0,0.0,0.0,0.0,0.0,0.0,0.0,0.0,0.0,0.0,0.0,0.0,0.0,0.0,0.0,0.0,0.0,0.0,0.0,0.0,0.0,0.0,0.0,0.0,0.0,0.0,0.0,0.0,0.0,0.0,0.0,0.0,0.0,0.0,0.0,0.0,0.0,0.0,0.0,0.0,0.0,0.0,0.0,0.0,0.0,0.0,0.0,0.0,0.0,0.0,0.0,0.0,0.0,0.0,0.0,0.0,0.0,0.0,0.0,0.0,0.0,0.0,0.0,0.0,0.0,0.0,0.0,0.0,0.0,0.0,0.0,0.0,0.0,0.0,0.0,0.0,0.0,0.0,0.0,0.0,-5.5505,-5.7672,0.0,-5.9739,-6.0207,-6.0586,-5.8032,-5.5136,-5.2225,0.0,0.0,0.0,0.0,0.0,0.0,0.0,0.0,0.0,0.0,0.0,0.0,0.0,0.0,0.0,0.0,0.0,0.0,0.0,0.0,0.0,0.0,0.0,0.0,0.0,0.0,0.0,0.0,0.0,0.0,0.0,0.0,0.0,0.0,0.0,0.0,0.0,0.0,0.0,0.0,0.0,0.0,0.0,0.0,0.0,0.0,0.0,0.0,0.0,0.0,0.0,0.0,0.0,0.0,0.0,0.0,0.0,0.0,0.0,0.0,0.0,0.0,0.0,0.0,0.0,0.0,0.0,0.0,0.0,0.0,0.0,0.0,0.0,0.0,0.0,0.0,0.0,0.0,0.0,0.0,0.0,0.0,0.0,0.0,0.0,0.0,0.0,0.0,0.0,0.0,0.0,0.0,0.0,0.0,0.0,0.0,0.0,0.0,0.0,0.0,0.0,0.0,-5.3628,-5.587,-5.7789,0.0,-5.9703,-5.9985,-6.0471,-5.8185,-5.5335,-5.2167,0.0,0.0,0.0,0.0,0.0,0.0,0.0,0.0,0.0,0.0,0.0,0.0,0.0,0.0,0.0,0.0,0.0,0.0,0.0,0.0,0.0,0.0,0.0,0.0,0.0,0.0,0.0,0.0,0.0,0.0,0.0,0.0,0.0,0.0,0.0,0.0,0.0,0.0,0.0,0.0,0.0,0.0,0.0,0.0,0.0,0.0,0.0,0.0,0.0,0.0,0.0,0.0,0.0,0.0,0.0,0.0,0.0,0.0,0.0,0.0,0.0,0.0,0.0,0.0,0.0,0.0,0.0,0.0,0.0,0.0,0.0,0.0,0.0,0.0,0.0,0.0,0.0,0.0,0.0,0.0,0.0,0.0,0.0,0.0,0.0,0.0,0.0,0.0,0.0,0.0,0.0,0.0,0.0,0.0,0.0,0.0,0.0,0.0,0.0,0.0,0.0,0.0,-5.5471,-5.8538,-6.049,-6.0275,-6.0354,-6.0374,-6.0275,-5.809,-5.5357,0.0,0.0,0.0,0.0,0.0,0.0,0.0,0.0,0.0,0.0,0.0,0.0,0.0,0.0,0.0,0.0,0.0,0.0,0.0,0.0,0.0,0.0,0.0,0.0,0.0,0.0,0.0,0.0,0.0,0.0,0.0,0.0,0.0,0.0,0.0,0.0,0.0,0.0,0.0,0.0,0.0,0.0,0.0,0.0,0.0,0.0,0.0,0.0,0.0,0.0,0.0,0.0,0.0,0.0,0.0,0.0,0.0,0.0,0.0,0.0,0.0,0.0,0.0,0.0,0.0,0.0,0.0,0.0,0.0,0.0,0.0,0.0,0.0,0.0,0.0,0.0,0.0,0.0,0.0,0.0,0.0,0.0,0.0,0.0,0.0,0.0,0.0,0.0,0.0,0.0,0.0,0.0,0.0,0.0,0.0,0.0,0.0,0.0,0.0,0.0,0.0,0.0,0.0,-5.6047,-5.7641,-5.8721,-5.9258,-5.9861,-6.0033,-5.9452,-5.8684,-5.6853,-5.3514,0.0,0.0,0.0,0.0,0.0,0.0,0.0,0.0,0.0,0.0,0.0,0.0,0.0,0.0,0.0,0.0,0.0,0.0,0.0,0.0,0.0,0.0,0.0,0.0,0.0,0.0,0.0,0.0,0.0,0.0,0.0,0.0,0.0,0.0,0.0,0.0,0.0,0.0,0.0,0.0,0.0,0.0,0.0,0.0,0.0,0.0,0.0,0.0,0.0,0.0,0.0,0.0,0.0,0.0,0.0,0.0,0.0,0.0,0.0,0.0,0.0,0.0,0.0,0.0,0.0,0.0,0.0,0.0,0.0,0.0,0.0,0.0,0.0,0.0,0.0,0.0,0.0,0.0,0.0,0.0,0.0,0.0,0.0,0.0,0.0,0.0,0.0,0.0,0.0,0.0,0.0,0.0,0.0,0.0,0.0,0.0,0.0,0.0,0.0,0.0,0.0,0.0,-5.6331,-5.7565,-5.8435,-5.921,-5.9814,-5.995,-5.9387,-5.9322,-5.7847,-5.4558,0.0,0.0,0.0,0.0,0.0,0.0,0.0,0.0,0.0,0.0,0.0,0.0,0.0,0.0,0.0,0.0,0.0,0.0,0.0,0.0,0.0,0.0,0.0,0.0,0.0,0.0,0.0,0.0,0.0,0.0,0.0,0.0,0.0,0.0,0.0,0.0,0.0,0.0,0.0,0.0,0.0,0.0,0.0,0.0,0.0,0.0,0.0,0.0,0.0,0.0,0.0,0.0,0.0,0.0,0.0,0.0,0.0,0.0,0.0,0.0,0.0,0.0,0.0,0.0,0.0,0.0,0.0,0.0,0.0,0.0,0.0,0.0,0.0,0.0,0.0,0.0,0.0,0.0,0.0,0.0,0.0,0.0,0.0,0.0,0.0,0.0,0.0,0.0,0.0,0.0,0.0,0.0,0.0,0.0,0.0,0.0,0.0,0.0,0.0,0.0,0.0,0.0,-5.6463,-5.7995,-5.9201,-5.9791,-6.0041,-6.0099,-5.9993,-5.9943,-5.8588,-5.5498,0.0,0.0,0.0,0.0,0.0,0.0,0.0,0.0,0.0,0.0,0.0,0.0,0.0,0.0,0.0,0.0,0.0,0.0,0.0,0.0,0.0,0.0,0.0,0.0,0.0,0.0,0.0,0.0,0.0,0.0,0.0,0.0,0.0,0.0,0.0,0.0,0.0,0.0,0.0,0.0,0.0,0.0,0.0,0.0,0.0,0.0,0.0,0.0,0.0,0.0,0.0,0.0,0.0,0.0,0.0,0.0,0.0,0.0,0.0,0.0,-4.9673,0.0,0.0,0.0,0.0,0.0,0.0,0.0,0.0,0.0,0.0,0.0,0.0,0.0,0.0,0.0,0.0,0.0,0.0,0.0,0.0,0.0,0.0,0.0,0.0,0.0,0.0,0.0,0.0,0.0,0.0,0.0,0.0,0.0,0.0,0.0,0.0,0.0,0.0,0.0,0.0,0.0,-5.6237,-5.7719,-5.889,-5.959,-6.0278,-6.0648,-6.0603,-6.0581,-5.9708,-5.7663,-5.495,0.0,0.0,0.0,0.0,0.0,0.0,0.0,0.0,0.0,0.0,0.0,0.0,0.0,0.0,0.0,0.0,0.0,0.0,0.0,0.0,0.0,0.0,0.0,0.0,0.0,0.0,0.0,0.0,0.0,0.0,0.0,0.0,0.0,0.0,0.0,0.0,0.0,0.0,0.0,0.0,0.0,0.0,0.0,0.0,0.0,0.0,0.0,0.0,0.0,0.0,0.0,0.0,0.0,0.0,0.0,0.0,0.0,0.0,0.0,0.0,-5.1177,0.0,0.0,0.0,0.0,0.0,0.0,0.0,0.0,0.0,0.0,0.0,0.0,0.0,0.0,0.0,0.0,0.0,0.0,0.0,0.0,0.0,0.0,0.0,0.0,0.0,0.0,0.0,0.0,0.0,0.0,0.0,0.0,0.0,0.0,0.0,0.0,0.0,0.0,0.0,0.0,-5.6719,-5.8169,-5.9457,-6.0646,-6.1126,-6.1385,-6.1362,-6.0969,-6.0149,-5.8841,-5.6123,0.0,0.0,0.0,0.0,0.0,0.0,0.0,0.0,0.0,0.0,0.0,0.0,0.0,0.0,0.0,0.0,0.0,0.0,0.0,0.0,0.0,0.0,0.0,0.0,0.0,0.0,0.0,0.0,0.0,0.0,0.0,0.0,0.0,0.0,0.0,0.0,0.0,0.0,0.0,0.0,0.0,0.0,0.0,0.0,0.0,0.0,0.0,0.0,0.0,0.0,0.0,0.0,0.0,-5.5973,-5.6053,-5.6185,-5.6185,-5.6577,-5.7082,-5.4567,-5.3581,-5.37,0.0,0.0,0.0,0.0,0.0,0.0,0.0,0.0,0.0,0.0,0.0,0.0,0.0,0.0,0.0,0.0,0.0,0.0,0.0,0.0,0.0,0.0,0.0,0.0,0.0,-5.1442,-5.0928,0.0,0.0,0.0,0.0,0.0,0.0,0.0,0.0,0.0,0.0,0.0,0.0,-5.7421,-5.8804,-6.0157,-6.1758,-6.1795,-6.1795,-6.1942,-6.0964,-6.007,-5.9407,-5.6887,-5.484,0.0,0.0,0.0,0.0,0.0,0.0,0.0,0.0,0.0,0.0,0.0,0.0,0.0,0.0,0.0,0.0,0.0,0.0,0.0,0.0,0.0,0.0,0.0,0.0,0.0,0.0,0.0,0.0,0.0,0.0,0.0,0.0,-4.9756,-4.9993,0.0,0.0,0.0,0.0,0.0,0.0,0.0,0.0,0.0,0.0,0.0,0.0,0.0,-5.6169,-5.7846,-5.7982,-5.8167,-5.8238,-5.8238,-5.8359,-5.8562,-5.8562,-5.8376,-5.7995,-5.6799,0.0,-5.7492,-5.5438,0.0,0.0,0.0,0.0,0.0,0.0,0.0,0.0,0.0,0.0,0.0,0.0,0.0,0.0,0.0,0.0,0.0,0.0,0.0,0.0,0.0,0.0,-5.2881,-5.2978,-5.3627,-5.4048,0.0,-5.218,-5.0802,-5.0211,-5.0822,0.0,0.0,0.0,0.0,0.0,0.0,0.0,-5.8069,-5.8962,-6.002,-6.1483,-6.1018,-6.0908,-6.1569,-6.026,-5.9341,-5.9231,-5.6818,-5.5308,-5.5111,-5.2806,0.0,0.0,0.0,0.0,0.0,0.0,0.0,0.0,0.0,0.0,0.0,0.0,0.0,0.0,0.0,0.0,0.0,0.0,0.0,0.0,0.0,0.0,0.0,0.0,0.0,0.0,0.0,0.0,0.0,-5.0528,-5.2456,-5.2797,-5.3119,-5.2863,0.0,0.0,0.0,0.0,0.0,0.0,0.0,0.0,0.0,-5.6886,-5.7582,-5.8355,-5.9183,-5.9669,-5.9941,-5.9941,-6.0,-5.9873,-5.9502,-5.9588,-5.9486,-5.923,-5.8547,-5.9015,-6.0088,-5.7282,-5.6224,-5.6225,0.0,0.0,0.0,0.0,-5.0145,-5.0105,-4.9663,-5.0485,0.0,0.0,0.0,0.0,0.0,0.0,0.0,0.0,0.0,0.0,0.0,0.0,0.0,-5.4471,-5.441,-5.4312,-5.4276,-5.365,-5.3014,0.0,-5.3185,-5.3243,-5.2354,0.0,0.0,0.0,0.0,0.0,-5.8806,-5.9969,-6.1079,-6.2144,-6.1961,-6.1704,-6.1594,-6.0457,-5.9566,-5.9126,-5.6656,-5.5189,-5.5189,-5.3204,-5.1202,0.0,0.0,0.0,0.0,0.0,0.0,0.0,0.0,0.0,0.0,0.0,0.0,0.0,0.0,0.0,0.0,0.0,0.0,0.0,0.0,0.0,0.0,0.0,0.0,0.0,0.0,0.0,0.0,-5.2933,-5.4559,-5.5383,-5.5559,-5.5264,0.0,0.0,0.0,0.0,0.0,0.0,-5.7066,-5.767,-5.8278,-5.8941,-5.9815,-6.0391,-6.0605,-6.1234,-6.1549,-6.1549,-6.164,-6.1379,-6.0808,-6.0925,-6.084,-6.0712,-6.0336,-6.0771,-6.1512,-5.8726,-5.7846,-5.8134,-5.7286,-5.6309,-5.5183,-5.3181,-5.2863,-5.3304,-5.2555,-5.3487,-5.4901,-5.4655,0.0,-5.3677,-5.317,0.0,0.0,0.0,0.0,-5.4853,-5.4802,-5.5651,-5.6391,-5.5881,-5.5534,-5.5276,-5.5141,-5.5353,-5.5384,0.0,-5.4882,-5.4943,-5.4378,0.0,0.0,0.0,0.0,-5.7463,-5.9136,-6.0443,-6.1495,-6.2302,-6.2412,-6.2082,-6.1239,-6.0335,-5.9518,-5.8713,-5.6527,-5.5316,-5.5316,-5.3766,-5.2059,-5.0322,0.0,0.0,0.0,0.0,0.0,0.0,0.0,0.0,0.0,0.0,0.0,0.0,0.0,0.0,0.0,0.0,0.0,0.0,0.0,0.0,0.0,0.0,0.0,0.0,0.0,0.0,0.0,0.0,0.0,-5.7469,-5.7922,0.0,0.0,0.0,0.0,-5.6283,-5.7833,-5.8901,-5.9025,-5.9946,-6.0782,-6.1596,-6.1787,-6.224,-6.3022,-6.3177,-6.327,-6.327,-6.327,-6.3234,-6.3199,-6.3229,-6.2897,-6.2403,-6.2331,-6.2025,-6.1415,-5.9926,-5.9727,-6.0341,-5.9384,-5.9033,-5.8799,-5.7461,-5.7007,-5.688,-5.5683,-5.6024,-5.6766,-5.5552,-5.4999,-5.481,-5.4616,-5.4025,0.0,0.0,-5.4871,-5.5528,-5.5398,-5.72,-5.861,-5.71,-5.7864,-5.8708,-5.7809,-5.8212,-5.7935,0.0,-5.5315,-5.5765,-5.5239,0.0,-5.64,-5.6653,-5.6658,-5.7188,-5.8822,-5.9651,-6.038,-6.1182,-6.1292,-6.0963,-6.0161,-5.9358,-5.8531,-5.7716,-5.6697,-5.6116,-5.6116,-5.4507,-5.3566,-5.3458,-5.1923,0.0,0.0,0.0,0.0,0.0,0.0,0.0,0.0,0.0,0.0,0.0,0.0,0.0,0.0,0.0,0.0,0.0,0.0,0.0,0.0,0.0,0.0,0.0,0.0,0.0,0.0,0.0,0.0,-5.9399,-5.9968,0.0,-6.0391,-6.0238,-6.0184,-6.021,-6.1136,-6.1738,-6.1765,-6.2169,-6.2484,-6.271,-6.3329,-6.3819,-6.4104,-6.4666,-6.4947,-6.4947,-6.4947,-6.4662,-6.4162,-6.4162,-6.3765,-6.3076,-6.3203,-6.3149,-6.2856,-6.237,-6.1782,-6.1148,-6.0804,-6.038,-5.9813,-5.8538,-5.8081,-5.7959,-5.7203,-5.7309,-5.7653,-5.7491,-5.711,-5.674,-5.6897,-5.6356,-5.5677,-5.5903,-5.6165,-5.657,-5.7478,-5.7621,-5.7648,-5.8115,-5.8176,-5.8057,-5.7743,-5.8343,-5.8677,-5.764,-5.7369,-5.7237,-5.7163,-5.7445,-5.7751,-5.7923,-5.8798,-5.9673,-6.0332,-6.0635,-6.1084,-6.1886,-6.1521,-6.0865,-6.0063,-5.9659,-5.8662,-5.6806,-5.6285,-5.5632,-5.4616,-5.4025,-5.3228,-5.2245,-5.0737,-4.904,0.0,0.0,0.0,0.0,0.0,0.0,0.0,0.0,0.0,0.0,0.0,0.0,0.0,0.0,0.0,0.0,0.0,0.0,0.0,0.0,0.0,0.0,0.0,0.0,0.0,0.0,-5.9298,-6.0822,-6.1608,-6.2163,-6.2572,-6.2324,-6.223,-6.2546,-6.3133,-6.3495,-6.3495,-6.3871,-6.4009,-6.3982,-6.4575,-6.4955,-6.5019,-6.5518,-6.5804,-6.5804,-6.5804,-6.5518,-6.5019,-6.5019,-6.4697,-6.4198,-6.4358,-6.4389,-6.4389,-6.4389,-6.3662,-6.2468,-6.196,-6.1458,-6.0891,-5.9692,-5.929,-5.923,-5.8844,-5.8607,-5.8542,-5.8834,-5.8588,-5.8187,-5.8151,-5.7745,-5.7287,-5.7234,-5.7361,-5.7676,-5.8327,-5.8335,-5.8164,-5.8478,-5.8645,-5.8731,-5.8502,-5.9102,-5.9702,-5.9759,-5.9095,-5.8403,-5.8168,-5.8507,-5.8735,-5.8507,-5.9393,-6.016,-6.0238,-6.0264,-6.0482,-6.0965,-6.082,-6.0336,-5.9536,-5.9158,-5.8187,-5.6334,-5.6116,-5.5487,-5.4217,-5.3914,-5.3162,-5.1841,-5.0307,-4.8644,-4.683,0.0,0.0,0.0,0.0,0.0,0.0,0.0,0.0,0.0,0.0,0.0,0.0,0.0,0.0,0.0,0.0,0.0,0.0,0.0,0.0,0.0,0.0,0.0,-5.6596,-5.8976,-6.0959,-6.1809,-6.2835,-6.3422,-6.3302,-6.3271,-6.3208,-6.3116,-6.3725,-6.4149,-6.4149,-6.4858,-6.5382,-6.551,-6.5477,-6.5575,-6.5804,-6.5804,-6.5804,-6.5804,-6.5804,-6.5804,-6.5804,-6.5804,-6.5804,-6.5804,-6.5804,-6.5804,-6.5804,-6.5804,-6.534,-6.4483,-6.2949,-6.2342,-6.2199,-6.1199,-6.0818,-6.0757,-6.0485,-5.9995,-5.9416,-5.9446,-5.9264,-5.8987,-5.8268,-5.8151,-5.8195,-5.8062,-5.8465,-5.8693,-5.7866,-5.9338,-6.0451,-5.8195,-5.938,-6.0873,-6.0225,-6.0639,-6.1152,-6.127,-6.03,-5.9168,-5.8242,-5.896,-5.9345,-5.8418,-5.8388,0.0,-5.8528,-5.8456,-5.8456,-5.8456,-5.9144,-5.9253,-5.8456,-5.7796,-5.7048,-5.6237,-5.6237,-5.5837,-5.5002,-5.4355,-5.3554,-5.2531,-5.0969,-4.9034,-4.6729,0.0,0.0,0.0,0.0,0.0,0.0,0.0,0.0,0.0,0.0,0.0,0.0,0.0,0.0,0.0,0.0,0.0,0.0,0.0,0.0,0.0,0.0,-5.8547,-5.939,-6.0864,-6.2327,-6.3681,-6.4599,-6.5161,-6.5098,-6.4934,-6.4838,-6.4841,-6.4888,-6.503,-6.5092,-6.5207,-6.5447,-6.5707,-6.548,-6.5513,-6.5804,-6.5675,-6.5675,-6.5804,-6.5804,-6.574,-6.5575,-6.5575,-6.5575,-6.5575,-6.5575,-6.5675,-6.5804,-6.5804,-6.5661,-6.5375,-6.4376,-6.327,-6.2271,-6.1839,-6.1198,-6.0485,-6.0266,-6.0062,-5.9949,-6.0198,-5.985,-5.9319,-5.9373,-5.9043,-5.8689,-5.8661,-5.8896,-5.9031,-5.8824,-5.9171,-5.9409,-5.8765,-5.9467,-6.0165,-6.0009,-6.0552,-6.1093,-6.1152,-6.0941,-6.0518,-5.9665,-5.9905,-6.0114,-5.998,-6.0476,0.0,-6.1,-6.0013,-5.9506,-6.0086,-5.9184,-5.8533,-5.842,-5.8151,-5.7427,-5.6151,-5.6586,-5.6018,-5.4002,-5.4279,-5.3373,-5.0911,-4.9907,-4.8862,0.0,0.0,0.0,0.0,0.0,0.0,0.0,0.0,0.0,0.0,0.0,0.0,0.0,0.0,0.0,0.0,0.0,0.0,0.0,0.0,0.0,0.0,-5.8254,-6.0347,-6.1605,-6.2612,-6.3591,-6.4519,-6.5304,-6.5804,-6.5804,-6.5643,-6.5477,-6.5477,-6.5382,-6.5349,-6.5379,-6.5349,-6.5415,-6.5675,-6.5513,-6.5545,-6.5804,-6.5707,-6.5707,-6.5804,-6.5804,-6.574,-6.5607,-6.5542,-6.5477,0.0,-6.5412,-6.5477,-6.5675,-6.5675,-6.574,0.0,0.0,0.0,0.0,0.0,-6.1061,-6.0458,-6.0266,-6.0171,-6.0139,-6.0329,-6.0167,-5.9866,-5.9757,-5.9536,-5.9288,-5.9231,-5.9231,-5.9259,-5.9259,-5.9423,-5.9549,-5.9345,-5.9815,-6.0321,-6.0474,-6.0802,-6.1123,-6.1182,-6.1211,0.0,-6.0603,-6.0447,-6.0292,-5.9996,-6.0384,-6.0863,-6.1271,-6.0278,-5.9572,-5.9717,-5.8858,-5.8197,-5.7913,-5.7561,0.0,0.0,0.0,-5.5825,-5.3724,-5.3375,0.0,0.0,0.0,-4.9561,-4.8784,0.0,0.0,0.0,-4.4936,-4.4818,0.0,0.0,0.0,0.0,0.0,0.0,0.0,0.0,0.0,0.0,0.0,0.0,0.0,0.0,0.0,0.0,-5.9289,-6.1432,-6.3275,-6.4234,-6.4769,-6.4769,-6.5375,-6.5804,-6.5804,-6.5643,-6.5477,-6.5477,-6.5382,-6.5316,-6.5316,0.0,0.0,0.0,0.0,-6.551,-6.574,-6.574,-6.574,-6.5772,-6.5804,-6.5772,-6.574,-6.5575,-6.5477,-6.5412,-6.5349,-6.5382,-6.5477,-6.5477,-6.5643,-6.5697,-6.4804,-6.4019,-6.3168,-6.1417,-6.0666,-6.0547,-6.0427,0.0,0.0,-6.0107,-6.0297,-6.0406,-5.9703,-5.9703,-5.9905,-5.9752,-5.9638,-5.9547,-5.9471,-5.9946,-6.0309,-5.9834,-6.0249,-6.0878,-6.1176,-6.1152,-6.1123,-6.127,-6.1182,-6.1058,-6.0986,-6.0683,-6.018,-5.9386,-5.9362,-5.9725,-6.0444,-5.9835,-5.9087,-5.8366,0.0,0.0,-5.721,-5.6622,-5.6261,-5.6297,-5.6116,-5.539,-5.3974,-5.2147,-5.0908,-5.0409,-5.0931,-5.077,-4.9957,-5.0474,-5.0283,-4.9412,-4.771,-4.7249,0.0,0.0,0.0,0.0,0.0,0.0,0.0,0.0,0.0,0.0,0.0,0.0,0.0,0.0,0.0,-5.8441,-6.058,-6.2531,-6.4131,-6.5054,-6.559,-6.559,-6.5697,-6.5804,-6.5804,-6.5643,-6.5477,-6.5477,-6.5382,-6.5349,-6.5445,-6.518,0.0,-6.5477,-6.508,-6.5013,-6.5382,-6.5415,-6.5447,-6.5542,0.0,0.0,-6.5415,-6.548,-6.5346,-6.508,-6.5249,-6.5316,-6.5349,-6.5445,-6.5643,-6.5661,-6.4198,-6.3463,-6.3018,-6.1269,-6.0547,-6.0427,-6.0202,-6.0139,-6.0107,-6.0107,-6.0171,-6.0167,-6.0027,-6.0117,0.0,-6.0397,-6.0484,-6.0397,-5.9912,-6.0279,-6.0514,-5.9793,-6.0129,-6.0701,-6.0878,-6.0878,-6.0908,-6.1093,-6.1123,-6.0879,-6.0237,-6.0617,-6.0925,-6.0869,-6.0891,-6.1021,-6.1343,-6.0112,-5.9168,-5.9024,-5.7792,-5.693,-5.6891,-5.6773,-5.6717,-5.6845,-5.5588,-5.4758,-5.4532,-5.264,-5.1633,-5.173,-5.173,-5.1669,-5.1466,-5.0964,-5.0617,-5.0426,-4.9374,-4.8735,0.0,0.0,0.0,0.0,0.0,0.0,0.0,0.0,0.0,0.0,0.0,-5.2759,-5.4644,0.0,-5.7529,-5.9653,-6.1472,-6.3084,-6.4416,-6.5304,-6.5804,-6.5804,-6.5707,-6.5707,-6.5804,-6.548,-6.5313,-6.5477,-6.5247,-6.5249,-6.5415,-6.5249,-6.5249,-6.5379,-6.5149,-6.5115,-6.5316,-6.5316,-6.5349,-6.5415,-6.5513,-6.548,-6.5316,-6.5282,-6.4935,-6.4415,-6.4803,-6.4835,-6.4581,-6.5237,-6.5643,-6.5697,-6.4483,-6.3926,-6.3626,-6.2265,-6.1404,-6.0998,-6.119,-6.102,-6.0704,-6.0571,-6.0539,-6.0469,-5.9986,-5.9978,-6.0139,-6.0167,-6.0325,-6.0375,-6.0083,-6.0229,-6.0375,-6.0083,-6.0264,-6.0516,-6.0666,-6.0696,-6.0727,-6.0823,-6.0854,-6.0741,-6.041,-6.0689,-6.0891,-6.0646,-6.0603,-6.0633,-6.0755,-6.0124,-5.9327,-5.8573,-5.7783,-5.7164,-5.6848,-5.6812,-5.6839,-5.6917,-5.5312,-5.4435,-5.4475,-5.2681,-5.1783,-5.1907,-5.1833,-5.1808,-5.1808,-5.1379,-5.101,-5.0701,-5.0199,-4.9494,0.0,0.0,0.0,0.0,0.0,0.0,0.0,0.0,-5.174,-5.3256,-5.3797,-5.4545,-5.6287,-5.7338,-5.8623,-6.0656,-6.2115,-6.3389,-6.4634,-6.5411,-6.5804,-6.574,-6.5575,-6.5542,-6.574,-6.5349,-6.5182,-6.5412,-6.518,-6.5149,-6.5282,-6.5316,-6.5282,-6.5249,-6.5249,-6.5216,-6.5182,-6.5216,-6.5249,-6.5249,-6.5282,-6.5282,-6.5249,-6.5115,-6.466,-6.396,-6.4353,-6.428,-6.3917,-6.4817,-6.5368,-6.5636,-6.4995,-6.4618,-6.4318,-6.3297,-6.2361,-6.1712,-6.2178,-6.1831,-6.1169,-6.1002,-6.0831,-6.0587,-5.9828,-5.9718,-5.9779,-5.9779,-5.9943,-6.0107,-6.0107,-6.0107,-6.0139,-6.0297,-6.0364,-6.0396,-6.0516,-6.0547,-6.0547,-6.0578,-6.0578,-6.064,-6.0757,-6.0757,-6.0635,-6.0207,-6.0023,-5.9916,-5.9916,-5.9745,-5.9151,-5.7898,-5.772,-5.7442,-5.6795,-5.6786,-5.6786,-5.6812,-5.5209,-5.4333,-5.4323,-5.263,-5.1733,-5.1758,-5.1733,-5.1708,-5.1708,-5.1708,-5.1401,-5.0891,-5.0472,-4.9793,-4.6962,-4.8402,-4.9694,-4.9867,-5.0873,-5.1813,0.0,0.0,-5.2467,-5.3923,-5.3901,-5.4352,-5.6767,-5.7534,-5.8677,-6.1278,-6.2537,-6.3729,-6.5415,-6.5732,-6.574,-6.5542,-6.551,-6.551,-6.551,-6.5382,-6.5282,-6.5316,-6.5282,-6.5282,-6.5316,-6.5316,-6.5216,-6.5048,-6.5013,-6.498,-6.474,-6.4911,-6.5013,-6.5048,-6.5216,-6.5216,-6.5048,-6.5216,-6.5011,-6.4566,-6.3969,-6.3855,-6.4081,-6.3985,-6.4511,-6.5349,-6.5242,-6.5008,-6.4492,-6.3344,-6.2549,-6.205,-6.212,-6.1531,-6.0768,-6.0734,-6.0282,-5.9725,-5.9621,-5.9718,-5.9779,-5.9779,-5.9943,-6.0107,-6.0107,-6.0107,-6.0107,-6.0139,-6.0139,-6.0202,-6.0396,-6.0427,-6.0458,-6.0578,-6.0578,-6.0609,-6.0609,-6.0609,-6.0696,-6.0927,-6.038,-5.9916,-5.9916,-5.8731,-5.7803,-5.7652,-5.7009,-5.6599,-5.6626,-5.6626,-5.668,-5.6812,-5.5209,-5.4323,-5.4378,-5.2681,-5.1758,-5.1882,-5.1758,-5.1708,-5.1708,-5.1708,-5.1637,-5.1555,-5.0102,-4.9472,-4.8534,-4.9522,-5.035,0.0,-5.2486,-5.298,-5.3366,-5.3501,-5.3673,-5.4134,-5.4598,-5.5369,-5.6755,-5.7637,-5.8895,0.0,-6.2191,-6.3235,-6.4757,-6.5358,-6.5643,-6.5675,-6.5379,-6.528,-6.5477,-6.5147,-6.508,-6.5379,-6.5249,-6.5149,-6.5149,-6.5149,-6.5013,-6.4809,-6.4911,-6.4877,-6.4706,-6.4775,-6.4844,-6.4844,-6.4877,-6.4912,-6.4809,-6.4877,-6.4597,-6.4039,-6.3231,-6.3049,-6.3314,-6.3637,-6.4091,-6.4645,-6.5006,-6.498,-6.4636,-6.4138,-6.3374,-6.2683,-6.3171,-6.2474,-6.1362,-6.1259,-6.0738,-6.0009,-5.9424,-5.9453,-5.9685,-5.9685,-5.9881,-6.0107,-6.0107,-6.0107,-6.0107,-6.0107,-6.0107,-6.0139,-6.0202,-6.0234,-6.0234,-6.0297,-6.0329,-6.036,-6.0454,-6.0101,-5.9875,-6.0083,-5.9924,-5.9478,-5.8667,-5.7989,-5.7418,-5.6954,-5.6597,-5.641,-5.6465,-5.6465,-5.6492,-5.6573,-5.5481,-5.4847,-5.4864,-5.3687,-5.2876,-5.2487,-5.2437,-5.2197,-5.1708,-5.1708,-5.1508,-5.1093,-5.0341,-4.9853,-4.9608,-5.0403,0.0,-5.3121,-5.3683,-5.3901,-5.4391,-5.4494,-5.4532,-5.4544,-5.5081,-5.5862,-5.6973,-5.7621,-5.8681,-6.0952,-6.1864,-6.2767,-6.4202,-6.4951,-6.5447,-6.5578,-6.508,-6.4911,-6.5313,-6.4945,-6.4911,-6.5379,-6.5249,-6.5082,-6.5082,-6.5082,-6.5014,-6.4775,-6.4911,-6.4877,-6.4706,-6.4706,-6.4706,-6.4706,-6.4706,-6.4706,-6.4706,-6.4706,-6.4213,-6.3299,-6.2668,-6.2488,-6.2758,-6.3218,-6.3745,-6.4303,-6.47,-6.4706,-6.4533,-6.4253,-6.3764,-6.3309,-6.3657,-6.2891,-6.1675,-6.1328,-6.067,-5.9943,-5.9219,-5.9251,-5.9521,-5.9521,-5.9718,-5.9978,-5.9978,-5.9978,-5.9908,-5.9698,-5.9695,-5.9657,-5.9446,-5.9619,-5.9791,-5.9791,-5.9966,-6.0068,-6.0019,-5.9522,-5.9056,-5.8749,-5.8834,-5.8591,-5.7619,-5.7382,-5.7025,-5.6454,-5.6383,-5.6383,-5.6383,-5.6383,-5.6383,-5.6383,-5.5455,-5.4884,-5.4884,-5.392,-5.31,-5.259,-5.259,-5.2304,-5.1708,-5.1708,-5.1437,-5.0974,-5.0651,-5.0234,-4.9942,-5.1193,-5.2597,-5.3394,-5.4191,-5.4714,-5.4526,-5.4494,-5.4701,-5.5393,-5.5046,-5.5283,-5.7727,-5.7455,-5.7829,-6.0814,-6.1763,-6.2668,-6.4202,-6.4754,-6.5048,-6.5013,-6.4463,-6.4358,0.0,-6.4809,-6.4843,-6.5282,-6.5282,-6.5282,-6.5282,-6.5282,-6.5216,-6.5014,-6.5014,-6.4877,-6.4706,-6.4706,-6.4706,-6.4706,-6.4706,-6.4706,-6.4706,-6.4706,-6.3966,-6.2722,-6.2523,-6.2488,-6.2687,-6.2523,-6.3302,-6.4671,-6.4498,-6.4323,-6.4111,-6.3133,-6.3235,-6.3754,-6.2991,-6.2123,-6.1185,-6.0461,-5.9702,-5.9047,-5.9012,-5.9115,-5.9319,-5.9319,-5.9453,-5.9621,-5.9621,-5.9621,-5.9412,-5.8646,-5.8602,-5.8555,-5.7821,-5.8367,-5.9053,-5.9053,-5.9615,-5.9861,-5.9159,-5.9018,-5.8554,-5.7187,-5.697,-5.7052,-5.727,-5.6799,-5.6418,-5.6383,-5.6383,-5.6383,-5.6383,-5.6383,-5.6383,-5.6383,-5.492,-5.4037,-5.4037,-5.26,-5.1744,-5.1744,-5.1744,-5.1708,-5.1708,-5.1708,-5.1672,-5.1637,-5.0887,-5.0495,-5.2122,-5.2899,-5.3579,-5.4221,-5.4606,-5.4749,-5.456,-5.4494,-5.4563,-5.4839,-5.5081,-5.546,-5.6318,-5.7144,-5.8104,-5.9195,-6.048,-6.1831,-6.31,-6.3809,-6.448,-6.5209,-6.4843,0.0,0.0,0.0,0.0,-6.5753,-6.5398,-6.5226,-6.5513,-6.5398,-6.5149,-6.4809,-6.4911,-6.4877,-6.4706,-6.4706,-6.4706,-6.4706,-6.4706,-6.4706,-6.4706,-6.4179,-6.3441,-6.2488,-6.193,-6.1719,-6.182,-6.2211,-6.2954,-6.3798,-6.4148,-6.4144,-6.393,-6.3472,-6.3157,-6.2881,-6.2052,-6.1256,-6.053,-6.0289,-5.9668,-5.9012,-5.9012,-5.9115,-5.9319,-5.9319,-5.9419,-5.9621,-5.9621,-5.9203,-5.8718,-5.844,-5.8052,-5.7698,-5.7451,-5.8009,-5.8491,-5.8129,-5.8685,-5.8997,-5.832,-5.7754,-5.7083,-5.6094,-5.6123,-5.6297,-5.6347,-5.6191,-5.6134,-5.6253,-5.6281,-5.6308,-5.6383,-5.6383,-5.6383,-5.6383,-5.5837,-5.5434,-5.5434,-5.4819,-5.4019,-5.299,-5.3034,-5.2588,-5.1582,-5.1658,-5.1708,-5.1672,-5.1422,-5.0994,-5.3366,-5.3813,-5.4052,-5.4757,-5.4873,-5.478,-5.4683,-5.4589,-5.4529,-5.4592,-5.494,-5.5288,-5.5563,-5.6765,-5.7831,-5.8303,-5.979,-6.1208,-6.2129,-6.28,-6.3608,-6.4685,-6.4387,0.0,0.0,0.0,0.0,-6.5921,-6.5363,-6.5192,-6.5512,-6.5329,-6.5082,-6.4844,-6.4843,-6.4809,-6.4706,-6.4706,-6.4672,-6.4602,-6.4672,-6.4497,-6.4182,-6.3759,-6.3161,-6.2354,-6.1897,-6.1862,-6.2143,-6.2568,-6.3097,-6.3729,-6.4006,-6.3965,-6.3677,-6.2942,-6.2352,-6.187,-6.1426,-6.0806,-6.0151,-5.9875,-5.9426,-5.9012,-5.9012,-5.9081,-5.9183,-5.9183,-5.9285,-5.9386,-5.9386,-5.9004,-5.8484,-5.7964,-5.7508,-5.7121,-5.6877,-5.7431,-5.7913,-5.7615,-5.8171,-5.8412,-5.7513,-5.6736,-5.6069,-5.5578,-5.5648,-5.5793,-5.5822,-5.5844,-5.5964,-5.6077,-5.6077,-5.6134,-5.6217,-5.6217,-5.6217,-5.6217,-5.5885,-5.5687,-5.5687,-5.5319,-5.4485,-5.321,-5.3256,-5.2706,-5.1505,-5.1582,-5.1515,-5.128,-5.1565,-5.128,-5.3637,-5.4027,-5.4142,-5.4994,-5.4992,-5.4842,-5.4961,-5.4745,-5.4592,-5.4749,-5.4655,-5.4736,0.0,0.0,-5.7111,-5.8096,-5.9621,-6.0831,-6.1354,-6.1794,-6.2433,0.0,0.0,0.0,0.0,0.0,0.0,-6.574,0.0,-6.5149,-6.5516,-6.5216,-6.5014,-6.5014,-6.4775,-6.4706,-6.4706,-6.4706,-6.4602,-6.4428,-6.4602,-6.4252,-6.3379,-6.355,-6.3161,-6.2459,-6.2424,-6.2845,-6.3583,-6.3378,-6.3729,-6.4323,-6.3967,-6.3677,-6.3253,-6.159,-6.0968,-6.0968,-6.1183,-6.0771,-6.0013,-5.9254,-5.9012,-5.9012,-5.9012,-5.9012,-5.9012,-5.9012,-5.8978,-5.8944,-5.8944,-5.8909,-5.8495,-5.7116,-5.6867,-5.6757,-5.6096,-5.6675,-5.7321,-5.7409,-5.8031,-5.8129,-5.6776,-5.5964,-5.5507,-5.5507,-5.5507,-5.5537,-5.5648,-5.5822,-5.5872,-5.5872,-5.5872,-5.5872,-5.5901,-5.5901,-5.5901,-5.5901,-5.5235,-5.4846,-5.4846,-5.4068,-5.3254,-5.2448,-5.2404,-5.2068,-5.1479,-5.1479,-5.1165,-5.0577,-5.1351,-5.128,-5.4325,-5.4559,-5.4314,-5.4904,-5.5048,-5.5048,-5.4904,-5.478,-5.4749,-5.478,-5.4655,-5.45,0.0,0.0,0.0,-5.6579,-5.8409,0.0,-6.0388,-6.1055,0.0,-6.3573,0.0,-6.3931,-6.5176,-6.4877,0.0,0.0,-6.5313,-6.5292,-6.5687,-6.5398,-6.5082,-6.4775,-6.4706,-6.4706,-6.4706,-6.4706,-6.4672,-6.4637,-6.4672,-6.4566,-6.4356,-6.3829,-6.3477,-6.3267,-6.2635,-6.2845,-6.3583,-6.3378,-6.3311,-6.331,-6.3098,-6.2466,-6.1626,-6.132,-6.0766,-6.0214,-6.0391,-5.9978,-5.9288,-5.9081,-5.9012,-5.9012,-5.9012,-5.9012,-5.9012,-5.9012,-5.8599,-5.8185,-5.8185,-5.7357,-5.6529,-5.6736,-5.6389,-5.6077,-5.6491,-5.6765,-5.6826,-5.6523,-5.6388,-5.622,-5.5829,-5.5648,-5.5507,-5.5507,-5.5507,-5.5507,-5.5566,-5.5596,-5.5619,-5.5735,-5.5764,-5.5793,-5.5872,-5.5901,-5.5901,-5.5901,-5.5645,-5.5453,-5.5453,-5.4592,-5.376,-5.2986,-5.2498,-5.1882,-5.1193,-5.1402,-5.1398,-5.1272,-5.1551,-5.1565,-5.3853,-5.4268,-5.4273,-5.4605,-5.4895,-5.5009,-5.4665,-5.4474,-5.4248,-5.3936,-5.3744,0.0,-5.3369,0.0,0.0,0.0,0.0,0.0,-6.004,-6.0557,-6.1392,0.0,-6.3011,0.0,-6.4779,-6.4767,-6.4877,0.0,-6.5147,-6.5121,-6.5442,-6.5192,-6.4911,-6.4706,-6.4706,-6.4706,-6.4706,-6.4706,-6.4637,-6.4568,-6.4637,-6.4462,-6.4077,-6.3759,-6.3583,-6.3547,0.0,-6.3372,-6.404,-6.3415,-6.3101,-6.2927,-6.2333,-6.1632,-6.0968,-6.066,-6.0211,-5.9727,-5.942,-5.9079,-5.8806,-5.8944,-5.9012,-5.9012,-5.9012,-5.9012,-5.9012,-5.9012,-5.8495,-5.7978,-5.8323,-5.7495,-5.6736,-5.7185,-5.6702,-5.6253,-5.6702,-5.6529,-5.6247,-5.6112,-5.5758,-5.5478,-5.5383,-5.5354,-5.5354,-5.5354,-5.5354,-5.5383,-5.5478,-5.5507,-5.5537,-5.5625,-5.5625,-5.5619,-5.5706,-5.5706,-5.5706,-5.5706,-5.5331,-5.5097,-5.5097,-5.4266,-5.3471,-5.2699,-5.229,-5.1782,-5.1123,-5.1246,-5.1173,-5.0906,-5.1327,-5.1353,-5.2916,-5.3596,-5.4034,-5.4221,-5.457,-5.483,-5.4367,-5.3981,-5.3495,-5.2839,0.0,-5.2433,-5.2218,-5.3675,-5.5104,-5.5726,0.0,-5.9099,-5.9689,-6.0097,-6.0614,-6.1389,-6.2091,-6.2931,-6.3943,-6.4383,-6.4738,-6.5249,-6.4877,-6.4775,-6.5014,-6.4809,-6.4706,-6.4706,-6.4706,-6.4706,-6.4706,-6.4706,-6.4602,-6.4428,-6.4602,-6.4252,-6.3484,-6.369,-6.3688,-6.3583,0.0,0.0,-6.4321,-6.3276,-6.2753,-6.2544,-6.1499,-6.0868,-6.0551,-5.9758,-5.9447,-5.9306,-5.8517,-5.8348,-5.8561,-5.884,-5.8944,-5.8944,-5.8944,-5.8875,-5.8806,-5.8806,-5.8255,-5.7842,-5.8462,-5.8152,-5.7737,-5.7841,-5.7324,-5.684,-5.6909,-5.6253,-5.5694,-5.5907,-5.5658,-5.5389,-5.5199,-5.5169,-5.5169,-5.5169,-5.5169,-5.5229,-5.5419,-5.5478,-5.5507,-5.5507,-5.5507,-5.5472,-5.5367,-5.5437,-5.5402,-5.5227,-5.463,-5.4279,-5.4173,-5.3436,-5.2699,-5.2004,-5.1899,-5.1595,-5.1061,-5.1096,-5.0788,-5.0256,-5.098,-5.0873,-5.2804,-5.3296,-5.3484,-5.3999,-5.4273,-5.4373,-5.4174,-5.3591,0.0,0.0,-5.2612,-5.2403,-5.2066,-5.3429,-5.4451,-5.3967,0.0,0.0,0.0,0.0,-6.0291,0.0,0.0,0.0,0.0,0.0,0.0,0.0,0.0,-6.4775,-6.5014,-6.498,-6.4843,-6.4706,-6.4706,-6.4706,-6.4706,-6.4706,-6.4672,-6.4637,-6.4672,-6.4601,-6.4462,-6.4496,-6.4179,-6.3583,0.0,0.0,-6.2742,-6.2092,-6.1467,-6.0878,-6.0145,-5.9413,-5.8687,-5.8694,-5.8588,-5.8447,-5.8453,-5.849,-5.8525,-5.8561,-5.8596,-5.8596,-5.8596,-5.8151,-5.7672,-5.7672,-5.7124,-5.6508,-5.6645,-5.6712,-5.6882,-5.75,-5.7222,-5.6978,-5.7598,-5.6731,-5.5684,-5.5123,-5.5065,-5.5083,-5.5053,-5.5053,-5.5053,-5.5053,-5.5053,-5.5053,-5.5083,-5.5329,-5.5507,-5.5507,-5.5507,-5.5227,-5.4559,-5.5121,-5.4981,-5.3682,-5.4033,-5.4033,-5.3401,-5.2628,-5.2137,-5.2004,-5.14,-5.1041,-5.0927,-5.107,-5.1052,-5.0938,-5.1175,-5.0873,-5.1786,-5.2277,-5.2636,-5.2936,-5.3379,-5.3583,-5.3112,0.0,0.0,0.0,-5.1396,-5.1222,-5.102,-5.2352,0.0,-5.3514,0.0,0.0,0.0,0.0,0.0,0.0,0.0,0.0,0.0,0.0,0.0,0.0,0.0,-6.4637,-6.4809,-6.4843,-6.4775,-6.4706,-6.4706,-6.4706,-6.4706,-6.4706,-6.453,-6.4144,-6.4144,-6.3898,-6.3512,-6.3512,-6.3268,-6.2851,-6.2851,0.0,-6.1916,-6.119,-6.0601,-6.0116,-5.9351,-5.8762,-5.8384,-5.8348,-5.8312,-5.8171,-5.8205,-5.8205,-5.8205,-5.8205,-5.8348,-5.8422,-5.8046,-5.767,-5.7397,-5.7397,-5.6816,-5.6372,-5.7192,-5.6885,-5.6508,-5.733,-5.678,-5.6053,-5.6117,-5.5692,-5.523,-5.4849,-5.4934,-5.4961,-5.4934,-5.4904,-5.4904,-5.4904,-5.4904,-5.49,-5.4992,-5.5144,-5.5264,-5.5324,-5.5448,-5.5191,-5.4384,-5.4607,-5.4297,-5.326,-5.3063,-5.286,-5.2593,-5.1738,-5.1317,-5.1435,-5.0967,-5.0819,-5.0873,-5.0954,-5.1016,-5.0981,-5.0638,-5.0241,-5.0873,-5.1407,-5.1976,-5.1976,-5.2404,-5.2684,-5.2061,-5.1696,0.0,0.0,-5.0257,-5.0178,-5.004,-5.1232,-5.2433,0.0,-5.4738,0.0,0.0,0.0,0.0,0.0,0.0,0.0,0.0,0.0,0.0,0.0,0.0,0.0,-6.4672,-6.4706,-6.4706,-6.4706,-6.4706,-6.4706,-6.4706,-6.4566,-6.4179,-6.3583,-6.3407,-6.2986,-6.2389,-6.2389,-6.2252,-6.2013,-6.198,0.0,0.0,-6.029,-5.9804,-5.9524,-5.8765,-5.8419,-5.8348,-5.8171,-5.8169,-5.8099,-5.7954,-5.7881,-5.7881,-5.7881,-5.8099,-5.8247,-5.7497,-5.7156,-5.702,-5.6849,-5.6372,-5.6133,-5.7361,-5.6883,-5.6269,-5.6782,-5.6131,-5.5233,-5.4571,-5.4592,-5.4717,-5.4717,-5.4807,-5.4838,-5.4749,-5.4717,-5.4717,-5.4717,-5.4717,-5.478,-5.4869,-5.493,-5.4922,-5.4834,-5.5019,-5.4828,-5.4022,-5.3894,-5.3503,-5.2706,-5.2103,-5.1759,-5.1696,-5.0962,-5.062,-5.0792,-5.0647,-5.0647,-5.0846,-5.0846,-5.0776,-5.0627,-4.996,-4.9635,-5.0873,-5.1352,-5.1801,-5.1801,-5.1793,-5.1714,-5.1644,0.0,0.0,-5.0263,-5.02,-5.0178,-5.004,-5.0666,-5.1459,-5.2218,0.0,-5.5309,0.0,0.0,0.0,0.0,0.0,0.0,0.0,0.0,0.0,0.0,0.0,0.0,0.0,-6.4706,-6.4706,-6.4706,-6.4706,-6.4706,-6.4706,-6.4039,-6.3653,-6.3583,-6.2845,-6.2459,-6.2389,-6.2389,-6.2038,-6.1373,0.0,0.0,0.0,-5.9287,-5.8909,-5.8628,-5.8312,-5.8099,-5.7954,-5.7918,-5.7918,-5.7918,-5.7918,-5.7881,-5.7881,-5.7881,-5.7918,-5.7819,-5.7107,-5.6395,-5.5718,-5.5075,-5.4804,-5.4804,-5.494,-5.5484,-5.5894,-5.5416,-5.5343,-5.5201,-5.4411,-5.4367,-5.456,-5.456,-5.4526,-5.4526,-5.456,-5.456,-5.456,-5.456,-5.456,-5.4526,-5.4526,-5.4717,-5.4533,-5.3805,-5.3952,-5.3729,-5.2933,-5.2945,-5.2402,-5.0927,-5.1452,-5.1487,-5.0752,-5.0544,-5.0425,-5.046,-5.0425,-5.0481,-5.0612,-5.0612,-5.0344,-4.9811,-4.9741,-4.9328,-5.0627,-5.0741,-5.0624,-5.0997,-5.1046,-5.0962,-5.0913,0.0,-5.0257,-5.02,-5.0149,-5.0063,-5.0011,-5.0597,-5.1385,-5.2235,0.0,0.0,0.0,0.0,0.0,0.0,0.0,0.0,0.0,0.0,0.0,0.0,0.0,0.0,0.0,-6.446,-6.4495,-6.4039,-6.4039,-6.4039,-6.4039,-6.3267,-6.288,-6.2845,-6.2108,-6.1443,-6.0854,-6.0952,-6.0747,-6.0272,0.0,0.0,0.0,-5.8978,-5.8702,-5.849,-5.8169,-5.7954,-5.7881,-5.7881,-5.7881,-5.7881,-5.7881,-5.7611,-5.7239,-5.7239,-5.7239,-5.7103,-5.6359,-5.5953,-5.5547,-5.4803,-5.46,-5.4702,-5.5141,-5.5211,-5.5009,-5.4396,-5.4325,-5.4356,-5.4244,-5.4207,-5.4102,-5.3911,-5.3711,-5.3542,-5.3187,-5.3401,-5.351,-5.3029,-5.331,-5.3384,-5.2938,-5.3025,-5.298,-5.267,-5.3385,-5.3391,-5.2138,-5.197,-5.1511,-5.0551,-5.0676,-5.0711,-5.0481,-5.0341,-5.0313,-5.0397,-5.0313,-5.0341,-5.0481,-5.0481,-5.018,-4.9581,-4.9056,-4.8513,-5.0117,-5.0055,-4.973,-5.0327,-5.0453,-5.0397,0.0,-5.0206,-5.0149,-5.0149,-5.0097,-5.0011,-5.0011,-5.0597,-5.1346,-5.2013,0.0,-5.4395,-5.6059,0.0,0.0,0.0,0.0,0.0,0.0,0.0,0.0,0.0,0.0,0.0,0.0,-6.3758,-6.3793,-6.3267,-6.3233,-6.3199,-6.3199,-6.2392,-6.1972,-6.1972,-6.1268,-6.0569,-5.9911,-6.0043,-5.9978,-5.9751,0.0,0.0,0.0,-5.8944,-5.8667,-5.8455,-5.8099,-5.7954,-5.7881,-5.7881,-5.7881,-5.7881,-5.7881,-5.7408,-5.6799,-5.6799,-5.6664,-5.6359,-5.5615,-5.5547,-5.5513,-5.4532,-5.4262,-5.4397,-5.4938,-5.4668,-5.4161,-5.3753,-5.3684,-5.3783,-5.4013,-5.3907,-5.3663,-5.3369,-5.3029,-5.2623,-5.223,-5.2451,-5.2529,-5.2015,-5.2298,-5.2406,-5.189,-5.1946,-5.1905,-5.1603,-5.2451,-5.2587,-5.1541,-5.1136,-5.0783,-5.0348,-5.0228,-5.0228,-5.0313,-5.0235,-5.0206,-5.0291,-5.0206,-5.0206,-5.0341,-5.0341,-4.991,-4.9098,-4.8478,-4.7762,-4.9318,-4.9393,-4.943,-5.0055,-5.0092,-5.0011,-5.0011,-5.0011,-5.0011,-5.0011,-5.0011,-5.0011,-5.0011,-5.0597,-5.1144,-5.1286,-5.2711,0.0,0.0,0.0,0.0,0.0,0.0,0.0,0.0,0.0,0.0,0.0,0.0,0.0,0.0,-6.2424,-6.2424,-6.2389,-6.2292,-6.2191,-6.2191,-6.1422,-6.1002,-6.1002,-6.0428,-6.0107,-6.0107,-6.0107,-6.0107,0.0,0.0,0.0,0.0,-5.9149,-5.8806,-5.849,-5.8277,-5.8063,-5.7881,-5.7881,-5.7881,-5.7881,-5.7881,-5.7408,-5.6799,-5.6799,-5.6325,-5.5581,-5.4837,-5.5108,-5.5377,-5.3923,-5.3518,-5.3518,-5.3518,-5.3518,-5.3518,-5.3518,-5.3618,-5.3717,-5.3717,-5.3365,-5.3107,-5.3072,-5.2489,-5.2039,-5.1974,-5.1915,-5.1822,-5.1822,-5.1822,-5.1791,-5.1822,-5.1946,-5.1638,-5.0697,-5.0815,-5.1,-5.1085,-5.057,-5.0235,-5.0171,-5.0171,-5.0171,-5.0171,-5.0063,-5.0011,-5.0011,-5.0011,-5.0063,-5.0171,-5.0171,-4.9493,-4.81,-4.81,-4.73,-4.8207,-4.8207,-4.7865,-4.8494,-4.8585,-4.8564,-4.8424,-4.8459,-4.8568,-4.9079,-4.9154,-4.9355,-4.9907,-5.0095,-5.0513,-5.1696,-5.2493,0.0,0.0,0.0,0.0,0.0,0.0,0.0,0.0,0.0,0.0,0.0,0.0,0.0,0.0,-6.0992,-6.0891,-6.1452,-6.1385,-6.1285,-6.1184,-6.0517,-6.0443,-6.0967,-6.0393,-6.0008,-5.9911,-6.004,0.0,0.0,0.0,0.0,0.0,-5.9081,-5.8736,-5.8597,-5.8171,-5.7954,-5.7881,-5.7881,-5.7881,-5.7814,-5.7306,-5.6664,-5.5987,-5.5446,-5.5141,-5.4768,-5.3922,-5.4227,-5.4735,-5.3788,-5.3518,-5.3518,-5.3518,-5.3518,-5.3518,-5.3518,-5.3517,-5.3584,-5.3684,-5.3105,-5.249,-5.2201,-5.1486,-5.0772,-5.0351,-5.0602,-5.0649,-5.0104,-5.0385,-5.0459,-4.9949,-5.0005,-4.9964,-4.9664,-4.9846,-4.9996,-5.0145,-4.9963,-4.9947,-5.0034,-5.0063,-5.0063,-5.0063,-5.004,-5.0011,-5.0011,-5.0011,-5.004,-5.0063,-5.0063,-4.9325,-4.7939,-4.7004,-4.6265,-4.7108,-4.7335,-4.709,-4.7657,-4.781,-4.7727,-4.7617,-4.7595,-4.7767,-4.8637,-4.8803,-4.9045,-4.9838,-5.0154,-5.0607,-5.1542,-5.2373,0.0,0.0,0.0,0.0,0.0,0.0,0.0,0.0,0.0,0.0,0.0,0.0,0.0,0.0,0.0,-5.9958,-6.0349,-6.0349,-6.0315,-6.0282,-5.9894,-5.9995,-6.0484,-6.0221,-5.9975,-5.9779,-5.9943,0.0,0.0,0.0,0.0,0.0,-5.8978,-5.8667,-5.8562,-5.8099,-5.7845,-5.7772,-5.7772,-5.7566,-5.719,-5.6718,-5.5945,-5.5104,-5.4632,-5.4294,-5.399,-5.3483,-5.3652,-5.3991,-5.3585,-5.3518,-5.3518,-5.3518,-5.3518,-5.3518,-5.3518,-5.3518,-5.345,-5.3211,-5.2567,-5.1853,-5.1296,-5.0515,-4.9838,-4.9453,-4.9668,-4.9715,-4.9175,-4.9452,-4.9526,-4.9052,-4.9107,-4.9168,-4.9138,-4.929,-4.9411,-4.95,-4.9619,-4.9737,-4.9889,-4.9982,-5.0011,-5.0011,-5.0011,-5.0011,-5.0011,-5.0011,-5.0011,-5.0011,-4.9424,-4.8521,-4.7361,-4.6221,-4.5658,0.0,-4.6645,-4.6826,-4.7417,-4.7451,-4.7339,-4.7339,-4.7255,0.0,-4.8471,-4.87,-4.8947,-4.9809,-5.0616,-5.1134,-5.0944,0.0,0.0,0.0,0.0,0.0,0.0,0.0,0.0,0.0,0.0,0.0,0.0,0.0,0.0,0.0,0.0,-5.9617,-5.9319,-5.9285,-5.9386,-5.9588,-5.9588,-5.9588,-5.9621,-5.9946,-5.9975,-5.9811,-5.9811,0.0,0.0,0.0,0.0,0.0,-5.8909,-5.8632,-5.8455,-5.8027,-5.7772,-5.7588,-5.752,-5.6972,-5.6218,-5.6084,-5.5324,-5.4289,-5.4256,-5.3751,-5.3213,-5.3416,-5.3348,-5.3213,-5.3416,-5.3484,-5.3484,-5.345,-5.3484,-5.345,-5.3518,-5.3518,-5.3315,-5.2536,-5.1922,-5.1303,-5.0589,-4.9777,-4.9199,-4.9199,-4.9077,-4.9018,-4.9018,-4.9018,-4.9018,-4.9018,-4.9107,-4.9138,-4.8984,-4.9107,-4.9199,-4.9199,-4.9471,-4.9679,-4.9679,-4.986,-4.9982,-4.9982,-4.9982,-4.9982,-4.9982,-4.9913,-4.9878,-4.9809,-4.8327,-4.7258,-4.6569,-4.5776,-4.5397,-4.463,0.0,-4.576,-4.5906,-4.5922,-4.5868,0.0,-4.5726,-4.6103,-4.7533,-4.766,-4.818,-5.0218,-5.0312,-5.0532,0.0,0.0,0.0,0.0,0.0,0.0,0.0,0.0,0.0,0.0,0.0,0.0,0.0,0.0,0.0,0.0,0.0,-5.9386,-5.9319,-5.9149,-5.9149,-5.9352,-5.9386,-5.952,-5.9748,-5.9846,-5.9943,-6.0008,-6.0008,0.0,0.0,0.0,0.0,-5.9352,-5.8909,-5.8526,-5.8277,-5.7991,-5.7772,-5.752,-5.6982,-5.6609,-5.627,-5.5127,-5.4662,-5.443,-5.3855,-5.3483,-5.3213,-5.328,-5.311,-5.3007,-5.3213,-5.3144,-5.3109,-5.3213,-5.328,-5.3314,-5.345,-5.3518,-5.345,-5.3281,-5.2197,-5.1248,-5.1078,-4.9929,-4.908,-4.908,-4.9049,-4.9018,-4.9018,-4.9018,-4.9018,-4.9018,-4.9015,-4.9015,-4.8984,-4.9015,-4.908,-4.908,-4.9199,-4.9381,-4.953,-4.9594,-4.9624,-4.9624,-4.9742,-4.9708,-4.9624,-4.9042,-4.8494,-4.794,-4.7058,-4.6536,-4.633,-4.5688,-4.5397,-4.3605,-4.4785,-4.5949,-4.5834,-4.578,-4.5699,-4.5562,-4.548,-4.5821,-4.7124,-4.7581,-4.8206,-4.9774,-5.0287,0.0,0.0,0.0,0.0,0.0,0.0,0.0,0.0,0.0,0.0,0.0,0.0,0.0,0.0,0.0,0.0,0.0,0.0,-5.9285,-5.9149,-5.9047,-5.9081,-5.9319,-5.9319,-5.9453,-5.9718,-5.9718,-5.9783,-5.9881,-5.9881,0.0,0.0,0.0,0.0,-5.9115,-5.884,-5.8456,-5.8027,-5.7845,-5.7423,-5.6902,-5.6389,-5.5746,-5.4971,-5.4276,-5.4018,-5.3855,-5.3381,-5.3212,-5.3179,-5.3076,-5.2903,-5.2799,-5.3007,-5.2972,-5.2938,-5.3041,-5.311,-5.3213,-5.3348,-5.3416,-5.3416,-5.3044,-5.2029,-5.1083,-5.0777,-4.9796,-4.9018,-4.9018,-4.9018,-4.9018,-4.9018,-4.9018,-4.9018,-4.9018,-4.9018,-4.9018,-4.9018,-4.9018,-4.9018,-4.9018,-4.9046,-4.9168,-4.935,-4.9441,-4.95,-4.95,-4.956,-4.9389,-4.8992,-4.827,-4.7518,-4.6731,-4.6405,-4.6021,-4.5713,-4.5356,-4.5264,-4.2962,-4.4672,-4.6507,-4.6227,-4.6083,-4.5979,-4.5948,-4.5812,-4.6021,-4.7124,0.0,0.0,0.0,-5.039,0.0,0.0,0.0,0.0,0.0,0.0,0.0,0.0,0.0,0.0,0.0,0.0,0.0,0.0,0.0,0.0,0.0,0.0,0.0,-5.9012,-5.9012,-5.9081,-5.9251,-5.9285,-5.9386,-5.9621,-5.9621,-5.9621,-5.9621,-5.9621,-5.9652,0.0,0.0,0.0,-5.8944,-5.8771,-5.835,-5.7845,-5.7527,-5.6902,-5.6111,-5.5692,-5.4678,-5.3509,-5.3625,-5.344,-5.3179,-5.3041,-5.311,-5.3179,-5.2972,-5.2764,-5.2659,-5.2799,-5.2799,-5.2834,-5.2868,-5.3007,-5.3179,-5.3213,-5.3382,-5.3315,-5.2638,-5.1826,-5.1014,-5.0371,-4.9593,-4.9018,-4.9018,-4.9018,-4.9018,-4.9018,-4.8987,-4.8987,-4.8987,-4.8987,-4.8987,-4.8987,-4.9018,-4.9018,-4.9018,-4.9018,-4.9046,-4.9168,-4.932,-4.9411,-4.9441,-4.9308,-4.8899,-4.8211,-4.7426,-4.6675,-4.5862,-4.589,-4.5576,-4.4968,-4.4995,-4.5042,-4.2962,-4.4585,-4.622,-4.5681,-4.5508,-4.5635,-4.6117,-4.6004,-4.618,0.0,0.0,0.0,0.0,-5.0488,-5.0712,0.0,0.0,0.0,0.0,0.0,0.0,0.0,0.0,0.0,0.0,0.0,0.0,0.0,0.0,0.0,0.0,0.0,0.0,-5.9012,-5.9012,-5.9012,-5.9047,-5.9183,-5.9386,-5.9621,-5.9621,-5.9621,-5.9621,-5.9621,-5.9621,0.0,0.0,-5.9115,-5.8702,-5.8562,-5.8171,-5.7594,-5.6915,-5.6392,-5.5792,-5.4489,-5.3961,-5.387,-5.3651,-5.3416,-5.3213,-5.3348,-5.3416,-5.3382,-5.3007,-5.2868,-5.2799,-5.2551,-5.248,-5.2551,-5.2834,-5.2903,-5.3007,-5.3382,-5.3484,-5.3484,-5.3348,-5.2198,-5.1183,-5.1082,-4.9932,-4.9018,-4.9018,-4.9018,-4.9018,-4.9018,-4.8894,-4.8832,-4.8832,-4.8832,-4.8832,-4.8832,-4.8925,-4.9018,-4.9018,-4.9018,-4.9018,-4.9015,-4.908,-4.9107,-4.9229,-4.8531,-4.7853,-4.7219,-4.6389,-4.5586,-4.4806,-4.4946,-4.4933,-4.4831,-4.4968,-4.5042,-4.2833,-4.3975,-4.5238,-4.5772,-4.601,-4.6393,-4.7595,-4.7362,-4.7174,0.0,0.0,0.0,0.0,0.0,0.0,0.0,0.0,0.0,0.0,0.0,0.0,0.0,0.0,0.0,0.0,0.0,0.0,0.0,0.0,0.0,0.0,0.0,0.0,0.0,-5.9012,-5.9012,-5.9012,-5.9217,-5.9352,-5.9419,-5.9319,-5.9319,-5.9419,-5.9419,-5.9386,-5.9285,0.0,-5.8944,-5.8421,-5.835,-5.7753,-5.6798,-5.6352,-5.5569,-5.4589,-5.3415,-5.3088,-5.3196,-5.2967,-5.2971,-5.3007,-5.2937,-5.304,-5.3109,-5.2762,-5.2659,-5.2694,-5.248,-5.2409,-5.2445,-5.2659,-5.2799,-5.2972,-5.328,-5.3348,-5.3348,-5.3348,-5.2167,-5.1088,-5.1088,-4.997,-4.9018,-4.9018,-4.9018,-4.8987,-4.8894,-4.8832,-4.8769,-4.8675,-4.8738,-4.8801,-4.8801,-4.8925,-4.9018,-4.9018,-4.9018,-4.9018,-4.9018,-4.9018,-4.9015,-4.9077,-4.8338,-4.7594,-4.6903,-4.6104,-4.5331,-4.4615,-4.4671,-4.4665,-4.4692,-4.4748,-4.4858,-4.2615,-4.3296,-4.4173,-4.5772,-4.6362,-4.7015,-4.8612,-4.8453,-4.8142,-4.8793,0.0,0.0,0.0,0.0,0.0,0.0,0.0,0.0,0.0,0.0,0.0,0.0,0.0,0.0,0.0,0.0,0.0,0.0,0.0,0.0,0.0,0.0,0.0,0.0,-5.9012,-5.9012,-5.9012,-5.9149,-5.9251,-5.9251,-5.9115,-5.9115,-5.9251,-5.9217,-5.9115,-5.8944,-5.8944,-5.8632,-5.8099,-5.7857,-5.7089,-5.6074,-5.5558,-5.4552,-5.3318,-5.2679,-5.2516,-5.2589,-5.2551,-5.2692,-5.2834,-5.2622,-5.2692,-5.2834,-5.2551,-5.2551,-5.2553,-5.2445,-5.231,-5.2213,-5.252,-5.2729,-5.2938,-5.3144,-5.3144,-5.3111,-5.3011,-5.1933,-5.0956,-5.0755,-4.9805,-4.8987,-4.8925,-4.8925,-4.8925,-4.8769,-4.8738,-4.8675,-4.8515,-4.8675,-4.8801,-4.8801,-4.8925,-4.9018,-4.9018,-4.8956,-4.8892,-4.8956,-4.8987,-4.9018,-4.9018,-4.8139,-4.7432,-4.6997,-4.5945,-4.5229,-4.4767,-4.4654,-4.4615,-4.4615,-4.4615,-4.4699,-4.2345,-4.2669,-4.3434,-4.5209,-4.5903,-4.6526,-4.803,-4.842,-4.8591,-4.9082,0.0,0.0,0.0,0.0,0.0,0.0,0.0,0.0,0.0,0.0,0.0,0.0,0.0,0.0,0.0,0.0,0.0,0.0,0.0,0.0,0.0,0.0,0.0,0.0,0.0,-5.9012,-5.9012,-5.9012,-5.9012,-5.9012,-5.9217,-5.9217,-5.9012,-5.8875,-5.8806,-5.8771,-5.8241,-5.7954,-5.7848,-5.6774,-5.6178,-5.5788,-5.4389,-5.3282,-5.2511,-5.2551,-5.2589,-5.2624,-5.2799,-5.2868,-5.2903,-5.2868,-5.2868,-5.2868,-5.2659,-5.2589,-5.2553,-5.2445,-5.1912,-5.1582,-5.2387,-5.2729,-5.2938,-5.3144,-5.3041,-5.2806,-5.2437,-5.1661,-5.0789,-5.0116,-4.9434,-4.8892,-4.8578,-4.8707,-4.8738,-4.8547,-4.8515,-4.8515,-4.8515,-4.8675,-4.8801,-4.8801,-4.8925,-4.9018,-4.9018,-4.8704,-4.861,-4.8801,-4.8925,-4.9018,-4.9018,-4.7631,-4.7068,-4.7524,-4.565,-4.4902,-4.5336,-4.4834,-4.4615,-4.4615,-4.4615,-4.4699,-4.237,-4.2949,-4.3732,-4.5217,-4.6374,-4.7603,-4.9205,-4.9277,-4.9277,-5.0302,-5.1193,0.0,0.0,0.0,0.0,0.0,0.0,0.0,0.0,0.0,0.0,0.0,0.0,0.0,0.0,0.0,0.0,0.0,0.0,0.0,0.0,0.0,0.0,0.0,0.0,-5.9012,-5.9012,-5.9012,-5.9012,-5.9012,-5.9081,-5.9081,-5.9012,-5.8875,-5.8666,-5.8419,-5.8027,-5.7429,-5.6623,-5.617,-5.5355,-5.4273,-5.3277,-5.2677,-5.2409,-5.2445,-5.248,-5.248,-5.2587,-5.2587,-5.2587,-5.2587,-5.2587,-5.2587,-5.2516,-5.248,-5.248,-5.2409,-5.1949,-5.1488,-5.1823,-5.2096,-5.2268,-5.2472,-5.2336,-5.2201,-5.2169,-5.0994,-4.989,-4.972,-4.9179,-4.8642,-4.8515,-4.8547,-4.8413,-4.7755,-4.769,-4.7458,-4.6897,-4.702,-4.7144,-4.7237,-4.7481,-4.7601,-4.7447,-4.7325,-4.7264,-4.7267,-4.8138,-4.8471,-4.8034,-4.7555,-4.6948,-4.6249,-4.5616,-4.5167,-4.4907,-4.4722,-4.4615,-4.4615,-4.4615,-4.4643,-4.2294,-4.2859,-4.3637,-4.5072,-4.6317,-4.7715,-4.9604,-4.9799,-4.9813,-5.061,-5.1618,-5.2689,-5.3845,0.0,0.0,0.0,0.0,0.0,0.0,0.0,0.0,0.0,0.0,0.0,0.0,0.0,0.0,0.0,0.0,0.0,0.0,0.0,0.0,0.0,0.0,-5.9012,-5.9012,-5.9012,-5.9012,-5.9012,-5.9012,-5.8944,-5.884,-5.8701,-5.8384,-5.7991,-5.7735,-5.6962,-5.5884,-5.558,-5.4505,-5.3036,-5.2572,-5.2409,-5.2409,-5.2409,-5.2409,-5.2445,-5.2409,-5.2445,-5.2445,-5.2409,-5.2409,-5.2409,-5.2409,-5.2409,-5.2376,-5.2144,-5.175,-5.1388,-5.1155,-5.1461,-5.1765,-5.1598,-5.1665,-5.163,-5.1363,-5.0259,-4.9259,-4.919,-4.8786,-4.8416,-4.8119,-4.8117,-4.7883,-4.7056,-4.6953,-4.6753,-4.6096,-4.6216,-4.6337,-4.6364,-4.6548,-4.6608,-4.6455,-4.6334,-4.6274,-4.6246,-4.712,-4.7517,-4.7139,-4.6932,-4.6458,-4.5685,-4.5366,-4.5053,-4.4783,-4.4603,-4.4497,-4.4497,-4.4587,-4.4587,-4.2023,-4.2255,-4.2846,-4.4587,-4.5485,-4.6488,-4.8719,-4.9695,-5.0086,-4.9767,-5.103,-5.2364,-5.2966,0.0,0.0,0.0,0.0,0.0,0.0,0.0,0.0,0.0,0.0,0.0,0.0,0.0,0.0,0.0,0.0,0.0,0.0,0.0,0.0,0.0,0.0,0.0,-5.9012,-5.9012,-5.9012,-5.9012,-5.9012,-5.8806,-5.849,-5.8312,-5.7954,-5.7588,-5.7143,-5.6554,-5.5817,-5.4866,-5.3665,-5.2409,-5.2409,-5.2409,-5.2409,-5.2409,-5.248,-5.2553,-5.2445,-5.248,-5.2553,-5.2445,-5.2409,-5.2409,-5.2409,-5.2409,-5.2243,-5.1514,-5.1282,-5.1082,-5.0386,-5.0992,-5.153,-5.0626,-5.0958,-5.1126,-4.989,-4.9458,-4.906,-4.8328,-4.8356,-4.8217,-4.726,-4.7254,-4.7178,-4.641,-4.6394,-4.6481,-4.6481,-4.6663,-4.6693,-4.6481,-4.6364,-4.6274,-4.6274,-4.5967,-4.5875,-4.6062,-4.5875,-4.5965,-4.6451,-4.566,-4.5567,-4.624,-4.4834,-4.4465,-4.5172,-4.4577,-4.4293,-4.4293,-4.4497,-4.4468,-4.2086,-4.3081,-4.4325,-4.5242,0.0,0.0,0.0,-4.9293,0.0,0.0,-5.1344,-5.1751,-5.2364,0.0,0.0,0.0,0.0,0.0,0.0,0.0,0.0,0.0,0.0,0.0,0.0,0.0,0.0,0.0,0.0,0.0,0.0,0.0,0.0,0.0,0.0,0.0,-5.9012,-5.9012,-5.9012,-5.9012,-5.8909,-5.8736,-5.849,-5.8312,-5.7647,-5.663,-5.6333,-5.5447,-5.407,-5.3337,-5.2771,-5.2409,-5.2409,-5.2409,-5.2409,-5.2409,-5.2409,-5.2445,-5.2409,-5.2409,-5.2445,-5.2409,-5.2409,-5.2409,-5.2409,-5.2045,-5.158,-5.1382,-5.0551,-4.969,-4.9491,-4.9759,-5.0159,-5.0326,-5.0192,-4.9959,-4.9656,-4.8959,-4.8331,-4.8196,-4.826,-4.8058,-4.7261,-4.7254,-4.6915,-4.5524,-4.5354,-4.5183,-4.4745,-4.4825,-4.4884,-4.4821,-4.4796,-4.4767,-4.4767,-4.459,-4.4471,-4.453,-4.4381,-4.455,-4.52,-4.5093,-4.4857,-4.4619,-4.4273,-4.4198,-4.4432,-4.4342,-4.4236,-4.4184,-4.4327,-4.4384,-4.2205,-4.3408,0.0,-4.5539,-4.702,-4.8424,-4.8946,0.0,0.0,0.0,0.0,-5.1424,0.0,0.0,0.0,0.0,0.0,0.0,0.0,0.0,0.0,0.0,0.0,0.0,0.0,0.0,0.0,0.0,0.0,0.0,0.0,0.0,0.0,0.0,0.0,0.0,-5.9012,-5.9012,-5.9012,-5.9012,-5.8496,-5.8116,-5.78,-5.7622,-5.6951,-5.5929,-5.5288,-5.4413,-5.3367,-5.271,-5.2445,-5.2409,-5.2409,-5.2409,-5.2409,-5.2409,-5.2409,-5.2376,-5.2078,-5.1978,-5.191,-5.1612,-5.1512,-5.1512,-5.1512,-5.1214,-5.0783,-5.0485,-4.9988,-4.9491,-4.9193,-4.9194,-4.9294,-4.9427,-4.9427,-4.9326,-4.9059,-4.8463,-4.8033,-4.8098,-4.8098,-4.7798,-4.683,-4.6758,-4.6319,-4.482,-4.4556,-4.4453,-4.4019,-4.4039,-4.4097,-4.4097,-4.4039,-4.401,-4.401,-4.3956,-4.3868,-4.3809,-4.3717,-4.3886,-4.4257,-4.4318,-4.4241,-4.3898,-4.3894,-4.3923,-4.401,-4.4097,-4.4097,-4.401,-4.4155,-4.4241,-4.2272,-4.3387,-4.4711,-4.5584,-4.7192,0.0,-4.8984,-4.9457,-4.9661,-4.9304,0.0,0.0,0.0,0.0,0.0,0.0,0.0,0.0,0.0,0.0,0.0,0.0,0.0,0.0,0.0,0.0,0.0,0.0,0.0,0.0,0.0,0.0,0.0,0.0,0.0,0.0,-5.8978,-5.8978,-5.8944,0.0,-5.7878,-5.712,-5.6664,-5.6484,-5.6014,-5.5355,-5.4113,-5.3482,-5.3268,-5.2784,-5.2551,-5.2409,-5.2409,-5.2376,-5.231,-5.231,-5.231,-5.221,-5.1481,-5.1249,-5.1216,-5.0518,-5.0253,-5.022,-5.0286,-5.0186,-4.9921,-4.9259,-4.9524,-4.9788,-4.916,-4.8961,-4.8796,-4.8166,-4.8629,-4.906,-4.8166,-4.8001,-4.8001,-4.8001,-4.8001,-4.7602,-4.6331,-4.6062,-4.559,-4.4302,-4.4068,-4.4068,-4.4068,-4.4068,-4.4068,-4.4068,-4.3956,-4.3868,-4.3898,-4.3898,-4.3809,-4.3628,-4.378,-4.3809,-4.3598,-4.3598,-4.3687,-4.3868,-4.3687,-4.3687,-4.3868,-4.3898,-4.3898,-4.3868,-4.401,-4.4097,-4.2165,-4.3492,0.0,0.0,-4.738,-4.871,-4.7711,-4.8863,-5.0044,0.0,0.0,0.0,0.0,0.0,0.0,0.0,0.0,0.0,0.0,0.0,0.0,0.0,0.0,0.0,0.0,0.0,0.0,0.0,0.0,0.0,0.0,0.0,0.0,0.0,0.0,-5.8944,-5.884,-5.8944,-5.86,0.0,-5.75,-5.6812,-5.5673,-5.5494,-5.4831,-5.3831,-5.3149,-5.2751,-5.2608,-5.2584,-5.2551,-5.2409,-5.2409,-5.2115,-5.1688,-5.1582,-5.1617,-5.1554,-5.0719,-5.0817,-5.1282,-5.1082,-5.0684,-5.032,-5.0883,-5.0117,-4.909,-4.8925,-4.8494,-4.8065,-4.8001,-4.8001,-4.8001,-4.8001,-4.8166,-4.8265,-4.8034,-4.8001,-4.8001,-4.8001,-4.8065,-4.7897,-4.6997,-4.6488,-4.5681,-4.4156,-4.3956,-4.3956,-4.3956,-4.3956,-4.3956,-4.3956,-4.3776,-4.3717,-4.3898,-4.378,-4.3687,-4.3839,-4.3717,-4.3658,-4.3598,-4.3598,-4.3628,-4.3658,-4.3628,-4.3628,-4.3658,-4.3839,-4.3839,-4.3658,-4.3868,-4.4015,-4.2318,0.0,0.0,-4.6682,0.0,-4.7879,-4.7477,-4.8615,0.0,0.0,0.0,0.0,0.0,0.0,0.0,0.0,0.0,0.0,0.0,0.0,0.0,0.0,0.0,0.0,0.0,0.0,0.0,0.0,0.0,0.0,0.0,0.0,0.0,0.0,-5.8736,-5.8771,-5.8805,-5.8497,-5.8016,-5.7397,-5.6473,-5.5309,-5.3968,-5.4195,-5.3817,-5.2978,-5.272,-5.2553,-5.2516,-5.2553,-5.2551,-5.234,-5.2011,-5.1682,-5.1353,-5.0917,-5.0819,-5.0754,-4.9956,-5.0154,-5.0651,-4.9955,-4.969,-4.9656,-4.9588,-4.8958,-4.8231,-4.8196,-4.79,-4.7604,-4.7571,-4.7704,-4.7869,-4.7836,-4.7935,-4.8001,-4.8001,-4.8001,-4.8001,-4.8001,-4.8066,-4.7865,-4.7135,-4.6198,-4.513,-4.3946,-4.378,-4.378,-4.378,-4.378,-4.3809,-4.3898,-4.3717,-4.3687,-4.3898,-4.3809,-4.3747,-4.378,-4.3747,-4.3687,-4.3598,-4.3598,-4.3598,-4.3598,-4.3598,-4.3598,-4.3598,-4.3687,-4.3687,-4.3598,-4.3687,-4.3864,-4.247,0.0,-4.5308,-4.7608,-4.7568,0.0,-4.7512,0.0,0.0,0.0,0.0,0.0,0.0,0.0,0.0,0.0,0.0,0.0,0.0,0.0,0.0,0.0,0.0,0.0,0.0,0.0,0.0,0.0,0.0,0.0,0.0,0.0,-5.8353,-5.849,-5.849,-5.8492,-5.853,-5.7878,-5.7329,-5.6849,-5.5109,-5.3611,-5.2478,-5.297,-5.2975,-5.2589,-5.2589,-5.2589,-5.2589,-5.2589,-5.2451,-5.2177,-5.1547,-5.1149,-5.0886,-5.022,-5.0088,-5.0122,-4.9359,-4.9591,-5.0021,-4.8796,-4.863,-4.8796,-4.81,-4.777,-4.7638,-4.7537,-4.7537,-4.7538,-4.7504,-4.7671,-4.7836,-4.7671,-4.7803,-4.7968,-4.8001,-4.8001,-4.8001,-4.8001,-4.7901,-4.757,-4.6841,-4.5582,-4.4456,-4.3698,-4.3598,-4.3598,-4.3598,-4.3598,-4.3658,-4.3839,-4.3687,-4.3658,-4.3839,-4.3868,-4.378,-4.3598,-4.378,-4.3747,-4.3598,-4.3598,-4.3598,-4.3598,-4.3598,-4.3598,-4.3598,-4.3598,-4.3598,-4.3598,-4.3598,-4.3776,0.0,0.0,-4.4983,0.0,-4.7535,-4.7523,0.0,0.0,0.0,0.0,0.0,0.0,0.0,0.0,0.0,0.0,0.0,0.0,0.0,0.0,0.0,0.0,0.0,0.0,0.0,0.0,0.0,0.0,0.0,0.0,0.0,-5.7429,-5.7841,-5.8456,-5.849,-5.8112,-5.7323,-5.7396,-5.6507,-5.4697,-5.3472,-5.2759,-5.2553,-5.2544,-5.2547,-5.2589,-5.2589,-5.2589,-5.2589,-5.2589,-5.2152,-5.1448,-5.1348,-5.0588,-4.9526,-4.936,-4.9725,-5.0258,-4.9393,-4.9591,-5.0187,-4.9988,-4.9127,-4.82,-4.8529,-4.8131,-4.7504,-4.7504,-4.7235,-4.7098,-4.7403,-4.7403,-4.7336,-4.7504,-4.7637,-4.777,-4.7968,-4.8001,-4.8001,-4.8001,-4.7471,-4.6808,-4.6046,-4.5251,-4.4456,-4.3698,-4.3598,-4.3598,-4.3598,-4.3598,-4.3598,-4.3628,-4.3628,-4.3598,-4.3628,-4.3628,-4.3628,-4.3598,-4.3628,-4.3628,-4.3598,-4.3598,-4.3598,-4.3598,-4.3598,-4.3598,-4.3598,-4.3598,-4.3598,-4.3598,-4.3598,-4.3717,-4.3037,-4.359,-4.4271,0.0,-4.6158,0.0,0.0,0.0,0.0,0.0,0.0,0.0,0.0,0.0,0.0,0.0,0.0,0.0,0.0,0.0,0.0,0.0,0.0,0.0,0.0,0.0,0.0,0.0,0.0,0.0,-5.6262,-5.6401,-5.6606,-5.6912,-5.6946,-5.6811,-5.6506,-5.6132,-5.5178,-5.3683,-5.2861,-5.2516,-5.248,-5.2409,-5.248,-5.2589,-5.2551,-5.2551,-5.2555,-5.2086,-5.1649,-5.1216,-5.0386,-4.9691,-4.9128,-4.8663,-4.8962,-4.9626,-4.926,-4.9523,-4.9949,-4.9553,-4.8891,-4.823,-4.7995,-4.7632,-4.7301,-4.7199,-4.7098,-4.7064,-4.7132,-4.7267,-4.7369,-4.7335,-4.7142,-4.7013,-4.7177,-4.7637,-4.7868,-4.7471,-4.6775,-4.6046,-4.5284,-4.4887,-4.4456,-4.3698,-4.3598,-4.3598,-4.3598,-4.3598,-4.3598,-4.3598,-4.3598,-4.3598,-4.3598,-4.3598,-4.3598,-4.3598,-4.3598,-4.3598,-4.3598,-4.3598,-4.3598,-4.3598,-4.3598,-4.3598,-4.3598,-4.3598,-4.3598,-4.3598,-4.3598,-4.3687,0.0,0.0,-4.3748,-4.4471,0.0,0.0,0.0,0.0,0.0,0.0,0.0,0.0,0.0,0.0,0.0,0.0,0.0,0.0,0.0,0.0,0.0,0.0,0.0,0.0,0.0,0.0,0.0,0.0,0.0,0.0,-5.5378,-5.5446,-5.5513,-5.5681,-5.5681,-5.5685,-5.5655,-5.4771,-5.3889,-5.3041,-5.2622,-5.2409,-5.2409,-5.2409,-5.2345,-5.2252,-5.2345,-5.2381,-5.2289,-5.1584,-5.1083,-5.0618,-4.9525,-4.8995,-4.8763,-4.8199,-4.8597,-4.9359,-4.9093,-4.9421,-4.978,-4.8954,-4.849,-4.8091,-4.7398,-4.7201,-4.7167,-4.703,-4.7064,-4.7098,-4.6996,-4.7167,-4.727,-4.6905,-4.655,-4.6323,-4.6354,-4.7077,-4.7504,-4.6742,-4.6179,-4.5549,-4.4821,-4.4522,-4.4224,-4.3664,-4.3598,-4.3598,-4.3598,-4.3598,-4.3598,-4.3598,-4.3598,-4.3598,-4.3598,-4.3598,-4.3598,-4.3598,-4.3598,-4.3598,-4.3598,-4.3539,-4.3479,-4.3479,-4.3386,-4.3386,-4.3479,-4.3539,-4.3509,-4.3419,-4.3479,-4.3568,0.0,-4.3668,0.0,0.0,0.0,0.0,0.0,0.0,0.0,0.0,0.0,0.0,0.0,0.0,0.0,0.0,0.0,0.0,0.0,0.0,0.0,0.0,0.0,0.0,0.0,0.0,0.0,0.0,0.0,0.0,-5.46,-5.4668,-5.4972,-5.5647,-5.5681,-5.5378,-5.4702,-5.3547,-5.2867,-5.2624,-5.248,-5.2409,-5.2409,-5.2409,-5.2045,-5.1415,-5.2111,-5.2082,-5.1523,-5.1385,-5.0452,-4.9226,-4.9127,-4.8663,-4.8067,-4.8001,-4.8928,-5.002,-4.9123,-4.9286,-4.9745,-4.8817,-4.806,-4.7535,-4.7267,-4.7201,-4.7201,-4.7199,-4.7064,-4.6961,-4.7132,-4.7064,-4.6732,-4.6018,-4.6024,-4.6028,-4.5697,-4.6349,-4.6742,-4.598,-4.5814,-4.5549,-4.4821,-4.4125,-4.3631,-4.3598,-4.3598,-4.3598,-4.3598,-4.3598,-4.3598,-4.3598,-4.3598,-4.3598,-4.3598,-4.3598,-4.3598,-4.3598,-4.3598,-4.3598,-4.3598,-4.3295,-4.3143,-4.3143,-4.2803,-4.2803,-4.3143,-4.3295,-4.3267,-4.293,-4.3052,-4.3143,0.0,0.0,0.0,0.0,0.0,0.0,0.0,0.0,0.0,0.0,0.0,0.0,0.0,0.0,0.0,0.0,0.0,0.0,0.0,0.0,0.0,0.0,0.0,0.0,0.0,0.0,0.0,0.0,0.0,0.0,-5.3145,-5.3619,-5.4025,-5.4432,-5.433,-5.4092,-5.3685,-5.3176,-5.2799,-5.2589,-5.248,-5.2409,-5.2409,-5.1912,-5.1547,-5.1315,-5.158,-5.1582,-5.1318,-5.0818,-5.0286,-4.9756,-4.9293,-4.8663,-4.8001,-4.8001,-4.863,-4.9425,-4.8958,-4.8888,-4.8915,-4.8513,-4.7787,-4.7098,-4.703,-4.6996,-4.6996,-4.6996,-4.6961,-4.6927,-4.6996,-4.6604,-4.5888,-4.4723,-4.4594,-4.4691,-4.459,-4.4613,-4.4832,-4.5525,-4.4991,-4.4293,-4.3938,-4.3734,-4.3598,-4.3598,-4.3598,-4.3598,-4.3598,-4.3598,-4.3598,-4.3598,-4.3598,-4.3598,-4.3598,-4.3598,-4.3598,-4.3598,-4.3386,-4.3265,-4.3265,-4.2959,-4.2772,-4.2772,-4.2648,-4.271,-4.2992,-4.3054,-4.3084,-4.3021,-4.3082,-4.3113,-4.2823,0.0,0.0,0.0,0.0,0.0,0.0,0.0,0.0,0.0,0.0,0.0,0.0,0.0,0.0,0.0,0.0,0.0,0.0,0.0,0.0,0.0,0.0,0.0,0.0,0.0,0.0,0.0,0.0,0.0,-5.2739,-5.3213,-5.3517,-5.3617,-5.3584,-5.3416,-5.311,-5.3041,-5.27,-5.2152,-5.2312,-5.2277,-5.2045,-5.1779,-5.1547,-5.1282,-5.1015,-5.0783,-5.0518,-5.032,-4.9922,-4.9425,-4.8928,-4.8431,-4.8001,-4.8001,-4.8465,-4.9027,-4.8528,-4.8424,-4.8418,-4.7981,-4.742,-4.6892,-4.6892,-4.6892,-4.6892,-4.6892,-4.6892,-4.6828,-4.6601,-4.5824,-4.4852,-4.3945,-4.362,-4.3618,-4.3942,-4.3865,-4.4047,-4.494,-4.4502,-4.3833,-4.3482,-4.3509,-4.3598,-4.3598,-4.3598,-4.3598,-4.3598,-4.3598,-4.3598,-4.3598,-4.3598,-4.3598,-4.3598,-4.3598,-4.3568,-4.3449,-4.3235,-4.3052,-4.2959,-4.2585,-4.2428,-4.2428,-4.2301,-4.2365,-4.2556,-4.2681,-4.2743,-4.2774,-4.2836,-4.2898,0.0,0.0,0.0,0.0,0.0,0.0,0.0,0.0,0.0,0.0,0.0,0.0,0.0,0.0,0.0,0.0,0.0,0.0,0.0,0.0,0.0,0.0,0.0,0.0,0.0,0.0,0.0,0.0,0.0,-5.345,-5.345,-5.3484,-5.3518,-5.3518,-5.3617,-5.345,-5.2903,-5.3076,-5.2535,-5.1348,-5.2078,-5.2045,-5.1382,-5.2078,-5.1978,-5.1282,-5.0518,-4.979,-4.916,-4.9889,-4.9326,-4.8034,-4.8034,-4.8034,-4.8001,-4.8001,-4.8465,-4.8895,-4.7867,-4.7929,-4.8286,-4.7257,-4.6892,-4.6892,-4.6892,-4.6892,-4.6892,-4.6892,-4.6892,-4.673,-4.5953,-4.4755,-4.3719,-4.3686,-4.3136,-4.2876,-4.3812,-4.4258,-4.4445,-4.4225,-4.4474,-4.4393,-4.3517,-4.3509,-4.3598,-4.3598,-4.3598,-4.3598,-4.3598,-4.3598,-4.3598,-4.3598,-4.3598,-4.3598,-4.3598,-4.3598,-4.3416,-4.3113,-4.3082,-4.2896,-4.2617,-4.227,-4.2077,-4.2077,-4.1753,-4.1719,-4.1914,-4.2238,-4.227,-4.2109,-4.2302,-4.246,-4.4028,0.0,0.0,0.0,0.0,0.0,0.0,0.0,0.0,0.0,0.0,0.0,0.0,0.0,0.0,0.0,0.0,0.0,0.0,0.0,0.0,0.0,0.0,0.0,0.0,0.0,0.0,0.0,-5.2259,-5.2567,-5.186,-5.2974,-5.3618,-5.3518,-5.3484,-5.3315,-5.2903,-5.2799,-5.2524,-5.2111,-5.231,-5.231,-5.2111,-5.1779,-5.1514,-5.1282,-5.0518,-4.979,-4.9127,-4.9326,-4.916,-4.8762,-4.8662,-4.8332,-4.7968,-4.7869,-4.7969,-4.82,-4.767,-4.7601,-4.7698,-4.7095,-4.6892,-4.6892,-4.6892,-4.6892,-4.6892,-4.6892,-4.6892,-4.6601,-4.537,-4.4497,-4.3749,-4.3071,-4.3136,-4.346,-4.375,-4.3974,-4.4101,-4.4069,-4.3894,-4.3649,-4.3237,-4.3386,-4.3598,-4.3598,-4.3598,-4.3598,-4.3598,-4.3598,-4.3598,-4.3598,-4.3598,-4.3509,-4.3265,-4.3235,-4.3113,-4.2741,-4.2491,-4.2333,-4.2238,-4.1916,-4.1753,-4.1753,-4.1654,-4.1719,-4.1914,-4.198,-4.2141,-4.2302,-4.2365,-4.246,-4.4776,-4.4572,0.0,0.0,0.0,0.0,-4.4492,-4.4199,0.0,0.0,0.0,0.0,0.0,0.0,0.0,0.0,0.0,0.0,0.0,0.0,0.0,0.0,0.0,0.0,0.0,0.0,0.0,0.0,-5.1675,-5.1989,-5.1691,-5.2602,-5.3246,-5.3484,-5.3416,-5.3247,-5.2903,-5.2764,-5.2289,-5.1479,-5.1777,-5.1777,-5.1479,-5.1382,-5.1481,-5.1713,-5.0582,-4.9887,-4.9491,-4.8728,-4.8497,-4.8497,-4.8497,-4.8166,-4.7803,-4.7836,-4.7869,-4.7836,-4.7571,-4.7504,-4.7436,-4.703,-4.6892,-4.6892,-4.6892,-4.6892,-4.6892,-4.6892,-4.6471,-4.5793,-4.4724,-4.3944,-4.336,-4.3103,-4.3395,-4.3719,-4.3815,-4.3911,-4.3974,-4.3879,-4.3637,-4.3358,-4.3143,-4.3325,-4.3539,-4.3598,-4.3568,-4.3539,-4.3598,-4.3598,-4.3598,-4.3598,-4.3479,-4.3295,-4.3113,-4.2958,-4.2741,-4.2396,-4.2206,-4.2045,-4.1916,-4.172,-4.1588,-4.1588,-4.1588,-4.1719,-4.1914,-4.1914,-4.2077,-4.2397,-4.2397,-4.246,-4.5539,-4.5035,0.0,0.0,0.0,0.0,-4.4698,-4.4533,-4.4218,0.0,0.0,0.0,0.0,0.0,0.0,0.0,0.0,0.0,0.0,0.0,0.0,0.0,0.0,0.0,0.0,0.0,-5.0853,-5.1315,-5.1364,-5.1647,-5.2266,-5.23,-5.2705,-5.3484,-5.3416,-5.3179,-5.2769,-5.2735,-5.1859,-5.022,-5.085,-5.0817,-5.022,-5.0883,-5.1512,-5.2007,-5.0443,-4.9849,-4.9886,-4.8196,-4.7604,-4.7704,-4.7902,-4.777,-4.7571,-4.7836,-4.7869,-4.7671,-4.7537,-4.747,-4.7403,-4.703,-4.6828,-4.6763,-4.6894,-4.6828,-4.6763,-4.6763,-4.5825,-4.4691,-4.4106,-4.3295,-4.2812,-4.3524,-4.3783,-4.3848,-4.3975,-4.4039,-4.4008,-4.3686,-4.351,-4.3325,-4.3113,-4.3265,-4.3479,-4.3568,-4.3479,-4.3449,-4.3598,-4.3598,-4.3568,-4.3568,-4.3265,-4.3082,-4.299,-4.271,-4.2396,-4.2077,-4.2045,-4.1916,-4.1621,-4.1588,-4.1588,-4.1588,-4.1621,-4.1752,-4.1947,-4.1947,-4.2109,-4.2397,-4.2397,-4.246,0.0,0.0,0.0,0.0,0.0,0.0,-4.5579,-4.4454,-4.3841,0.0,0.0,0.0,0.0,0.0,0.0,0.0,0.0,0.0,0.0,0.0,0.0,0.0,0.0,0.0,0.0,0.0,-4.9683,-4.909,-5.0001,-5.1104,-5.2232,-5.2465,-5.2838,-5.3484,-5.3348,-5.2842,-5.1999,-5.1758,-5.1118,-5.022,-5.0353,-5.0353,-5.0186,-5.0147,-5.0278,-5.0309,-4.9247,-4.8784,-4.8752,-4.7966,-4.7671,-4.7671,-4.7637,-4.7637,-4.7638,-4.7604,-4.7637,-4.7671,-4.7336,-4.7267,-4.7201,-4.6996,-4.6504,-4.6115,-4.6698,-4.6471,-4.6018,-4.6018,-4.5503,-4.4789,-4.3945,-4.3295,-4.3001,-4.3589,-4.414,-4.4496,-4.4073,-4.443,-4.4495,-4.3415,-4.3303,-4.3328,-4.2992,-4.3298,-4.3539,-4.3449,-4.3419,-4.3449,-4.3598,-4.3509,-4.3388,-4.3204,-4.3143,-4.2898,-4.2333,-4.2238,-4.2045,-4.172,-4.1687,-4.1687,-4.1588,-4.1588,-4.1588,-4.1588,-4.1752,-4.1915,-4.2045,-4.2206,-4.2366,-4.2397,-4.2397,-4.246,0.0,0.0,0.0,-4.614,0.0,0.0,0.0,-4.4901,-4.4266,0.0,0.0,0.0,0.0,0.0,0.0,0.0,0.0,0.0,0.0,0.0,0.0,0.0,0.0,0.0,0.0,0.0,-4.8494,-4.8407,-4.9436,-5.0407,-5.1278,-5.1539,-5.1815,-5.2268,-5.2135,-5.1732,-5.1094,-5.0855,-5.0386,-4.9657,-4.9657,-4.9589,-4.9521,-4.9386,-4.9549,-4.9811,-4.8846,-4.8553,-4.8725,-4.7698,-4.7471,-4.7704,-4.7637,-4.7471,-4.7336,-4.747,-4.747,-4.7404,-4.7235,-4.7201,-4.7167,-4.6961,-4.6633,-4.6407,-4.6763,-4.6374,-4.5726,-4.547,-4.4886,-4.4204,-4.349,-4.3295,-4.349,-4.4204,-4.4659,-4.4854,-4.4753,-4.4719,-4.4423,-4.3465,-4.3388,-4.3419,-4.3207,-4.3358,-4.3509,-4.3509,-4.3388,-4.3295,-4.3479,-4.3355,-4.3174,-4.3021,-4.2836,-4.2586,-4.2142,-4.1948,-4.1785,-4.1621,-4.1588,-4.1588,-4.1588,-4.1588,-4.1654,-4.1752,-4.1915,-4.2013,-4.2109,-4.2365,-4.2492,-4.2492,-4.2492,-4.2556,0.0,0.0,0.0,0.0,0.0,-4.62,0.0,0.0,0.0,0.0,0.0,0.0,0.0,0.0,0.0,0.0,0.0,0.0,0.0,0.0,0.0,0.0,0.0,0.0,0.0,0.0,-4.7158,-4.8191,-4.8924,-4.9555,-5.0175,-5.0407,-5.0694,-5.099,-5.0891,-5.0659,-5.0192,-5.0056,-4.9624,-4.8895,-4.8895,-4.8795,-4.8627,-4.8594,-4.8889,-4.9381,-4.8515,-4.8354,-4.8595,-4.7463,-4.7235,-4.7538,-4.7605,-4.737,-4.7064,-4.7335,-4.7335,-4.7167,-4.697,-4.7035,-4.7098,-4.6799,-4.6797,-4.6929,-4.6765,-4.6311,-4.5729,-4.5114,-4.4334,-4.3589,-4.3033,-4.3295,-4.3913,-4.4854,-4.5049,-4.5082,-4.5403,-4.4907,-4.4214,-4.3581,-4.3539,-4.3539,-4.3355,-4.3355,-4.3449,-4.3509,-4.3235,-4.3113,-4.3298,-4.3113,-4.2929,-4.2775,-4.2492,-4.2238,-4.2013,-4.1753,-4.1588,-4.1588,-4.1621,-4.1621,-4.1588,-4.1621,-4.1752,-4.1915,-4.2077,-4.2142,-4.2142,-4.246,-4.2586,-4.2555,-4.2586,-4.2586,0.0,0.0,0.0,0.0,-4.7758,0.0,0.0,0.0,0.0,0.0,0.0,0.0,0.0,0.0,0.0,0.0,0.0,0.0,0.0,0.0,0.0,0.0,0.0,0.0,0.0,0.0,0.0,-4.761,-4.7817,-4.8329,-4.9445,-5.0104,-5.06,-5.099,-5.0826,-5.0325,-4.9526,-4.9327,-4.8862,-4.8133,-4.8133,-4.81,-4.81,-4.7902,-4.7835,-4.78,-4.7634,-4.7399,-4.7162,-4.7368,-4.7267,-4.703,-4.7167,-4.7335,-4.7403,-4.7301,-4.7201,-4.7069,-4.6249,-4.6376,-4.6797,-4.6115,-4.651,-4.7035,-4.6183,-4.5989,-4.5862,-4.5048,-4.4269,-4.3589,-4.3033,-4.3295,-4.3913,-4.4821,-4.5017,-4.5049,-4.5276,-4.4846,-4.4245,-4.3671,-4.3598,-4.3509,-4.3204,-4.3265,-4.3325,-4.3174,-4.3021,-4.293,-4.2961,-4.2806,-4.2523,-4.2206,-4.2142,-4.2013,-4.1687,-4.1621,-4.1588,-4.1588,-4.1784,-4.1784,-4.1621,-4.1784,-4.1915,-4.2077,-4.227,-4.2397,-4.2365,-4.2523,-4.2523,-4.2429,-4.2523,-4.2586,0.0,0.0,0.0,0.0,0.0,0.0,0.0,0.0,-4.5501,0.0,0.0,0.0,0.0,0.0,0.0,0.0,0.0,0.0,0.0,0.0,0.0,0.0,0.0,0.0,0.0,0.0,0.0,0.0,0.0,-4.7375,-4.8104,-4.8801,-4.9308,-4.9516,-4.9486,-4.9124,-4.8596,-4.8498,-4.8299,-4.8001,-4.8001,-4.7935,-4.7803,-4.7671,-4.7571,-4.747,-4.7267,-4.7199,-4.7235,-4.7167,-4.7167,-4.7233,-4.7064,-4.7064,-4.7132,-4.7064,-4.677,-4.6314,-4.5955,-4.5986,-4.6277,-4.6407,-4.6702,-4.6931,-4.657,-4.5923,-4.5275,-4.4918,-4.3978,-4.3103,-4.3296,-4.388,-4.4561,-4.544,-4.5408,-4.5211,-4.5371,-4.464,-4.3872,-4.3664,-4.3416,-4.3265,-4.3113,-4.3325,-4.3388,-4.3054,-4.293,-4.2806,-4.246,-4.2365,-4.2206,-4.2012,-4.198,-4.1882,-4.1621,-4.1588,-4.1588,-4.1588,-4.1784,-4.1881,-4.1784,-4.1947,-4.2013,-4.2109,-4.2302,-4.2397,-4.2397,-4.2523,-4.2523,-4.2397,-4.2523,-4.2586,-5.1133,0.0,0.0,0.0,0.0,0.0,0.0,0.0,0.0,0.0,0.0,0.0,0.0,0.0,0.0,0.0,0.0,0.0,0.0,0.0,0.0,0.0,0.0,0.0,0.0,0.0,0.0,0.0,0.0,0.0,-4.6679,-4.7227,-4.7755,-4.8243,-4.8119,-4.8028,-4.8001,-4.8001,-4.8001,-4.8001,-4.8001,-4.7935,-4.777,-4.7637,-4.7537,-4.747,-4.7167,-4.7167,-4.7335,-4.7064,-4.7098,-4.7301,-4.6996,-4.6892,-4.6892,-4.6892,-4.6407,-4.5759,-4.5597,-4.5532,-4.5629,-4.6342,-4.6765,-4.6929,-4.6668,-4.5793,-4.4821,-4.4593,-4.3589,-4.2747,-4.333,-4.3978,-4.4691,-4.5603,-4.5408,-4.5078,-4.537,-4.4471,-4.3568,-4.3479,-4.3265,-4.3082,-4.299,-4.3143,-4.3176,-4.2806,-4.2713,-4.2556,-4.2077,-4.2077,-4.198,-4.1817,-4.1817,-4.1752,-4.1621,-4.1654,-4.172,-4.1818,-4.1882,-4.1979,-4.2077,-4.2109,-4.2142,-4.2238,-4.2365,-4.2429,-4.2461,-4.2523,-4.262,-4.2751,-4.2652,-4.2586,0.0,0.0,0.0,-5.0468,0.0,0.0,0.0,0.0,-4.568,0.0,0.0,0.0,0.0,0.0,0.0,0.0,0.0,0.0,0.0,0.0,0.0,0.0,0.0,0.0,0.0,0.0,0.0,0.0,0.0,0.0,-4.5397,-4.5608,-4.6292,-4.7594,-4.7162,-4.7272,-4.8001,-4.8001,-4.8001,-4.8001,-4.8001,-4.8001,-4.7968,-4.777,-4.7605,-4.7504,-4.747,-4.7267,-4.6927,-4.7098,-4.7064,-4.6927,-4.6927,-4.6892,-4.6892,-4.6892,-4.6407,-4.5726,-4.5046,-4.482,-4.4949,-4.5629,-4.6445,-4.7002,-4.6118,-4.5503,-4.4887,-4.3978,-4.3169,-4.265,-4.287,-4.3327,-4.3945,-4.4854,-4.4624,-4.4423,-4.5145,-4.4412,-4.3509,-4.3174,-4.3113,-4.3021,-4.2679,-4.2523,-4.2429,-4.2397,-4.2238,-4.2045,-4.1947,-4.1914,-4.1817,-4.1621,-4.1621,-4.1621,-4.1588,-4.1784,-4.2012,-4.2333,-4.2077,-4.2109,-4.2555,-4.227,-4.2238,-4.2555,-4.2586,-4.2586,-4.2586,-4.2586,-4.2942,-4.3622,-4.291,-4.2586,0.0,0.0,-5.2438,-5.112,0.0,0.0,0.0,0.0,0.0,0.0,0.0,0.0,0.0,0.0,0.0,0.0,0.0,0.0,0.0,0.0,0.0,0.0,0.0,0.0,0.0,0.0,0.0,0.0,0.0,0.0,0.0,-4.4626,-4.5654,-4.6854,-4.6989,-4.7303,-4.7803,-4.7704,-4.7704,-4.777,-4.7704,-4.7704,-4.777,-4.7504,-4.7336,-4.7301,-4.7167,-4.703,-4.6927,-4.6961,-4.6961,-4.6892,-4.6892,-4.6892,-4.6828,-4.6342,-4.5726,-4.5046,-4.4334,-4.4075,-4.4269,-4.5435,-4.6019,-4.6314,-4.6473,-4.6086,-4.5372,-4.4658,-4.3913,-4.333,-4.3426,-4.3556,-4.3881,-4.4659,-4.4463,-4.4166,-4.449,-4.3834,-4.3146,-4.3113,-4.2743,-4.2397,-4.2302,-4.2045,-4.1916,-4.2045,-4.2109,-4.1948,-4.1555,-4.162,-4.1654,-4.1621,-4.1588,-4.1588,-4.1588,-4.1654,-4.1883,-4.2365,-4.2077,-4.2045,-4.2429,-4.2333,-4.2333,-4.2492,-4.2523,-4.2586,-4.2586,-4.3072,-4.346,-4.3719,-4.3945,-4.388,-5.3434,-5.3415,0.0,-5.1497,-5.0821,0.0,-4.8765,0.0,0.0,0.0,0.0,0.0,0.0,0.0,0.0,0.0,0.0,0.0,0.0,-3.9083,0.0,0.0,0.0,0.0,0.0,0.0,0.0,-3.9338,-4.0269,0.0,0.0,0.0,-4.4584,-4.5736,-4.6085,-4.6608,-4.7309,-4.7177,-4.7275,-4.7605,-4.7537,-4.7537,-4.7637,-4.7302,-4.7201,-4.7167,-4.6996,-4.6892,-4.6892,-4.6892,-4.6892,-4.6892,-4.6892,-4.6892,-4.6795,-4.6083,-4.5208,-4.4302,-4.3525,-4.3396,-4.3784,-4.4722,-4.5369,-4.5756,-4.5759,-4.5791,-4.5597,-4.4658,-4.4075,-4.3719,-4.3719,-4.3524,-4.346,-4.4237,-4.4009,-4.3681,-4.3972,-4.3419,-4.2868,-4.2774,-4.2397,-4.2077,-4.1948,-4.1753,-4.1621,-4.1784,-4.1882,-4.1785,-4.1456,-4.1522,-4.1588,-4.1588,-4.1588,-4.1621,-4.1719,-4.1753,-4.1916,-4.227,-4.2045,-4.2045,-4.2397,-4.2333,-4.2333,-4.2492,-4.2587,-4.2716,-4.2975,-4.3492,-4.3978,-4.4464,-4.4917,-4.5016]},{"header":{"parameterUnit":"m.s-1","parameterCategory":1,"la1":30.6,"la2":29.2853,"lo1":-89.7004,"lo2":-87.6739,"dy":0.0162,"dx":0.0183,"nx":112,"ny":82,"refTime":"2024-05-06T12:00:00:Z","depth":0,"parameterNumber":3,"parameterNumberName":"V-component_of_WINDS"},"data":[0.0,0.0,0.0,0.0,0.0,0.0,0.0,0.0,0.0,0.0,0.0,0.0,0.0,0.0,0.0,0.0,0.0,0.0,0.0,0.0,0.0,0.0,0.0,0.0,0.0,0.0,0.0,0.0,0.0,0.0,0.0,0.0,0.0,0.0,0.0,0.0,0.0,0.0,0.0,0.0,0.0,0.0,0.0,0.0,0.0,0.0,0.0,0.0,0.0,0.0,0.0,0.0,0.0,0.0,0.0,0.0,0.0,0.0,0.0,0.0,0.0,0.0,0.0,0.0,0.0,0.0,0.0,0.0,0.0,0.0,0.0,0.0,0.0,0.0,0.0,0.0,0.0,0.0,0.0,0.0,0.0,0.0,0.0,0.0,0.0,0.0,0.0,0.0,0.0,0.0,0.0,1.3162,1.388,1.4248,1.4087,1.4392,1.4114,1.2868,0.0,0.0,0.0,0.0,0.0,0.0,0.0,0.0,0.0,0.0,0.0,0.0,0.0,0.0,0.0,0.0,0.0,0.0,0.0,0.0,0.0,0.0,0.0,0.0,0.0,0.0,0.0,0.0,0.0,0.0,0.0,0.0,0.0,0.0,0.0,0.0,0.0,0.0,0.0,0.0,0.0,0.0,0.0,0.0,0.0,0.0,0.0,0.0,0.0,0.0,0.0,0.0,0.0,0.0,0.0,0.0,0.0,0.0,0.0,0.0,0.0,0.0,0.0,0.0,0.0,0.0,0.0,0.0,0.0,0.0,0.0,0.0,0.0,0.0,0.0,0.0,0.0,0.0,0.0,0.0,0.0,0.0,0.0,0.0,0.0,0.0,0.0,0.0,0.0,0.0,0.0,0.0,0.0,0.0,0.0,0.0,0.0,0.0,0.0,0.0,0.0,0.0,0.0,0.0,1.3929,1.4838,1.4683,1.4721,1.5226,1.4974,1.4317,1.3174,0.0,0.0,0.0,0.0,0.0,0.0,0.0,0.0,0.0,0.0,0.0,0.0,0.0,0.0,0.0,0.0,0.0,0.0,0.0,0.0,0.0,0.0,0.0,0.0,0.0,0.0,0.0,0.0,0.0,0.0,0.0,0.0,0.0,0.0,0.0,0.0,0.0,0.0,0.0,0.0,0.0,0.0,0.0,0.0,0.0,0.0,0.0,0.0,0.0,0.0,0.0,0.0,0.0,0.0,0.0,0.0,0.0,0.0,0.0,0.0,0.0,0.0,0.0,0.0,0.0,0.0,0.0,0.0,0.0,0.0,0.0,0.0,0.0,0.0,0.0,0.0,0.0,0.0,0.0,0.0,0.0,0.0,0.0,0.0,0.0,0.0,0.0,0.0,0.0,0.0,0.0,0.0,0.0,0.0,0.0,0.0,0.0,0.0,0.0,0.0,0.0,0.0,0.0,1.3487,1.4351,1.5586,1.5371,1.5339,1.5883,1.5577,1.4922,1.3857,1.2525,0.0,0.0,0.0,0.0,0.0,0.0,0.0,0.0,0.0,0.0,0.0,0.0,0.0,0.0,0.0,0.0,0.0,0.0,0.0,0.0,0.0,0.0,0.0,0.0,0.0,0.0,0.0,0.0,0.0,0.0,0.0,0.0,0.0,0.0,0.0,0.0,0.0,0.0,0.0,0.0,0.0,0.0,0.0,0.0,0.0,0.0,0.0,0.0,0.0,0.0,0.0,0.0,0.0,0.0,0.0,0.0,0.0,0.0,0.0,0.0,0.0,0.0,0.0,0.0,0.0,0.0,0.0,0.0,0.0,0.0,0.0,0.0,0.0,0.0,0.0,0.0,0.0,0.0,0.0,0.0,0.0,0.0,0.0,0.0,0.0,0.0,0.0,0.0,0.0,0.0,0.0,0.0,0.0,0.0,0.0,0.0,0.0,0.0,0.0,0.0,0.0,0.0,1.4321,1.489,1.6053,1.5859,1.5873,1.6364,1.5905,1.5247,1.4334,1.2798,0.0,0.0,0.0,0.0,0.0,0.0,0.0,0.0,0.0,0.0,0.0,0.0,0.0,0.0,0.0,0.0,0.0,0.0,0.0,0.0,0.0,0.0,0.0,0.0,0.0,0.0,0.0,0.0,0.0,0.0,0.0,0.0,0.0,0.0,0.0,0.0,0.0,0.0,0.0,0.0,0.0,0.0,0.0,0.0,0.0,0.0,0.0,0.0,0.0,0.0,0.0,0.0,0.0,0.0,0.0,0.0,0.0,0.0,0.0,0.0,0.0,0.0,0.0,0.0,0.0,0.0,0.0,0.0,0.0,0.0,0.0,0.0,0.0,0.0,0.0,0.0,0.0,0.0,0.0,0.0,0.0,0.0,0.0,0.0,0.0,0.0,0.0,0.0,0.0,0.0,0.0,0.0,0.0,0.0,0.0,0.0,0.0,0.0,0.0,0.0,0.0,0.0,1.5226,1.6043,1.6408,1.6353,1.643,1.6838,1.5761,1.477,1.4147,1.2572,0.0,0.0,0.0,0.0,0.0,0.0,0.0,0.0,0.0,0.0,0.0,0.0,0.0,0.0,0.0,0.0,0.0,0.0,0.0,0.0,0.0,0.0,0.0,0.0,0.0,0.0,0.0,0.0,0.0,0.0,0.0,0.0,0.0,0.0,0.0,0.0,0.0,0.0,0.0,0.0,0.0,0.0,0.0,0.0,0.0,0.0,0.0,0.0,0.0,0.0,0.0,0.0,0.0,0.0,0.0,0.0,0.0,0.0,0.0,0.0,0.0,0.0,0.0,0.0,0.0,0.0,0.0,0.0,0.0,0.0,0.0,0.0,0.0,0.0,0.0,0.0,0.0,0.0,0.0,0.0,0.0,0.0,0.0,0.0,0.0,0.0,0.0,0.0,0.0,0.0,0.0,0.0,0.0,0.0,0.0,0.0,0.0,0.0,0.0,0.0,0.0,0.0,1.5458,1.6265,0.0,1.6707,1.6626,1.7158,1.6572,1.5615,1.4422,0.0,0.0,0.0,0.0,0.0,0.0,0.0,0.0,0.0,0.0,0.0,0.0,0.0,0.0,0.0,0.0,0.0,0.0,0.0,0.0,0.0,0.0,0.0,0.0,0.0,0.0,0.0,0.0,0.0,0.0,0.0,0.0,0.0,0.0,0.0,0.0,0.0,0.0,0.0,0.0,0.0,0.0,0.0,0.0,0.0,0.0,0.0,0.0,0.0,0.0,0.0,0.0,0.0,0.0,0.0,0.0,0.0,0.0,0.0,0.0,0.0,0.0,0.0,0.0,0.0,0.0,0.0,0.0,0.0,0.0,0.0,0.0,0.0,0.0,0.0,0.0,0.0,0.0,0.0,0.0,0.0,0.0,0.0,0.0,0.0,0.0,0.0,0.0,0.0,0.0,0.0,0.0,0.0,0.0,0.0,0.0,0.0,0.0,0.0,0.0,0.0,0.0,1.5062,1.5889,1.6707,0.0,1.7261,1.713,1.7697,1.7166,1.6194,1.4774,0.0,0.0,0.0,0.0,0.0,0.0,0.0,0.0,0.0,0.0,0.0,0.0,0.0,0.0,0.0,0.0,0.0,0.0,0.0,0.0,0.0,0.0,0.0,0.0,0.0,0.0,0.0,0.0,0.0,0.0,0.0,0.0,0.0,0.0,0.0,0.0,0.0,0.0,0.0,0.0,0.0,0.0,0.0,0.0,0.0,0.0,0.0,0.0,0.0,0.0,0.0,0.0,0.0,0.0,0.0,0.0,0.0,0.0,0.0,0.0,0.0,0.0,0.0,0.0,0.0,0.0,0.0,0.0,0.0,0.0,0.0,0.0,0.0,0.0,0.0,0.0,0.0,0.0,0.0,0.0,0.0,0.0,0.0,0.0,0.0,0.0,0.0,0.0,0.0,0.0,0.0,0.0,0.0,0.0,0.0,0.0,0.0,0.0,0.0,0.0,0.0,0.0,1.5579,1.6647,1.7631,1.8356,1.8093,1.8027,1.8356,1.7483,1.6397,0.0,0.0,0.0,0.0,0.0,0.0,0.0,0.0,0.0,0.0,0.0,0.0,0.0,0.0,0.0,0.0,0.0,0.0,0.0,0.0,0.0,0.0,0.0,0.0,0.0,0.0,0.0,0.0,0.0,0.0,0.0,0.0,0.0,0.0,0.0,0.0,0.0,0.0,0.0,0.0,0.0,0.0,0.0,0.0,0.0,0.0,0.0,0.0,0.0,0.0,0.0,0.0,0.0,0.0,0.0,0.0,0.0,0.0,0.0,0.0,0.0,0.0,0.0,0.0,0.0,0.0,0.0,0.0,0.0,0.0,0.0,0.0,0.0,0.0,0.0,0.0,0.0,0.0,0.0,0.0,0.0,0.0,0.0,0.0,0.0,0.0,0.0,0.0,0.0,0.0,0.0,0.0,0.0,0.0,0.0,0.0,0.0,0.0,0.0,0.0,0.0,0.0,0.0,1.6403,1.7348,1.8093,1.8471,1.8373,1.8211,1.8106,1.8081,1.7653,1.6553,0.0,0.0,0.0,0.0,0.0,0.0,0.0,0.0,0.0,0.0,0.0,0.0,0.0,0.0,0.0,0.0,0.0,0.0,0.0,0.0,0.0,0.0,0.0,0.0,0.0,0.0,0.0,0.0,0.0,0.0,0.0,0.0,0.0,0.0,0.0,0.0,0.0,0.0,0.0,0.0,0.0,0.0,0.0,0.0,0.0,0.0,0.0,0.0,0.0,0.0,0.0,0.0,0.0,0.0,0.0,0.0,0.0,0.0,0.0,0.0,0.0,0.0,0.0,0.0,0.0,0.0,0.0,0.0,0.0,0.0,0.0,0.0,0.0,0.0,0.0,0.0,0.0,0.0,0.0,0.0,0.0,0.0,0.0,0.0,0.0,0.0,0.0,0.0,0.0,0.0,0.0,0.0,0.0,0.0,0.0,0.0,0.0,0.0,0.0,0.0,0.0,0.0,1.682,1.7599,1.8354,1.8882,1.8788,1.8615,1.8582,1.8918,1.8656,1.753,0.0,0.0,0.0,0.0,0.0,0.0,0.0,0.0,0.0,0.0,0.0,0.0,0.0,0.0,0.0,0.0,0.0,0.0,0.0,0.0,0.0,0.0,0.0,0.0,0.0,0.0,0.0,0.0,0.0,0.0,0.0,0.0,0.0,0.0,0.0,0.0,0.0,0.0,0.0,0.0,0.0,0.0,0.0,0.0,0.0,0.0,0.0,0.0,0.0,0.0,0.0,0.0,0.0,0.0,0.0,0.0,0.0,0.0,0.0,0.0,0.0,0.0,0.0,0.0,0.0,0.0,0.0,0.0,0.0,0.0,0.0,0.0,0.0,0.0,0.0,0.0,0.0,0.0,0.0,0.0,0.0,0.0,0.0,0.0,0.0,0.0,0.0,0.0,0.0,0.0,0.0,0.0,0.0,0.0,0.0,0.0,0.0,0.0,0.0,0.0,0.0,0.0,1.6926,1.7662,1.8524,1.9499,1.9364,1.931,1.9638,1.9911,1.9532,1.83,0.0,0.0,0.0,0.0,0.0,0.0,0.0,0.0,0.0,0.0,0.0,0.0,0.0,0.0,0.0,0.0,0.0,0.0,0.0,0.0,0.0,0.0,0.0,0.0,0.0,0.0,0.0,0.0,0.0,0.0,0.0,0.0,0.0,0.0,0.0,0.0,0.0,0.0,0.0,0.0,0.0,0.0,0.0,0.0,0.0,0.0,0.0,0.0,0.0,0.0,0.0,0.0,0.0,0.0,0.0,0.0,0.0,0.0,0.0,0.0,1.759,0.0,0.0,0.0,0.0,0.0,0.0,0.0,0.0,0.0,0.0,0.0,0.0,0.0,0.0,0.0,0.0,0.0,0.0,0.0,0.0,0.0,0.0,0.0,0.0,0.0,0.0,0.0,0.0,0.0,0.0,0.0,0.0,0.0,0.0,0.0,0.0,0.0,0.0,0.0,0.0,0.0,1.7529,1.8545,1.949,2.0228,2.0388,2.0513,2.0646,2.0712,2.0486,2.0066,1.8586,0.0,0.0,0.0,0.0,0.0,0.0,0.0,0.0,0.0,0.0,0.0,0.0,0.0,0.0,0.0,0.0,0.0,0.0,0.0,0.0,0.0,0.0,0.0,0.0,0.0,0.0,0.0,0.0,0.0,0.0,0.0,0.0,0.0,0.0,0.0,0.0,0.0,0.0,0.0,0.0,0.0,0.0,0.0,0.0,0.0,0.0,0.0,0.0,0.0,0.0,0.0,0.0,0.0,0.0,0.0,0.0,0.0,0.0,0.0,0.0,1.8944,0.0,0.0,0.0,0.0,0.0,0.0,0.0,0.0,0.0,0.0,0.0,0.0,0.0,0.0,0.0,0.0,0.0,0.0,0.0,0.0,0.0,0.0,0.0,0.0,0.0,0.0,0.0,0.0,0.0,0.0,0.0,0.0,0.0,0.0,0.0,0.0,0.0,0.0,0.0,0.0,1.7951,1.9181,2.0255,2.0882,2.1047,2.1136,2.1203,2.1142,2.1005,2.0837,1.9736,0.0,0.0,0.0,0.0,0.0,0.0,0.0,0.0,0.0,0.0,0.0,0.0,0.0,0.0,0.0,0.0,0.0,0.0,0.0,0.0,0.0,0.0,0.0,0.0,0.0,0.0,0.0,0.0,0.0,0.0,0.0,0.0,0.0,0.0,0.0,0.0,0.0,0.0,0.0,0.0,0.0,0.0,0.0,0.0,0.0,0.0,0.0,0.0,0.0,0.0,0.0,0.0,0.0,2.4483,2.43,2.3994,2.3994,2.387,2.3571,2.177,2.0971,2.0883,0.0,0.0,0.0,0.0,0.0,0.0,0.0,0.0,0.0,0.0,0.0,0.0,0.0,0.0,0.0,0.0,0.0,0.0,0.0,0.0,0.0,0.0,0.0,0.0,0.0,2.177,2.1683,0.0,0.0,0.0,0.0,0.0,0.0,0.0,0.0,0.0,0.0,0.0,0.0,1.845,1.9747,2.0861,2.1491,2.1504,2.1504,2.1555,2.1514,2.1346,2.111,2.0846,2.03,0.0,0.0,0.0,0.0,0.0,0.0,0.0,0.0,0.0,0.0,0.0,0.0,0.0,0.0,0.0,0.0,0.0,0.0,0.0,0.0,0.0,0.0,0.0,0.0,0.0,0.0,0.0,0.0,0.0,0.0,0.0,0.0,2.5216,2.5267,0.0,0.0,0.0,0.0,0.0,0.0,0.0,0.0,0.0,0.0,0.0,0.0,0.0,2.6416,2.6514,2.6119,2.5898,2.5929,2.5929,2.5754,2.5387,2.5387,2.493,2.4022,2.3745,0.0,2.3083,2.1907,0.0,0.0,0.0,0.0,0.0,0.0,0.0,0.0,0.0,0.0,0.0,0.0,0.0,0.0,0.0,0.0,0.0,0.0,0.0,0.0,0.0,0.0,2.2379,2.2351,2.2419,2.2526,0.0,2.1215,1.982,1.94,1.9001,0.0,0.0,0.0,0.0,0.0,0.0,0.0,1.9359,2.0374,2.1254,2.215,2.2058,2.2018,2.2257,2.1858,2.1525,2.1485,2.1032,2.061,2.0468,2.027,0.0,0.0,0.0,0.0,0.0,0.0,0.0,0.0,0.0,0.0,0.0,0.0,0.0,0.0,0.0,0.0,0.0,0.0,0.0,0.0,0.0,0.0,0.0,0.0,0.0,0.0,0.0,0.0,0.0,2.6024,2.6368,2.568,2.6702,2.6863,0.0,0.0,0.0,0.0,0.0,0.0,0.0,0.0,0.0,2.7362,2.7081,2.6902,2.6971,2.7035,2.7001,2.7001,2.6871,2.6579,2.6259,2.6064,2.5711,2.5218,2.4626,2.452,2.4583,2.3289,2.2573,2.2148,0.0,0.0,0.0,0.0,2.0515,2.0818,2.1852,2.2214,0.0,0.0,0.0,0.0,0.0,0.0,0.0,0.0,0.0,0.0,0.0,0.0,0.0,2.3332,2.3376,2.3405,2.3389,2.2566,2.1756,0.0,2.1017,2.0438,1.925,0.0,0.0,0.0,0.0,0.0,2.0105,2.1163,2.2005,2.2619,2.2552,2.2458,2.2418,2.2229,2.2049,2.1886,2.1465,2.1254,2.1254,2.0757,1.9976,0.0,0.0,0.0,0.0,0.0,0.0,0.0,0.0,0.0,0.0,0.0,0.0,0.0,0.0,0.0,0.0,0.0,0.0,0.0,0.0,0.0,0.0,0.0,0.0,0.0,0.0,0.0,0.0,2.6898,2.7054,2.6342,2.7323,2.7478,0.0,0.0,0.0,0.0,0.0,0.0,2.8064,2.7353,2.7253,2.7956,2.7654,2.7522,2.7619,2.7745,2.7807,2.7807,2.7605,2.7328,2.7073,2.6808,2.6612,2.632,2.5611,2.5484,2.5636,2.44,2.3665,2.3267,2.3072,2.2465,2.1807,2.2574,2.2917,2.3177,2.4367,2.4587,2.43,2.3694,0.0,2.2096,2.1685,0.0,0.0,0.0,0.0,2.2931,2.3051,2.3551,2.4009,2.4008,2.4219,2.4322,2.4047,2.3853,2.3581,0.0,2.2453,2.1989,2.1078,0.0,0.0,0.0,0.0,2.0631,2.0941,2.1925,2.2687,2.2984,2.3025,2.2903,2.2592,2.2558,2.2401,2.2098,2.1911,2.179,2.179,2.1247,2.0572,1.9759,0.0,0.0,0.0,0.0,0.0,0.0,0.0,0.0,0.0,0.0,0.0,0.0,0.0,0.0,0.0,0.0,0.0,0.0,0.0,0.0,0.0,0.0,0.0,0.0,0.0,0.0,0.0,0.0,0.0,2.7952,2.755,0.0,0.0,0.0,0.0,2.8062,2.8363,2.849,2.8233,2.8113,2.8262,2.8641,2.8321,2.8364,2.8721,2.8377,2.817,2.817,2.817,2.8154,2.8138,2.8069,2.7757,2.7134,2.7102,2.6728,2.6069,2.4975,2.474,2.4994,2.5054,2.4982,2.5034,2.5658,2.5905,2.5997,2.6709,2.6722,2.6244,2.4951,2.3488,2.2214,2.2483,2.2378,0.0,0.0,2.3291,2.3642,2.3944,2.4501,2.4879,2.4237,2.4636,2.5147,2.5061,2.5311,2.4966,0.0,2.263,2.2248,2.1343,0.0,2.1368,2.069,2.0902,2.1382,2.192,2.26,2.3102,2.3409,2.3451,2.3325,2.3018,2.2711,2.2468,2.2083,2.212,2.2105,2.2105,2.1815,2.1642,2.1598,2.0913,0.0,0.0,0.0,0.0,0.0,0.0,0.0,0.0,0.0,0.0,0.0,0.0,0.0,0.0,0.0,0.0,0.0,0.0,0.0,0.0,0.0,0.0,0.0,0.0,0.0,0.0,0.0,0.0,2.8173,2.8523,0.0,2.7522,2.841,2.8706,2.7917,2.8427,2.8707,2.8556,2.8332,2.8393,2.8744,2.8611,2.8665,2.8793,2.8876,2.8916,2.8916,2.8916,2.8789,2.8567,2.8567,2.8307,2.7836,2.7645,2.7376,2.7168,2.6716,2.6304,2.5798,2.581,2.5708,2.5543,2.6216,2.6469,2.6643,2.7515,2.7565,2.7114,2.5973,2.4906,2.4085,2.3713,2.3488,2.349,2.3658,2.3841,2.4086,2.4843,2.4905,2.4842,2.5043,2.5296,2.547,2.5408,2.5596,2.5514,2.4764,2.4204,2.3708,2.3168,2.2991,2.2749,2.2307,2.2644,2.2981,2.3008,2.32,2.3448,2.3756,2.3616,2.3364,2.3056,2.3125,2.2886,2.2162,2.2313,2.2265,2.1859,2.1759,2.1438,2.0844,1.9986,1.907,0.0,0.0,0.0,0.0,0.0,0.0,0.0,0.0,0.0,0.0,0.0,0.0,0.0,0.0,0.0,0.0,0.0,0.0,0.0,0.0,0.0,0.0,0.0,0.0,0.0,0.0,2.8204,2.8362,2.8892,2.8905,2.8104,2.8649,2.8853,2.8257,2.8854,2.9188,2.9188,2.9024,2.9002,2.9158,2.9174,2.909,2.8948,2.9171,2.9298,2.9298,2.9298,2.9171,2.8948,2.8948,2.8805,2.8583,2.8318,2.8248,2.8248,2.8248,2.7764,2.7081,2.678,2.6563,2.6397,2.6889,2.702,2.7149,2.8067,2.8111,2.761,2.689,2.6008,2.5074,2.4459,2.4215,2.4096,2.4221,2.4422,2.4779,2.5437,2.5516,2.5517,2.5579,2.5881,2.6072,2.5818,2.6005,2.6192,2.6062,2.5236,2.4565,2.4317,2.401,2.3656,2.349,2.3695,2.3774,2.3577,2.3511,2.3596,2.3861,2.3804,2.3539,2.3227,2.3228,2.2921,2.219,2.2317,2.2207,2.1699,2.151,2.1075,2.0486,1.969,1.8794,1.7742,0.0,0.0,0.0,0.0,0.0,0.0,0.0,0.0,0.0,0.0,0.0,0.0,0.0,0.0,0.0,0.0,0.0,0.0,0.0,0.0,0.0,0.0,0.0,2.7604,2.7972,2.8345,2.874,2.847,2.8403,2.8765,2.8834,2.8972,2.9264,2.9715,2.9913,2.9913,3.0244,3.0228,2.9855,2.9926,2.9712,2.9298,2.9298,2.9298,2.9298,2.9298,2.9298,2.9298,2.9298,2.9298,2.9298,2.9298,2.9298,2.9298,2.9298,2.9091,2.871,2.8027,2.7757,2.7693,2.7729,2.7716,2.7849,2.8527,2.8376,2.7864,2.7799,2.6697,2.519,2.4884,2.4459,2.4254,2.4571,2.5119,2.5673,2.5613,2.6341,2.6914,2.5834,2.6438,2.7023,2.6265,2.6682,2.7067,2.68,2.5596,2.466,2.4647,2.4347,2.4128,2.4123,2.3887,0.0,2.3647,2.3618,2.3618,2.3618,2.3896,2.394,2.3618,2.3058,2.2616,2.2223,2.2223,2.2065,2.1735,2.1137,2.0826,2.0759,2.0142,1.9192,1.8113,0.0,0.0,0.0,0.0,0.0,0.0,0.0,0.0,0.0,0.0,0.0,0.0,0.0,0.0,0.0,0.0,0.0,0.0,0.0,0.0,0.0,0.0,2.7691,2.801,2.7898,2.8076,2.8686,2.893,2.9012,2.9154,2.9421,2.9634,2.9721,3.0086,3.0151,2.9922,3.0233,3.0085,2.9513,3.0014,2.9942,2.9298,2.9585,2.9585,2.9298,2.9298,2.9441,2.9712,2.9712,2.9712,2.9712,2.9712,2.9585,2.9298,2.9298,2.9234,2.9107,2.8662,2.817,2.7725,2.8019,2.8294,2.8527,2.8988,2.9051,2.8835,2.8311,2.7671,2.6955,2.6357,2.5749,2.5291,2.5355,2.5304,2.5286,2.5273,2.5652,2.5986,2.5704,2.6243,2.6787,2.6561,2.688,2.72,2.7067,2.6577,2.6079,2.5789,2.5428,2.5131,2.4844,2.4973,0.0,2.4723,2.4247,2.4042,2.4276,2.4213,2.3947,2.3603,2.3642,2.3348,2.2544,2.2719,2.2562,2.2024,2.2068,2.1496,2.0183,1.9533,1.8879,0.0,0.0,0.0,0.0,0.0,0.0,0.0,0.0,0.0,0.0,0.0,0.0,0.0,0.0,0.0,0.0,0.0,0.0,0.0,0.0,0.0,0.0,2.7397,2.79,2.8156,2.8205,2.8313,2.8726,2.9075,2.9298,2.9298,2.9656,2.9926,2.9926,3.0228,3.0299,3.014,3.0299,3.0157,2.9585,2.9942,2.9871,2.9298,2.9513,2.9513,2.9298,2.9298,2.9441,2.964,2.9783,2.9926,0.0,3.0069,2.9926,2.9585,2.9585,2.9441,0.0,0.0,0.0,0.0,0.0,2.8311,2.8675,2.8988,2.9185,2.925,2.8856,2.8377,2.7916,2.7312,2.6663,2.6165,2.6294,2.6294,2.6229,2.6229,2.6534,2.6825,2.6422,2.671,2.7014,2.6767,2.6991,2.7134,2.7,2.6934,0.0,2.6666,2.6048,2.5515,2.5312,2.5398,2.5366,2.5301,2.4737,2.4296,2.4355,2.408,2.3735,2.3398,2.3329,0.0,0.0,0.0,2.2413,2.1774,2.1904,0.0,0.0,0.0,1.9773,1.9401,0.0,0.0,0.0,1.7871,1.7316,0.0,0.0,0.0,0.0,0.0,0.0,0.0,0.0,0.0,0.0,0.0,0.0,0.0,0.0,0.0,0.0,2.7489,2.8158,2.8255,2.8599,2.8837,2.8837,2.9107,2.9298,2.9298,2.9656,2.9926,2.9926,3.0228,3.037,3.037,0.0,0.0,0.0,0.0,2.9855,2.9441,2.9441,2.9441,2.9369,2.9298,2.9369,2.9441,2.9712,2.9926,3.0069,3.0299,3.0228,2.9926,2.9926,2.9656,2.925,2.8853,2.8503,2.8207,2.7909,2.8048,2.8395,2.8741,0.0,0.0,2.9316,2.8922,2.8328,2.8078,2.7524,2.6985,2.723,2.7572,2.7767,2.7653,2.8113,2.8443,2.7426,2.7457,2.7584,2.6918,2.7067,2.7134,2.68,2.7,2.7185,2.7153,2.6386,2.5778,2.5745,2.5504,2.5352,2.5657,2.5091,2.455,2.425,0.0,0.0,2.326,2.2733,2.2375,2.2389,2.2317,2.2028,2.1465,2.14,2.1022,2.0175,2.0966,2.1355,2.127,2.1751,2.1994,2.1935,1.9762,1.903,0.0,0.0,0.0,0.0,0.0,0.0,0.0,0.0,0.0,0.0,0.0,0.0,0.0,0.0,0.0,2.7641,2.7768,2.8004,2.8637,2.8964,2.9202,2.9202,2.925,2.9298,2.9298,2.9656,2.9926,2.9926,3.0228,3.0299,2.9997,3.0567,0.0,2.9926,3.0781,3.0922,3.0228,3.0157,3.0085,2.9783,0.0,0.0,3.0157,3.0014,3.0211,3.0781,3.0513,3.037,3.0299,2.9997,2.9656,2.9234,2.8583,2.8505,2.8636,2.8326,2.8395,2.8741,2.9119,2.925,2.9316,2.9316,2.9185,2.9102,2.9034,2.8755,0.0,2.8163,2.7883,2.7604,2.7067,2.7391,2.7817,2.7328,2.772,2.8064,2.7584,2.7584,2.7517,2.72,2.7134,2.7105,2.6819,2.683,2.6808,2.6546,2.6397,2.6295,2.6039,2.5439,2.4963,2.4902,2.4606,2.4239,2.3929,2.3807,2.3638,2.3328,2.3096,2.2752,2.2379,2.2548,2.2317,2.1692,2.2091,2.2332,2.2311,2.2094,2.2009,2.2057,2.1341,2.075,0.0,0.0,0.0,0.0,0.0,0.0,0.0,0.0,0.0,0.0,0.0,2.6809,2.7842,0.0,2.7286,2.7817,2.8258,2.8583,2.8764,2.9075,2.9298,2.9298,2.9513,2.9513,2.9298,3.0014,3.0283,2.9926,3.0425,3.0513,3.0157,3.0513,3.0513,3.014,3.0726,3.0797,3.037,3.037,3.0299,3.0157,2.9942,3.0014,3.037,3.0442,3.0539,3.0724,3.0909,3.0751,3.0373,3.0075,2.9656,2.925,2.871,2.8713,2.8996,2.887,2.896,2.9176,2.9679,2.9761,2.9607,2.9788,2.9854,2.982,2.9826,2.9578,2.925,2.9102,2.8774,2.8394,2.8097,2.8245,2.8394,2.8097,2.8262,2.8461,2.8048,2.7981,2.7915,2.7799,2.7733,2.7602,2.7292,2.7338,2.727,2.6764,2.6666,2.66,2.6417,2.5909,2.5489,2.5165,2.4826,2.4486,2.4131,2.4115,2.4053,2.3867,2.355,2.3317,2.3123,2.3043,2.2853,2.257,2.274,2.2796,2.2796,2.2607,2.2379,2.2111,2.2088,2.1457,0.0,0.0,0.0,0.0,0.0,0.0,0.0,0.0,2.7583,2.8391,2.7781,2.7344,2.814,2.8043,2.7805,2.7883,2.8636,2.9139,2.8946,2.9123,2.9298,2.9441,2.9712,2.9783,2.9441,3.0299,3.0655,3.0069,3.0567,3.0726,3.0442,3.037,3.0442,3.0513,3.0513,3.0584,3.0655,3.0584,3.0513,3.0513,3.0442,3.0442,3.0513,3.0797,3.0755,3.0679,3.1213,3.1005,3.0316,3.0053,2.979,2.9481,2.9193,2.9363,2.9736,2.9432,2.9495,2.9766,3.0326,3.0324,3.0165,3.0415,3.0495,3.0373,3.0402,3.01,2.9805,2.9805,2.9561,2.9316,2.9316,2.9316,2.925,2.8922,2.8873,2.8807,2.8461,2.8395,2.8395,2.8329,2.8329,2.8196,2.7849,2.7849,2.7553,2.6885,2.6724,2.6676,2.6676,2.6289,2.5796,2.525,2.4873,2.4531,2.4255,2.4177,2.4177,2.4115,2.3791,2.3554,2.3479,2.3158,2.2965,2.2909,2.2965,2.3022,2.3022,2.3022,2.2751,2.226,2.234,2.1651,2.5498,2.5872,2.6354,2.6445,2.705,2.7694,0.0,0.0,2.8044,2.905,2.8509,2.8068,2.8924,2.8529,2.8145,2.8493,2.8747,2.8959,2.921,2.9266,2.9441,2.9783,2.9855,2.9855,2.9855,3.0228,3.0442,3.037,3.0442,3.0442,3.037,3.037,3.0584,3.0939,3.0922,3.1081,3.1489,3.1135,3.0922,3.0939,3.0584,3.0584,3.0939,3.0584,3.0835,3.1491,3.12,3.0628,2.9967,3.0263,3.0339,3.0299,3.025,3.066,3.1194,2.9791,2.9918,3.0852,3.0887,3.093,3.0879,3.0946,3.0715,3.0431,3.0378,3.01,2.9805,2.9805,2.9561,2.9316,2.9316,2.9316,2.9316,2.925,2.925,2.9119,2.8807,2.8741,2.8675,2.8329,2.8329,2.8263,2.8263,2.8263,2.7981,2.7286,2.6883,2.6676,2.6676,2.6072,2.566,2.5518,2.5233,2.4904,2.4548,2.4548,2.4425,2.4115,2.3791,2.3479,2.3152,2.3043,2.2909,2.2626,2.2909,2.3022,2.3022,2.3022,2.299,2.2886,2.2307,2.1704,2.5874,2.6262,2.6701,0.0,2.776,2.8244,2.86,2.8597,2.8689,2.9316,2.903,2.8823,2.9545,2.9367,2.9124,0.0,2.958,2.9655,2.9341,2.9527,2.9656,2.9585,3.014,3.0354,2.9926,3.0638,3.0781,3.014,3.0513,3.0726,3.0726,3.0726,3.0922,3.1347,3.1135,3.1206,3.1559,3.1418,3.1364,3.1364,3.1206,3.1223,3.1347,3.1206,3.1158,3.1234,3.084,3.0411,2.9945,3.0268,3.0313,3.0144,3.0572,3.1081,3.1525,3.085,3.1081,3.1681,3.1927,3.1661,3.135,3.155,3.1282,3.099,3.1016,3.062,3.0165,3.0165,2.9774,2.9316,2.9316,2.9316,2.9316,2.9316,2.9316,2.925,2.9119,2.9053,2.9053,2.8922,2.8856,2.879,2.8593,2.8426,2.808,2.754,2.723,2.6793,2.612,2.5818,2.5564,2.5357,2.5199,2.5042,2.4919,2.4919,2.4857,2.4672,2.434,2.4133,2.3998,2.3763,2.3473,2.3095,2.3209,2.3171,2.3022,2.3022,2.2798,2.2481,2.2347,2.2001,2.61,2.6518,0.0,2.7727,2.8169,2.8509,2.892,2.8975,2.9071,2.9461,2.9287,2.9313,3.0054,2.9996,2.9899,2.9811,3.0257,3.0275,2.9428,2.9857,3.0085,2.9799,3.0781,3.1135,3.0283,3.1064,3.1135,3.014,3.0513,3.0868,3.0868,3.0868,3.101,3.1418,3.1135,3.1206,3.1559,3.1559,3.1559,3.1559,3.1559,3.1559,3.1559,3.1559,3.1232,3.0702,3.0481,3.0225,2.9934,3.0238,3.0405,3.0413,3.1034,3.1559,3.1912,3.1861,3.214,3.2432,3.261,3.2304,3.185,3.1926,3.1751,3.1371,3.1405,3.1009,3.0573,3.0573,3.01,2.9578,2.9578,2.9578,2.9543,2.944,2.9357,2.9258,2.9155,2.9158,2.9162,2.9162,2.9248,2.9216,2.8869,2.855,2.8168,2.763,2.7356,2.6856,2.588,2.5548,2.5389,2.5135,2.5103,2.5103,2.5103,2.5103,2.5103,2.5103,2.469,2.4436,2.4436,2.4007,2.3642,2.3346,2.3346,2.3219,2.3022,2.3022,2.2767,2.2363,2.2419,2.23,2.6554,2.6862,2.738,2.7795,2.821,2.8558,2.8916,2.8975,2.9085,2.9531,2.9269,2.924,3.0131,3.0228,3.0104,2.9825,3.0374,3.0481,2.9428,3.0281,3.0939,3.0922,3.1965,3.2175,0.0,3.1347,3.1277,3.0442,3.0442,3.0442,3.0442,3.0442,3.0584,3.101,3.101,3.1206,3.1559,3.1559,3.1559,3.1559,3.1559,3.1559,3.1559,3.1559,3.1026,2.9917,3.0242,3.0225,2.99,3.0242,3.0874,3.1542,3.1894,3.2333,3.2666,3.2603,3.2831,3.3188,3.2791,3.2598,3.2533,3.2148,3.1744,3.1396,3.1377,3.1184,3.0879,3.0879,3.062,3.0378,3.0378,3.0378,3.0272,2.9882,2.9538,2.9195,2.8828,2.8783,2.8802,2.8802,2.9076,2.9196,2.8854,2.8785,2.8401,2.7277,2.7097,2.6832,2.6175,2.5512,2.5119,2.5103,2.5103,2.5103,2.5103,2.5103,2.5103,2.5103,2.4452,2.4129,2.4129,2.3419,2.3038,2.3038,2.3038,2.3022,2.3022,2.3022,2.3006,2.299,2.2656,2.2482,2.7278,2.7391,2.7521,2.8151,2.8426,2.8576,2.8934,2.8975,2.9012,2.9159,2.9287,2.9489,2.9788,3.0065,3.0167,2.9837,3.0237,3.0324,2.976,3.0179,3.0497,3.0321,3.1277,0.0,0.0,0.0,0.0,3.1275,3.0931,3.1111,3.1865,3.0931,3.0726,3.1347,3.1135,3.1206,3.1559,3.1559,3.1559,3.1559,3.1559,3.1559,3.1559,3.1302,3.0856,3.0225,3.0122,3.0019,2.9902,3.0258,3.0875,3.1635,3.2246,3.2771,3.3103,3.3306,3.3317,3.3171,3.2733,3.2399,3.2184,3.2056,3.1726,3.1377,3.1377,3.1184,3.0879,3.0879,3.0685,3.0378,3.0378,3.0165,2.9999,2.9857,2.9499,2.9161,2.8957,2.9239,2.9322,2.8824,2.902,2.9094,2.8523,2.8169,2.7764,2.7207,2.6694,2.6326,2.6126,2.5905,2.5656,2.5488,2.5426,2.5365,2.5103,2.5103,2.5103,2.5103,2.508,2.5117,2.5117,2.5055,2.4832,2.4359,2.4169,2.3827,2.3304,2.3135,2.3022,2.3006,2.2895,2.2704,2.7338,2.7493,2.7541,2.8051,2.8337,2.8517,2.8618,2.8797,2.8993,2.8874,2.9135,2.9397,2.9544,2.9945,3.0185,2.9867,3.0218,3.0351,2.98,3.0207,3.051,3.0335,3.1143,0.0,0.0,0.0,0.0,3.0827,3.0914,3.1182,3.1687,3.0985,3.0868,3.1364,3.1277,3.1347,3.1559,3.1559,3.163,3.1771,3.163,3.1632,3.1564,3.1184,3.0806,3.0412,3.0189,3.0172,3.0309,3.0685,3.1202,3.1861,3.2613,3.3121,3.3502,3.3555,3.3416,3.3157,3.2747,3.2331,3.1983,3.1836,3.1598,3.1377,3.1377,3.1249,3.1055,3.1055,3.0944,3.075,3.075,3.0552,3.0283,3.0013,2.9619,2.9262,2.9137,2.9341,2.9428,2.8804,2.9003,2.9044,2.8129,2.7672,2.7347,2.7107,2.6692,2.6388,2.6327,2.6189,2.6022,2.5778,2.5778,2.5656,2.5472,2.5472,2.5472,2.5472,2.5542,2.5598,2.5598,2.5649,2.5407,2.4812,2.4622,2.4228,2.3472,2.3304,2.3071,2.2831,2.2958,2.2831,2.6889,2.7158,2.7364,2.7494,2.802,2.8397,2.808,2.8498,2.8874,2.8576,2.8755,2.9104,0.0,0.0,3.0127,2.9841,3.0378,3.0495,2.9429,3.0222,3.0958,0.0,0.0,0.0,0.0,0.0,0.0,2.9441,0.0,3.0726,3.003,3.0584,3.101,3.101,3.1418,3.1559,3.1559,3.1559,3.1771,3.2035,3.1771,3.1598,3.16,3.1167,3.0806,3.0463,3.0446,3.0652,3.1011,3.1427,3.1774,3.2158,3.2945,3.3502,3.3721,3.3267,3.3103,3.3103,3.2703,3.2313,3.1909,3.1506,3.1377,3.1377,3.1377,3.1377,3.1377,3.1377,3.1359,3.1341,3.1341,3.1322,3.1102,3.0369,2.9919,2.9625,2.9202,2.9189,2.9128,2.878,2.8933,2.8824,2.7768,2.7295,2.7073,2.7073,2.7073,2.7012,2.6692,2.6327,2.6128,2.6128,2.6128,2.6128,2.6067,2.6067,2.6067,2.6067,2.583,2.5648,2.5648,2.5284,2.4903,2.4597,2.4506,2.4211,2.3528,2.3528,2.3182,2.2585,2.2863,2.2831,2.7086,2.7054,2.6932,2.7674,2.7822,2.7822,2.8277,2.8517,2.8576,2.8517,2.8755,2.9131,0.0,0.0,0.0,2.9375,3.0002,0.0,2.9453,2.9778,0.0,3.0493,0.0,3.1009,3.0392,3.1206,0.0,0.0,3.0283,3.0881,3.1595,3.0931,3.0868,3.1418,3.1559,3.1559,3.1559,3.1559,3.163,3.17,3.163,3.1578,3.1563,3.1218,3.096,3.0857,3.0549,3.0652,3.1011,3.1427,3.1825,3.2171,3.2585,3.2952,3.32,3.2862,3.2736,3.2608,3.228,3.1891,3.1524,3.1414,3.1377,3.1377,3.1377,3.1377,3.1377,3.1377,3.1157,3.0937,3.0937,3.0497,3.0057,3.0167,2.9904,2.966,2.9879,2.9945,2.9661,2.88,2.8114,2.7572,2.7305,2.7141,2.7073,2.7073,2.7073,2.7073,2.6952,2.6891,2.6753,2.651,2.6449,2.6388,2.6128,2.6067,2.6067,2.6067,2.6244,2.6376,2.6376,2.6185,2.5931,2.5558,2.504,2.4608,2.4144,2.3697,2.3424,2.3231,2.3087,2.2958,2.6631,2.6762,2.6838,2.7225,2.7519,2.7727,2.7628,2.7831,2.8014,2.7853,2.8052,0.0,2.8676,0.0,0.0,0.0,0.0,0.0,2.9364,2.9372,2.953,0.0,3.0308,0.0,2.9949,3.0892,3.1206,0.0,3.0638,3.1149,3.1653,3.1182,3.1135,3.1559,3.1559,3.1559,3.1559,3.1559,3.17,3.1841,3.17,3.1614,3.1599,3.1184,3.1011,3.0994,0.0,3.0909,3.1321,3.1704,3.1892,3.2149,3.2449,3.2857,3.3103,3.285,3.2777,3.2767,3.2515,3.2161,3.1763,3.1506,3.1377,3.1377,3.1377,3.1377,3.1377,3.1377,3.1102,3.0827,3.1011,3.0571,3.0167,3.0406,3.0149,2.991,3.0149,3.0057,2.9671,2.8745,2.78,2.7133,2.7237,2.7297,2.7297,2.7297,2.7297,2.7237,2.7133,2.7073,2.7012,2.683,2.683,2.6753,2.6571,2.6571,2.6571,2.6571,2.654,2.6576,2.6576,2.6321,2.608,2.5703,2.5292,2.4907,2.4384,2.4033,2.3727,2.3468,2.3391,2.3335,2.588,2.6358,2.6793,2.6592,2.7208,2.7561,2.6737,2.6988,2.7257,2.6996,0.0,2.7441,2.7765,2.8016,2.8229,2.8471,0.0,2.9064,2.9193,2.9068,2.9074,2.9446,2.9699,2.9933,2.9987,3.0882,3.1226,3.0513,3.1206,3.1418,3.101,3.1347,3.1559,3.1559,3.1559,3.1559,3.1559,3.1559,3.1771,3.2035,3.1771,3.1598,3.1565,3.1236,3.1063,3.1011,0.0,0.0,3.1458,3.1894,3.2061,3.204,3.2442,3.2877,3.3133,3.2954,3.2952,3.3043,3.2855,3.2676,3.2294,3.1699,3.1506,3.1506,3.1506,3.1469,3.1433,3.1433,3.1138,3.0917,3.1248,3.1083,3.078,3.0835,3.056,3.0222,3.0259,2.991,2.938,2.8717,2.7826,2.7315,2.7521,2.7581,2.7581,2.7581,2.7581,2.7461,2.7254,2.7133,2.7073,2.7073,2.7073,2.7056,2.7004,2.7039,2.7021,2.6936,2.6645,2.6473,2.6422,2.6062,2.5703,2.5434,2.5383,2.5025,2.4423,2.444,2.4089,2.3568,2.3772,2.3723,2.5754,2.5994,2.6231,2.6776,2.6838,2.6814,2.6863,2.672,0.0,0.0,2.7097,2.7498,2.8049,2.8483,2.8724,2.8469,0.0,0.0,0.0,0.0,2.965,0.0,0.0,0.0,0.0,0.0,0.0,0.0,0.0,3.1418,3.101,3.1081,3.1277,3.1559,3.1559,3.1559,3.1559,3.1559,3.163,3.17,3.163,3.1595,3.1614,3.1544,3.1302,3.1011,0.0,0.0,3.0686,3.1637,3.1828,3.1607,3.2571,3.2933,3.295,3.2618,3.2727,3.2899,3.2568,3.2422,3.2358,3.2294,3.223,3.223,3.223,3.1985,3.1722,3.1722,3.142,3.1162,3.1238,3.0953,3.0804,3.1139,3.0666,3.0296,3.0626,2.9927,2.9064,2.8619,2.8133,2.784,2.79,2.79,2.79,2.79,2.79,2.79,2.784,2.7435,2.7073,2.7073,2.7073,2.6936,2.661,2.6884,2.6816,2.6182,2.6354,2.6354,2.6045,2.5669,2.5429,2.5434,2.5069,2.4825,2.4701,2.4496,2.4351,2.4228,2.3999,2.3723,2.5258,2.5497,2.5743,2.6105,2.6179,2.6207,2.6192,0.0,0.0,0.0,2.6471,2.6807,2.7271,2.7763,0.0,2.8155,0.0,0.0,0.0,0.0,0.0,0.0,0.0,0.0,0.0,0.0,0.0,0.0,0.0,3.17,3.1347,3.1277,3.1418,3.1559,3.1559,3.1559,3.1559,3.1559,3.1474,3.1285,3.1285,3.1165,3.0977,3.0977,3.0943,3.0995,3.0995,0.0,3.1293,3.1769,3.1968,3.2048,3.2477,3.2656,3.2613,3.2676,3.274,3.2912,3.2931,3.2931,3.2931,3.2931,3.2676,3.2384,3.2175,3.1967,3.1816,3.1816,3.1494,3.1328,3.1702,3.137,3.1082,3.1452,3.0829,3.0119,2.9917,2.9301,2.8751,2.8553,2.8217,2.808,2.8217,2.8277,2.8277,2.8277,2.8277,2.8199,2.802,2.7719,2.7478,2.7358,2.7194,2.6919,2.6525,2.6781,2.6703,2.5977,2.6024,2.5996,2.5652,2.5444,2.5237,2.5086,2.5065,2.4923,2.4812,2.4646,2.4607,2.459,2.4221,2.3964,2.4812,2.5143,2.5491,2.5491,2.5772,2.591,2.5673,2.5705,0.0,0.0,2.5953,2.619,2.6537,2.6955,2.7441,0.0,2.8343,0.0,0.0,0.0,0.0,0.0,0.0,0.0,0.0,0.0,0.0,0.0,0.0,0.0,3.163,3.1559,3.1559,3.1559,3.1559,3.1559,3.1559,3.1491,3.1302,3.1011,3.0926,3.072,3.0429,3.0429,3.0531,3.075,3.0818,0.0,0.0,3.1804,3.2134,3.2487,3.249,3.2549,3.2676,3.2912,3.2994,3.3038,3.3292,3.3418,3.3418,3.3418,3.3038,3.2537,3.2118,3.1927,3.1851,3.1756,3.1489,3.1436,3.2041,3.1775,3.1351,3.1475,3.0794,2.9911,2.9246,2.8874,2.8636,2.8636,2.8379,2.8319,2.8576,2.8636,2.8636,2.8636,2.8636,2.8517,2.8259,2.814,2.7984,2.7639,2.7357,2.7038,2.6641,2.6724,2.6457,2.5778,2.5765,2.5665,2.5353,2.5339,2.5238,2.4979,2.5183,2.5183,2.4868,2.4868,2.4834,2.4693,2.4367,2.4142,2.4812,2.5255,2.5757,2.5757,2.6035,2.6279,2.6243,0.0,0.0,2.6026,2.6063,2.619,2.6537,2.694,2.7361,2.7765,0.0,2.9022,0.0,0.0,0.0,0.0,0.0,0.0,0.0,0.0,0.0,0.0,0.0,0.0,0.0,3.1559,3.1559,3.1559,3.1559,3.1559,3.1559,3.1234,3.1046,3.1011,3.0652,3.0463,3.0429,3.0429,3.0258,3.0017,0.0,0.0,0.0,3.1192,3.1819,3.2414,3.274,3.3038,3.3292,3.3355,3.3355,3.3355,3.3355,3.3418,3.3418,3.3418,3.3355,3.3214,3.2805,3.2477,3.2088,3.1638,3.1482,3.1482,3.156,3.1552,3.1382,3.0797,3.0362,2.9971,2.9543,2.9213,2.8934,2.8934,2.8916,2.8916,2.8934,2.8934,2.8934,2.8934,2.8934,2.8916,2.8916,2.8636,2.8313,2.7935,2.7564,2.7229,2.6898,2.6614,2.6127,2.5322,2.5583,2.56,2.5235,2.5476,2.5624,2.5641,2.5624,2.5514,2.5165,2.5165,2.4827,2.4227,2.4193,2.4059,2.4693,2.4816,2.4965,2.5357,2.552,2.5687,2.5872,0.0,2.5953,2.6063,2.6245,2.6409,2.6591,2.6903,2.725,2.7482,0.0,0.0,0.0,0.0,0.0,0.0,0.0,0.0,0.0,0.0,0.0,0.0,0.0,0.0,0.0,3.1439,3.1456,3.1234,3.1234,3.1234,3.1234,3.0857,3.0669,3.0652,3.0292,3.0051,3.001,2.9811,2.9875,3.0215,0.0,0.0,0.0,3.1442,3.1955,3.2422,3.2994,3.3292,3.3418,3.3418,3.3418,3.3418,3.3418,3.3262,3.3047,3.3047,3.3047,3.2969,3.2539,3.2305,3.207,3.1641,3.1523,3.1582,3.1836,3.1715,3.1361,3.0619,3.0346,3.013,2.9605,2.9509,2.9375,2.8741,2.8784,2.8769,2.8355,2.8618,2.8827,2.8568,2.887,2.906,2.8818,2.8492,2.8244,2.8079,2.7643,2.7204,2.6565,2.6551,2.6246,2.5549,2.5821,2.5838,2.5514,2.5789,2.5844,2.5679,2.5844,2.5789,2.5514,2.5514,2.5156,2.4518,2.4258,2.3858,2.4579,2.4617,2.4659,2.5298,2.5569,2.5679,0.0,2.6136,2.6245,2.6245,2.6427,2.6591,2.6591,2.6903,2.7158,2.7148,0.0,2.7641,2.8333,0.0,0.0,0.0,0.0,0.0,0.0,0.0,0.0,0.0,0.0,0.0,0.0,3.1097,3.1114,3.0857,3.0926,3.0995,3.0995,3.0599,3.0393,3.0393,2.9965,2.9705,2.9626,2.9447,2.9578,3.0035,0.0,0.0,0.0,3.1506,3.2019,3.2485,3.3038,3.3292,3.3418,3.3418,3.3418,3.3418,3.3418,3.3144,3.2793,3.2793,3.2715,3.2539,3.2109,3.207,3.2051,3.1484,3.1328,3.1406,3.1719,3.1562,3.1191,3.0645,3.045,3.0274,2.9863,2.9651,2.9364,2.8676,2.8568,2.8498,2.7991,2.8405,2.867,2.8389,2.8766,2.8975,2.8616,2.8351,2.8182,2.8164,2.7742,2.7229,2.6616,2.6549,2.6295,2.5861,2.6008,2.6008,2.5844,2.6081,2.6136,2.5971,2.6136,2.6136,2.5789,2.5789,2.5431,2.4613,2.4368,2.3878,2.4522,2.4896,2.5254,2.5918,2.6354,2.6591,2.6591,2.6591,2.6591,2.6591,2.6591,2.6591,2.6591,2.6903,2.7122,2.6769,2.7075,0.0,0.0,0.0,0.0,0.0,0.0,0.0,0.0,0.0,0.0,0.0,0.0,0.0,0.0,3.0446,3.0446,3.0429,3.0804,3.1007,3.1007,3.0624,3.0415,3.0415,2.9636,2.9316,2.9316,2.9316,2.9316,0.0,0.0,0.0,0.0,3.112,3.1763,3.2422,3.2804,3.3102,3.3418,3.3418,3.3418,3.3418,3.3418,3.3144,3.2793,3.2793,3.2519,3.209,3.166,3.1816,3.2053,3.1133,3.0898,3.0898,3.0898,3.0898,3.0898,3.0898,3.0645,3.0392,3.0392,2.9581,2.8834,2.8816,2.8499,2.8181,2.8219,2.8408,2.8578,2.8578,2.8578,2.8634,2.8578,2.8351,2.8183,2.803,2.7734,2.7475,2.7234,2.6536,2.6081,2.6118,2.6118,2.6118,2.6118,2.6409,2.6591,2.6591,2.6591,2.6409,2.6118,2.6118,2.5559,2.4508,2.4508,2.41,2.4035,2.4298,2.4454,2.511,2.5359,2.5483,2.5748,2.5766,2.5892,2.6096,2.6205,2.6243,2.6536,2.6847,2.7142,2.7415,2.7326,0.0,0.0,0.0,0.0,0.0,0.0,0.0,0.0,0.0,0.0,0.0,0.0,0.0,0.0,2.9995,3.0111,3.0388,3.0522,3.0723,3.0923,3.0338,3.0136,3.0397,2.9619,2.943,2.9626,2.9364,0.0,0.0,0.0,0.0,0.0,3.1249,3.1891,3.2147,3.2912,3.3292,3.3418,3.3418,3.3418,3.3379,3.3086,3.2715,3.2324,3.2012,3.1836,3.17,3.1446,3.1545,3.1601,3.1055,3.0898,3.0898,3.0898,3.0898,3.0898,3.0898,3.082,3.0704,3.045,3.0045,2.9546,2.8861,2.8539,2.8216,2.7767,2.8121,2.8437,2.8131,2.8507,2.8694,2.8404,2.8148,2.7981,2.7956,2.763,2.7358,2.7085,2.6846,2.6627,2.6464,2.6409,2.6409,2.6409,2.6537,2.6591,2.6591,2.6591,2.6537,2.6409,2.6409,2.5882,2.4823,2.4079,2.3637,2.3874,2.4118,2.4253,2.4941,2.5154,2.531,2.5518,2.5641,2.5733,2.5929,2.5949,2.6078,2.6499,2.6738,2.705,2.7622,2.7555,0.0,0.0,0.0,0.0,0.0,0.0,0.0,0.0,0.0,0.0,0.0,0.0,0.0,0.0,0.0,3.0057,3.0584,3.0584,3.0649,3.0715,3.0271,3.0158,3.0404,2.9616,2.9495,2.9805,2.9561,0.0,0.0,0.0,0.0,0.0,3.1359,3.1937,3.2211,3.3038,3.3481,3.3607,3.3607,3.3572,3.3519,3.3243,3.2708,3.2055,3.178,3.1584,3.1407,3.1191,3.1289,3.1329,3.1015,3.0898,3.0898,3.0898,3.0898,3.0898,3.0898,3.0898,3.0781,3.0413,3.0044,2.9561,2.8801,2.8435,2.8125,2.7695,2.8029,2.8342,2.8106,2.8408,2.8594,2.832,2.8067,2.796,2.8014,2.7745,2.753,2.7368,2.7152,2.6935,2.6736,2.6646,2.6591,2.6591,2.6591,2.6591,2.6591,2.6591,2.6591,2.6591,2.6279,2.5731,2.4918,2.4061,2.3705,0.0,2.4347,2.4506,2.5146,2.5496,2.5703,2.5703,2.5858,0.0,2.5908,2.5894,2.6094,2.6554,2.6701,2.6974,2.766,0.0,0.0,0.0,0.0,0.0,0.0,0.0,0.0,0.0,0.0,0.0,0.0,0.0,0.0,0.0,0.0,3.0213,3.0879,3.0944,3.075,3.0443,3.0443,3.0443,3.0378,2.9643,2.9495,2.9739,2.9739,0.0,0.0,0.0,0.0,0.0,3.1488,3.2083,3.2485,3.3165,3.3607,3.3922,3.3882,3.3811,3.3779,3.3699,3.2914,3.1979,3.1959,3.1662,3.1267,3.0995,3.1112,3.1267,3.0995,3.0957,3.0957,3.0937,3.0957,3.0937,3.0898,3.0898,3.0781,3.0332,2.9676,2.9026,2.8622,2.8234,2.7906,2.7906,2.8121,2.8301,2.8301,2.8301,2.8301,2.8301,2.8067,2.8014,2.8281,2.8067,2.7906,2.7906,2.7422,2.7043,2.7043,2.6791,2.6646,2.6646,2.6646,2.6646,2.6646,2.6609,2.6591,2.6554,2.5764,2.5194,2.4826,2.4404,2.4202,2.3481,0.0,2.4267,2.4409,2.4546,2.4646,0.0,2.4827,2.5032,2.5674,2.6012,2.6364,2.7195,2.7104,2.7437,0.0,0.0,0.0,0.0,0.0,0.0,0.0,0.0,0.0,0.0,0.0,0.0,0.0,0.0,0.0,0.0,0.0,3.075,3.0879,3.112,3.112,3.0815,3.075,3.049,2.9952,2.9757,2.9561,2.943,2.943,0.0,0.0,0.0,0.0,3.0815,3.157,3.2275,3.2804,3.3228,3.3607,3.3882,3.3565,3.3428,3.3311,3.2634,3.2038,3.1584,3.125,3.1191,3.1267,3.1228,3.1441,3.1614,3.1267,3.1383,3.1518,3.1267,3.1228,3.117,3.0937,3.0898,3.0859,3.0762,3.006,2.9439,2.9342,2.8754,2.8194,2.8194,2.8247,2.8301,2.8301,2.8301,2.8301,2.8301,2.8228,2.8228,2.8281,2.8228,2.8194,2.8194,2.7906,2.7584,2.7314,2.7279,2.7225,2.7225,2.7008,2.6989,2.7225,2.6905,2.6605,2.6233,2.5484,2.5136,2.5024,2.4485,2.4202,2.3246,2.3938,2.4496,2.4627,2.4727,2.4877,2.5126,2.5275,2.5465,2.5853,2.6239,2.6721,2.7519,2.7233,0.0,0.0,0.0,0.0,0.0,0.0,0.0,0.0,0.0,0.0,0.0,0.0,0.0,0.0,0.0,0.0,0.0,0.0,3.0944,3.112,3.1313,3.1249,3.0879,3.0879,3.062,3.01,3.01,2.997,2.9774,2.9774,0.0,0.0,0.0,0.0,3.1184,3.1699,3.2403,3.3165,3.3481,3.374,3.3853,3.3798,3.3578,3.3275,3.2612,3.1978,3.1407,3.1365,3.1344,3.1325,3.1498,3.1787,3.196,3.1614,3.1672,3.173,3.1556,3.1441,3.1267,3.1112,3.0995,3.084,3.0625,3.0039,2.9567,2.9316,2.875,2.8301,2.8301,2.8301,2.8301,2.8301,2.8301,2.8301,2.8301,2.8301,2.8301,2.8301,2.8301,2.8301,2.8301,2.8174,2.796,2.7638,2.7476,2.7368,2.7368,2.726,2.7166,2.7157,2.6688,2.6272,2.5837,2.5459,2.5183,2.5014,2.469,2.4449,2.3205,2.4066,2.4859,2.4969,2.5151,2.5421,2.5798,2.6118,2.6303,2.6256,0.0,0.0,0.0,2.7288,0.0,0.0,0.0,0.0,0.0,0.0,0.0,0.0,0.0,0.0,0.0,0.0,0.0,0.0,0.0,0.0,0.0,0.0,0.0,3.1377,3.1377,3.1249,3.1009,3.0944,3.075,3.0378,3.0378,3.0378,3.0378,3.0378,3.023,0.0,0.0,0.0,3.1506,3.1827,3.2594,3.3481,3.3717,3.3853,3.3882,3.4044,3.3754,3.3193,3.2781,3.2031,3.1325,3.1556,3.1441,3.1325,3.1672,3.2018,3.219,3.196,3.196,3.1903,3.1845,3.1614,3.1325,3.1267,3.1054,3.0781,3.0391,2.9922,2.9453,2.9082,2.8633,2.8301,2.8301,2.8301,2.8301,2.8301,2.8354,2.8354,2.8354,2.8354,2.8354,2.8354,2.8301,2.8301,2.8301,2.8301,2.8174,2.796,2.7691,2.753,2.7476,2.7473,2.7245,2.6793,2.6356,2.5939,2.5553,2.5503,2.5263,2.499,2.4941,2.4775,2.3205,2.4145,2.49,2.4417,2.4325,2.4585,2.517,2.5698,2.6261,0.0,0.0,0.0,0.0,2.7842,2.7678,0.0,0.0,0.0,0.0,0.0,0.0,0.0,0.0,0.0,0.0,0.0,0.0,0.0,0.0,0.0,0.0,0.0,0.0,3.1377,3.1377,3.1377,3.1313,3.1055,3.075,3.0378,3.0378,3.0378,3.0378,3.0378,3.0378,0.0,0.0,3.1184,3.1873,3.2211,3.2912,3.3757,3.3525,3.3717,3.4106,3.3391,3.2906,3.2529,3.1524,3.1229,3.1267,3.1112,3.0995,3.1054,3.1614,3.1845,3.196,3.244,3.2555,3.244,3.1903,3.1787,3.1614,3.1054,3.0957,3.0879,3.0801,3.0137,2.9551,2.9492,2.8828,2.8301,2.8301,2.8301,2.8301,2.8301,2.8514,2.8621,2.8621,2.8621,2.8621,2.8621,2.8461,2.8301,2.8301,2.8301,2.8301,2.8228,2.8194,2.8067,2.7853,2.7738,2.735,2.6647,2.6447,2.612,2.5674,2.5429,2.5293,2.5235,2.499,2.4775,2.3196,2.3877,2.4498,2.4659,2.4464,2.4408,2.4975,2.5249,2.568,0.0,0.0,0.0,0.0,0.0,0.0,0.0,0.0,0.0,0.0,0.0,0.0,0.0,0.0,0.0,0.0,0.0,0.0,0.0,0.0,0.0,0.0,0.0,0.0,0.0,3.1377,3.1377,3.1377,3.1073,3.0815,3.0685,3.0879,3.0879,3.0685,3.0685,3.075,3.0944,0.0,3.1506,3.2466,3.2594,3.3092,3.3875,3.386,3.372,3.3452,3.2974,3.2612,3.236,3.1984,3.175,3.1614,3.1808,3.1634,3.1518,3.2096,3.219,3.2133,3.2555,3.2669,3.2612,3.219,3.196,3.1672,3.1228,3.1112,3.1112,3.1112,3.0423,2.9793,2.9793,2.8996,2.8301,2.8301,2.8301,2.8354,2.8514,2.8621,2.8727,2.8887,2.8781,2.8674,2.8674,2.8461,2.8301,2.8301,2.8301,2.8301,2.8301,2.8301,2.8228,2.8121,2.7838,2.7409,2.6807,2.6551,2.6172,2.5693,2.5596,2.5528,2.5479,2.5382,2.5186,2.2778,2.3325,2.3922,2.4659,2.4716,2.4736,2.5306,2.5358,2.553,2.6217,0.0,0.0,0.0,0.0,0.0,0.0,0.0,0.0,0.0,0.0,0.0,0.0,0.0,0.0,0.0,0.0,0.0,0.0,0.0,0.0,0.0,0.0,0.0,0.0,3.1377,3.1377,3.1377,3.112,3.1009,3.1009,3.1184,3.1184,3.1009,3.1073,3.1267,3.1506,3.1506,3.2083,3.3038,3.3068,3.346,3.3943,3.3963,3.3512,3.2834,3.2679,3.2498,3.2305,3.244,3.2211,3.1903,3.2326,3.2211,3.1903,3.244,3.244,3.2363,3.2612,3.2607,3.2468,3.2342,3.2076,3.173,3.1383,3.1383,3.1363,3.107,3.0515,2.9941,2.9897,2.9046,2.8354,2.8461,2.8461,2.8461,2.8727,2.8781,2.8887,2.9079,2.8887,2.8674,2.8674,2.8461,2.8301,2.8301,2.8408,2.8441,2.8408,2.8354,2.8301,2.8301,2.7793,2.7454,2.727,2.6593,2.6113,2.5977,2.5781,2.5693,2.5693,2.5693,2.5547,2.1692,2.2509,2.3399,2.3722,2.4664,2.5724,2.6555,2.6495,2.6589,2.7558,0.0,0.0,0.0,0.0,0.0,0.0,0.0,0.0,0.0,0.0,0.0,0.0,0.0,0.0,0.0,0.0,0.0,0.0,0.0,0.0,0.0,0.0,0.0,0.0,0.0,3.1377,3.1377,3.1377,3.1377,3.1377,3.1073,3.1073,3.1377,3.1717,3.1846,3.191,3.2867,3.3292,3.3398,3.361,3.3922,3.4187,3.333,3.2892,3.2653,3.244,3.2305,3.2248,3.196,3.1845,3.1787,3.1845,3.1845,3.1845,3.219,3.2305,3.2363,3.2612,3.2359,3.2076,3.226,3.2076,3.173,3.1383,3.1556,3.1494,3.0504,3.0128,2.9917,2.952,2.8829,2.8441,2.8973,2.8834,2.8781,2.9026,2.9079,2.9079,2.9079,2.8887,2.8674,2.8674,2.8461,2.8301,2.8301,2.8761,2.892,2.8674,2.8461,2.8301,2.8301,2.75,2.7381,2.7994,2.6556,2.6055,2.6705,2.6016,2.5693,2.5693,2.5693,2.5547,2.1298,2.1884,2.2584,2.3538,2.4528,2.5378,2.6025,2.572,2.572,2.6958,2.7363,0.0,0.0,0.0,0.0,0.0,0.0,0.0,0.0,0.0,0.0,0.0,0.0,0.0,0.0,0.0,0.0,0.0,0.0,0.0,0.0,0.0,0.0,0.0,0.0,3.1377,3.1377,3.1377,3.1377,3.1377,3.1249,3.1249,3.1377,3.1717,3.2102,3.2549,3.3165,3.3575,3.3939,3.4085,3.3922,3.3667,3.3049,3.2757,3.2669,3.2612,3.2555,3.2555,3.2383,3.2383,3.2383,3.2383,3.2383,3.2383,3.2498,3.2555,3.2555,3.2669,3.2226,3.1784,3.1835,3.1613,3.1251,3.0908,3.1137,3.1211,3.0653,3.0338,3.0051,2.9728,2.9186,2.8867,2.9079,2.9026,2.8946,2.8978,2.901,2.894,2.8809,2.8532,2.8327,2.8173,2.7759,2.7552,2.774,2.7946,2.805,2.8121,2.8568,2.8694,2.8436,2.7942,2.7586,2.7311,2.6536,2.6143,2.6124,2.582,2.5693,2.5693,2.5693,2.5645,2.0571,2.1194,2.1995,2.2965,2.3791,2.4575,2.5343,2.5305,2.5449,2.6627,2.7229,2.7794,2.8781,0.0,0.0,0.0,0.0,0.0,0.0,0.0,0.0,0.0,0.0,0.0,0.0,0.0,0.0,0.0,0.0,0.0,0.0,0.0,0.0,0.0,0.0,3.1377,3.1377,3.1377,3.1377,3.1377,3.1377,3.1506,3.1699,3.2038,3.2613,3.3228,3.367,3.4057,3.4329,3.4227,3.3811,3.3141,3.2851,3.2669,3.2669,3.2669,3.2669,3.2612,3.2669,3.2612,3.2612,3.2669,3.2669,3.2669,3.2669,3.2669,3.2649,3.2504,3.2102,3.1722,3.1579,3.1304,3.1027,3.0774,3.0967,3.1099,3.0558,3.0273,3.0112,2.9776,2.9386,2.9092,2.9056,2.8983,2.8842,2.8624,2.8492,2.837,2.8248,2.7975,2.7774,2.7652,2.7419,2.7317,2.75,2.7703,2.7804,2.7925,2.8593,2.8692,2.8184,2.7921,2.7571,2.7113,2.6656,2.634,2.6182,2.5947,2.582,2.582,2.5742,2.5742,1.9317,2.0382,2.1655,2.1928,2.2492,2.3368,2.4757,2.5594,2.6282,2.6881,2.7419,2.7989,2.8684,0.0,0.0,0.0,0.0,0.0,0.0,0.0,0.0,0.0,0.0,0.0,0.0,0.0,0.0,0.0,0.0,0.0,0.0,0.0,0.0,0.0,0.0,0.0,3.1377,3.1377,3.1377,3.1377,3.1377,3.1763,3.2422,3.274,3.3292,3.3922,3.459,3.4656,3.4289,3.4118,3.3534,3.2669,3.2669,3.2669,3.2669,3.2669,3.2555,3.2363,3.2612,3.2555,3.2363,3.2612,3.2669,3.2669,3.2669,3.2669,3.2566,3.2112,3.1967,3.1919,3.1485,3.1248,3.1039,3.0948,3.1227,3.1253,3.0051,3.0012,3.0064,2.9688,2.9343,2.9044,2.889,2.8674,2.8347,2.7955,2.7602,2.7379,2.7379,2.7145,2.7094,2.7379,2.7652,2.7804,2.7804,2.8307,2.8457,2.8227,2.8457,2.8236,2.743,2.7232,2.7312,2.7784,2.6939,2.6718,2.7209,2.6455,2.6091,2.6091,2.582,2.5868,1.918,1.9633,2.02,2.0917,0.0,0.0,0.0,2.4309,0.0,0.0,2.6657,2.7227,2.7989,0.0,0.0,0.0,0.0,0.0,0.0,0.0,0.0,0.0,0.0,0.0,0.0,0.0,0.0,0.0,0.0,0.0,0.0,0.0,0.0,0.0,0.0,0.0,3.1377,3.1377,3.1377,3.1377,3.1653,3.1974,3.2422,3.274,3.3199,3.3775,3.4268,3.4145,3.3623,3.3248,3.2975,3.2669,3.2669,3.2669,3.2669,3.2669,3.2669,3.2612,3.2669,3.2669,3.2612,3.2669,3.2669,3.2669,3.2669,3.2442,3.2153,3.2029,3.1588,3.105,3.0926,3.0717,3.0512,3.084,3.0758,3.0465,2.991,2.9929,2.9981,2.9679,2.9501,2.9306,2.8962,2.8674,2.8329,2.776,2.7589,2.7418,2.7085,2.6801,2.6703,2.6732,2.685,2.6899,2.6899,2.7191,2.7385,2.7288,2.7531,2.7703,2.7766,2.7566,2.7354,2.7142,2.6734,2.6557,2.6697,2.6315,2.6187,2.6352,2.611,2.6014,1.9012,1.9383,0.0,2.0454,2.0873,2.137,2.2306,0.0,0.0,0.0,0.0,2.6841,0.0,0.0,0.0,0.0,0.0,0.0,0.0,0.0,0.0,0.0,0.0,0.0,0.0,0.0,0.0,0.0,0.0,0.0,0.0,0.0,0.0,0.0,0.0,0.0,3.1377,3.1377,3.1377,3.1377,3.1678,3.2049,3.2535,3.285,3.3463,3.4106,3.3881,3.359,3.3348,3.2777,3.2612,3.2669,3.2669,3.2669,3.2669,3.2669,3.2669,3.2649,3.2463,3.2401,3.2437,3.225,3.2188,3.2188,3.2188,3.2002,3.1733,3.1547,3.1236,3.0926,3.0739,3.0516,3.043,3.0512,3.0363,3.0153,2.9916,2.9917,2.9942,2.9764,2.9764,2.9506,2.8768,2.8513,2.8107,2.7264,2.7171,2.7041,2.6777,2.6592,2.6496,2.6496,2.6592,2.664,2.664,2.6805,2.6948,2.7044,2.7119,2.729,2.7655,2.7558,2.7311,2.69,2.6832,2.6784,2.664,2.6496,2.6496,2.664,2.64,2.6255,1.8765,1.9431,2.02,2.0355,2.0581,0.0,2.1745,2.3062,2.4356,2.4986,0.0,0.0,0.0,0.0,0.0,0.0,0.0,0.0,0.0,0.0,0.0,0.0,0.0,0.0,0.0,0.0,0.0,0.0,0.0,0.0,0.0,0.0,0.0,0.0,0.0,0.0,3.1442,3.1442,3.1423,0.0,3.1589,3.2071,3.2715,3.3023,3.374,3.459,3.3405,3.3015,3.3285,3.2584,3.244,3.2669,3.2669,3.2649,3.2607,3.2607,3.2607,3.2545,3.2091,3.1946,3.1926,3.1567,3.1402,3.1381,3.1422,3.1436,3.127,3.0855,3.1021,3.1262,3.0793,3.0669,3.0565,3.0098,3.0093,3.0138,3.0024,2.9994,2.9994,2.9994,2.9994,2.9601,2.8461,2.8227,2.7801,2.6685,2.6544,2.6544,2.6544,2.6544,2.6544,2.6544,2.6805,2.6948,2.69,2.69,2.7044,2.7262,2.7092,2.7044,2.7309,2.7309,2.7167,2.6948,2.7167,2.7167,2.6948,2.69,2.69,2.6948,2.664,2.6496,1.8718,1.9194,0.0,0.0,2.1219,2.1879,2.1242,2.2204,2.3469,0.0,0.0,0.0,0.0,0.0,0.0,0.0,0.0,0.0,0.0,0.0,0.0,0.0,0.0,0.0,0.0,0.0,0.0,0.0,0.0,0.0,0.0,0.0,0.0,0.0,0.0,3.1506,3.1782,3.1506,3.1487,0.0,3.1791,3.2061,3.2631,3.2934,3.3354,3.3637,3.281,3.2564,3.2793,3.2461,3.244,3.2669,3.2669,3.2329,3.183,3.2076,3.202,3.1825,3.1616,3.1754,3.1967,3.1919,3.1671,3.1443,3.1795,3.1545,3.1123,3.1019,3.0969,3.0842,3.058,3.0433,3.036,3.0067,3.0024,3.0013,3.0015,2.9994,2.9994,2.9994,2.9816,2.9495,2.887,2.8279,2.7652,2.6927,2.6805,2.6805,2.6805,2.6805,2.6805,2.6805,2.7023,2.7119,2.69,2.7092,2.7167,2.6996,2.7119,2.7214,2.7309,2.7309,2.7262,2.7214,2.7262,2.7262,2.7214,2.6996,2.6996,2.7214,2.6948,2.6709,1.8565,0.0,0.0,2.048,0.0,2.182,2.1574,2.2091,0.0,0.0,0.0,0.0,0.0,0.0,0.0,0.0,0.0,0.0,0.0,0.0,0.0,0.0,0.0,0.0,0.0,0.0,0.0,0.0,0.0,0.0,0.0,0.0,0.0,0.0,3.1891,3.191,3.1929,3.1514,3.15,3.1734,3.1707,3.2013,3.2668,3.3048,3.3141,3.2864,3.2465,3.2363,3.2498,3.2363,3.244,3.2706,3.2421,3.2138,3.1778,3.174,3.1601,3.1484,3.114,3.134,3.165,3.1215,3.105,3.1104,3.1212,3.104,3.08,3.0927,3.081,3.062,3.0599,3.0391,3.0203,3.0183,3.0099,2.9994,2.9994,2.9994,2.9994,2.9994,2.9889,2.962,2.9168,2.838,2.7656,2.7195,2.7092,2.7092,2.7092,2.7092,2.7044,2.69,2.7119,2.7167,2.69,2.7044,2.7071,2.7092,2.7071,2.7167,2.7309,2.7309,2.7309,2.7309,2.7309,2.7309,2.7309,2.7167,2.7167,2.7309,2.7167,2.688,1.8411,0.0,1.9818,2.0701,2.1179,0.0,2.1966,0.0,0.0,0.0,0.0,0.0,0.0,0.0,0.0,0.0,0.0,0.0,0.0,0.0,0.0,0.0,0.0,0.0,0.0,0.0,0.0,0.0,0.0,0.0,0.0,0.0,3.2346,3.2422,3.2422,3.2256,3.1944,3.1589,3.1533,3.1756,3.1657,3.1974,3.2633,3.3099,3.2942,3.2305,3.2305,3.2305,3.2305,3.2305,3.2379,3.2525,3.2132,3.1884,3.1643,3.1381,3.1298,3.1244,3.0843,3.0988,3.1257,3.0491,3.0387,3.0565,3.0496,3.0506,3.0495,3.0724,3.0724,3.0651,3.0776,3.0516,3.0256,3.0443,3.0235,3.0047,2.9994,2.9994,2.9994,2.9994,2.9932,2.9725,2.927,2.8483,2.7779,2.7372,2.7309,2.7309,2.7309,2.7309,2.7214,2.6996,2.7167,2.7214,2.6996,2.6948,2.7092,2.7309,2.7092,2.7071,2.7309,2.7309,2.7309,2.7309,2.7309,2.7309,2.7309,2.7309,2.7309,2.7309,2.7309,2.7023,0.0,0.0,2.0263,0.0,2.135,2.2034,0.0,0.0,0.0,0.0,0.0,0.0,0.0,0.0,0.0,0.0,0.0,0.0,0.0,0.0,0.0,0.0,0.0,0.0,0.0,0.0,0.0,0.0,0.0,0.0,0.0,3.2079,3.2062,3.2403,3.2422,3.2378,3.2267,3.1897,3.1807,3.1978,3.2129,3.2252,3.2363,3.2674,3.2596,3.2305,3.2305,3.2305,3.2305,3.2305,3.2194,3.207,3.2008,3.1381,3.0499,3.0694,3.0846,3.0949,3.0789,3.0988,3.136,3.1236,3.0698,3.0192,3.0842,3.0884,3.0776,3.0776,3.1116,3.1322,3.0931,3.0931,3.0961,3.0776,3.0568,3.0287,3.0047,2.9994,2.9994,2.9994,2.9663,2.9249,2.8773,2.8276,2.7779,2.7372,2.7309,2.7309,2.7309,2.7309,2.7309,2.7262,2.7262,2.7309,2.7262,2.7262,2.7262,2.7309,2.7262,2.7262,2.7309,2.7309,2.7309,2.7309,2.7309,2.7309,2.7309,2.7309,2.7309,2.7309,2.7309,2.7119,1.8379,1.9067,1.9653,0.0,2.0793,0.0,0.0,0.0,0.0,0.0,0.0,0.0,0.0,0.0,0.0,0.0,0.0,0.0,0.0,0.0,0.0,0.0,0.0,0.0,0.0,0.0,0.0,0.0,0.0,0.0,3.2238,3.2073,3.2108,3.2281,3.23,3.2142,3.1888,3.1516,3.1457,3.1622,3.2235,3.2498,3.2555,3.2669,3.2555,3.2305,3.244,3.244,3.2285,3.2153,3.2117,3.1926,3.1485,3.0975,3.0475,3.0334,3.052,3.0784,3.0706,3.1096,3.1592,3.1341,3.1072,3.0874,3.1094,3.108,3.1086,3.124,3.1322,3.1373,3.127,3.1137,3.0983,3.1034,3.0615,3.0167,2.991,2.9912,2.9911,2.9663,2.9228,2.8773,2.8297,2.8048,2.7779,2.7372,2.7309,2.7309,2.7309,2.7309,2.7309,2.7309,2.7309,2.7309,2.7309,2.7309,2.7309,2.7309,2.7309,2.7309,2.7309,2.7309,2.7309,2.7309,2.7309,2.7309,2.7309,2.7309,2.7309,2.7309,2.7309,2.7167,0.0,0.0,1.9193,1.9684,0.0,0.0,0.0,0.0,0.0,0.0,0.0,0.0,0.0,0.0,0.0,0.0,0.0,0.0,0.0,0.0,0.0,0.0,0.0,0.0,0.0,0.0,0.0,0.0,0.0,0.0,3.1973,3.2012,3.2051,3.2229,3.2229,3.1988,3.1568,3.1304,3.1348,3.1556,3.2326,3.2669,3.2669,3.2669,3.255,3.2256,3.255,3.2493,3.2121,3.1999,3.1843,3.1629,3.0946,3.0615,3.047,3.0118,3.0367,3.0843,3.0826,3.1258,3.1713,3.1337,3.1265,3.1305,3.1223,3.1167,3.1219,3.1424,3.1373,3.1322,3.1476,3.1219,3.0991,3.1119,3.0665,3.0083,2.9602,2.9703,2.9684,2.9208,2.8856,2.8462,2.8007,2.7821,2.7634,2.7351,2.7309,2.7309,2.7309,2.7309,2.7309,2.7309,2.7309,2.7309,2.7309,2.7309,2.7309,2.7309,2.7309,2.7309,2.7309,2.7404,2.7499,2.7499,2.7573,2.7573,2.7499,2.7404,2.7452,2.7594,2.7499,2.7357,0.0,1.8987,0.0,0.0,0.0,0.0,0.0,0.0,0.0,0.0,0.0,0.0,0.0,0.0,0.0,0.0,0.0,0.0,0.0,0.0,0.0,0.0,0.0,0.0,0.0,0.0,0.0,0.0,0.0,0.0,3.1523,3.1562,3.1738,3.2209,3.2229,3.1973,3.1503,3.1699,3.1923,3.2248,3.2555,3.2669,3.2669,3.2669,3.2442,3.205,3.2483,3.2308,3.1651,3.1875,3.1526,3.076,3.0698,3.0408,3.0036,2.9994,3.0574,3.1332,3.1144,3.1398,3.1767,3.1551,3.121,3.087,3.1137,3.1167,3.1167,3.124,3.1373,3.1527,3.127,3.1373,3.1447,3.104,3.068,3.0177,2.9252,2.9173,2.9208,2.8731,2.8628,2.8462,2.8007,2.7572,2.733,2.7309,2.7309,2.7309,2.7309,2.7309,2.7309,2.7309,2.7309,2.7309,2.7309,2.7309,2.7309,2.7309,2.7309,2.7309,2.7309,2.7715,2.7951,2.7951,2.8398,2.8398,2.7951,2.7715,2.7831,2.8348,2.8092,2.7951,0.0,0.0,0.0,0.0,0.0,0.0,0.0,0.0,0.0,0.0,0.0,0.0,0.0,0.0,0.0,0.0,0.0,0.0,0.0,0.0,0.0,0.0,0.0,0.0,0.0,0.0,0.0,0.0,0.0,0.0,3.0684,3.0957,3.1113,3.1032,3.1288,3.1388,3.1387,3.1636,3.196,3.2305,3.2555,3.2669,3.2669,3.2359,3.2132,3.1988,3.2153,3.2076,3.1834,3.1678,3.1422,3.1091,3.0801,3.0408,2.9994,2.9994,3.0387,3.0959,3.104,3.1295,3.1614,3.1731,3.1555,3.1322,3.1424,3.1476,3.1476,3.1476,3.1527,3.1578,3.1476,3.1287,3.0952,3.0166,2.9797,2.951,2.9165,2.8627,2.8355,2.8794,2.825,2.7745,2.7723,2.7461,2.7309,2.7309,2.7309,2.7309,2.7309,2.7309,2.7309,2.7309,2.7309,2.7309,2.7309,2.7309,2.7309,2.7309,2.7573,2.7762,2.7762,2.8233,2.8445,2.8445,2.8631,2.8538,2.8254,2.816,2.8113,2.8139,2.8045,2.7998,1.8676,0.0,0.0,0.0,0.0,0.0,0.0,0.0,0.0,0.0,0.0,0.0,0.0,0.0,0.0,0.0,0.0,0.0,0.0,0.0,0.0,0.0,0.0,0.0,0.0,0.0,0.0,0.0,0.0,0.0,3.0449,3.0723,3.082,3.0567,3.0704,3.0995,3.1441,3.1556,3.1822,3.2194,3.253,3.2587,3.2442,3.2277,3.2132,3.1967,3.1878,3.1733,3.1567,3.1443,3.1195,3.0884,3.0574,3.0263,2.9994,2.9994,3.0284,3.071,3.0916,3.1222,3.1518,3.1758,3.1685,3.1629,3.1629,3.1629,3.1629,3.1629,3.1629,3.1586,3.1433,3.0908,3.0253,2.9642,2.9215,2.9007,2.9084,2.8418,2.8061,2.8768,2.8147,2.7523,2.7568,2.7452,2.7309,2.7309,2.7309,2.7309,2.7309,2.7309,2.7309,2.7309,2.7309,2.7309,2.7309,2.7309,2.7357,2.7547,2.7809,2.8092,2.8233,2.8724,2.8956,2.8956,2.9141,2.9117,2.8907,2.8721,2.856,2.8513,2.842,2.8326,0.0,0.0,0.0,0.0,0.0,0.0,0.0,0.0,0.0,0.0,0.0,0.0,0.0,0.0,0.0,0.0,0.0,0.0,0.0,0.0,0.0,0.0,0.0,0.0,0.0,0.0,0.0,0.0,0.0,3.0859,3.0859,3.0879,3.0898,3.0898,3.0567,3.0859,3.1787,3.1498,3.1566,3.2008,3.2463,3.2442,3.2029,3.2463,3.2401,3.1967,3.1567,3.1112,3.0719,3.1174,3.0822,3.0015,3.0015,3.0015,2.9994,2.9994,3.0284,3.0701,3.0789,3.1125,3.1507,3.1576,3.1629,3.1629,3.1629,3.1629,3.1629,3.1629,3.1629,3.152,3.0996,3.0188,2.9489,2.9467,2.9164,2.8852,2.9068,2.8673,2.8383,2.8652,2.8265,2.7807,2.7657,2.7452,2.7309,2.7309,2.7309,2.7309,2.7309,2.7309,2.7309,2.7309,2.7309,2.7309,2.7309,2.7309,2.7526,2.7998,2.8045,2.8258,2.8678,2.9255,2.9531,2.9531,2.9988,3.0102,2.9897,2.937,2.9255,2.9485,2.9209,2.8978,2.0472,0.0,0.0,0.0,0.0,0.0,0.0,0.0,0.0,0.0,0.0,0.0,0.0,0.0,0.0,0.0,0.0,0.0,0.0,0.0,0.0,0.0,0.0,0.0,0.0,0.0,0.0,0.0,2.9717,3.0044,2.9941,3.0354,3.0645,3.0898,3.0801,3.1092,3.1787,3.196,3.2187,3.2483,3.2607,3.2607,3.2483,3.2277,3.2112,3.1967,3.1567,3.1112,3.0698,3.0822,3.0719,3.0544,3.0704,3.0495,3.0047,3.0203,3.0266,3.0265,3.0662,3.0912,3.105,3.1468,3.1629,3.1629,3.1629,3.1629,3.1629,3.1629,3.1629,3.1433,3.0603,2.9802,2.9163,2.9052,2.9164,2.9314,2.9371,2.9106,2.8914,2.8962,2.8301,2.7741,2.7878,2.7573,2.7309,2.7309,2.7309,2.7309,2.7309,2.7309,2.7309,2.7309,2.7309,2.7452,2.7762,2.7809,2.7998,2.8491,2.8863,2.9163,2.9301,2.976,2.9988,2.9988,3.0125,3.0102,2.9897,2.9737,2.9508,2.9209,2.9117,2.8978,2.1177,2.0784,0.0,0.0,0.0,0.0,1.9925,1.991,0.0,0.0,0.0,0.0,0.0,0.0,0.0,0.0,0.0,0.0,0.0,0.0,0.0,0.0,0.0,0.0,0.0,0.0,0.0,0.0,2.9162,2.9639,2.9844,3.014,3.0509,3.0879,3.0918,3.1208,3.1787,3.2018,3.2121,3.2168,3.2354,3.2354,3.2168,3.2029,3.2091,3.2235,3.1761,3.1324,3.1,3.0819,3.0673,3.0599,3.0599,3.0538,3.0308,3.0256,3.0203,3.0256,3.0672,3.0776,3.0879,3.1424,3.1629,3.1629,3.1629,3.1629,3.1629,3.1629,3.1345,3.0815,2.9954,2.9363,2.8972,2.9074,2.927,2.9489,2.9345,2.9202,2.9106,2.925,2.8338,2.7689,2.7951,2.7668,2.7404,2.7309,2.7357,2.7404,2.7309,2.7309,2.7309,2.7309,2.7499,2.7715,2.7998,2.8164,2.8491,2.9002,2.9347,2.9577,2.976,3.0034,3.0216,3.0216,3.0216,3.0102,2.9897,2.9897,2.96,2.9071,2.9071,2.8978,2.2026,2.136,0.0,0.0,0.0,0.0,2.0135,2.0119,2.0151,0.0,0.0,0.0,0.0,0.0,0.0,0.0,0.0,0.0,0.0,0.0,0.0,0.0,0.0,0.0,0.0,0.0,2.7827,2.8445,2.8839,2.937,3.0176,3.0195,3.0353,3.0879,3.0918,3.1169,3.1707,3.1765,3.1701,3.1381,3.1774,3.1754,3.1381,3.1795,3.2188,3.2576,3.1981,3.1605,3.14,3.0927,3.062,3.0391,3.0151,3.036,3.0672,3.0256,3.0203,3.0443,3.0724,3.0827,3.0931,3.1424,3.1586,3.1542,3.1556,3.1586,3.1542,3.1542,3.0837,3.0003,2.9332,2.8929,2.8877,2.9358,2.9532,2.9506,2.9176,2.9149,2.9197,2.9328,2.8391,2.7668,2.7998,2.7762,2.7499,2.7357,2.7499,2.7547,2.7309,2.7309,2.7357,2.7357,2.7762,2.8045,2.8186,2.8538,2.9002,2.9531,2.9577,2.976,3.017,3.0216,3.0216,3.0216,3.017,3.0057,2.9851,2.9851,2.9554,2.9071,2.9071,2.8978,0.0,0.0,0.0,0.0,0.0,0.0,2.0651,2.02,2.0037,0.0,0.0,0.0,0.0,0.0,0.0,0.0,0.0,0.0,0.0,0.0,0.0,0.0,0.0,0.0,0.0,0.0,2.7116,2.7141,2.8074,2.9061,3.0156,2.9986,3.0199,3.0879,3.1112,3.1204,3.1244,3.1717,3.1787,3.1381,3.1464,3.1464,3.1436,3.1717,3.1876,3.1973,3.1677,3.1529,3.1434,3.0779,3.0443,3.0443,3.0568,3.0568,3.0495,3.062,3.0568,3.0443,3.0961,3.1137,3.1167,3.1476,3.1367,3.1105,3.1498,3.1345,3.104,3.104,3.0476,2.9786,2.9502,2.8929,2.8665,2.9332,2.9773,2.9872,2.924,2.9408,2.9381,2.8464,2.792,2.7736,2.8254,2.7783,2.7404,2.7547,2.7594,2.7547,2.7309,2.7452,2.7641,2.7857,2.7951,2.8326,2.9163,2.9301,2.9577,3.0034,3.008,3.008,3.0216,3.0216,3.0216,3.0216,3.0057,2.9829,2.9577,2.9347,2.9185,2.9071,2.9071,2.8978,0.0,0.0,0.0,2.1946,0.0,0.0,0.0,2.0818,2.07,0.0,0.0,0.0,0.0,0.0,0.0,0.0,0.0,0.0,0.0,0.0,0.0,0.0,0.0,0.0,0.0,0.0,2.6605,2.6763,2.7403,2.8229,2.9308,2.9085,2.939,3.0406,3.0557,3.0777,3.1005,3.147,3.1485,3.1029,3.1029,3.1137,3.1246,3.1386,3.1566,3.181,3.1721,3.1455,3.1116,3.105,3.0754,3.0391,3.0568,3.0754,3.0961,3.0827,3.0827,3.0858,3.1116,3.1167,3.1219,3.1527,3.1455,3.1302,3.1542,3.128,3.0843,3.0454,2.9992,2.9536,2.9059,2.8929,2.9059,2.9536,2.984,2.9829,2.9202,2.911,2.8849,2.7957,2.7641,2.7594,2.7925,2.7689,2.7452,2.7452,2.7641,2.7715,2.7499,2.762,2.7904,2.8139,2.842,2.8792,2.9439,2.9715,2.9943,3.017,3.0216,3.0216,3.0216,3.0216,3.0125,3.0057,2.9829,2.9623,2.9485,2.9117,2.8932,2.8932,2.8932,2.8907,0.0,0.0,0.0,0.0,0.0,2.2721,0.0,0.0,0.0,0.0,0.0,0.0,0.0,0.0,0.0,0.0,0.0,0.0,0.0,0.0,0.0,0.0,0.0,0.0,0.0,0.0,2.5872,2.6507,2.6633,2.7187,2.8243,2.8229,2.8754,2.996,3.0052,3.0289,3.0758,3.1127,3.1008,3.0553,3.0553,3.0713,3.0905,3.0958,3.1221,3.1611,3.1657,3.1402,3.0884,3.1266,3.1116,3.0651,3.0547,3.0909,3.1373,3.1034,3.1034,3.1219,3.1162,3.1206,3.1322,3.1418,3.1491,3.1505,3.1469,3.1164,3.07,3.0073,2.9693,2.9332,2.8618,2.8929,2.955,2.9759,2.9817,2.9698,2.9204,2.8747,2.8235,2.763,2.7404,2.7404,2.762,2.762,2.7547,2.7452,2.7809,2.7998,2.7783,2.7998,2.8279,2.8581,2.8932,2.9301,2.9623,2.9988,3.0216,3.0216,3.017,3.017,3.0216,3.017,3.0057,2.9829,2.9531,2.9439,2.9439,2.8978,2.8792,2.8839,2.8792,2.8792,0.0,0.0,0.0,0.0,2.3358,0.0,0.0,0.0,0.0,0.0,0.0,0.0,0.0,0.0,0.0,0.0,0.0,0.0,0.0,0.0,0.0,0.0,0.0,0.0,0.0,0.0,0.0,2.5448,2.5558,2.6172,2.7549,2.8131,2.892,2.996,3.0238,3.0313,3.0275,3.0599,3.0532,3.0077,3.0077,3.0129,3.0129,3.037,3.0621,3.0893,3.0934,3.115,3.1438,3.1056,3.1137,3.1424,3.1219,3.1034,3.0931,3.1086,3.1167,3.1154,3.0976,3.1207,3.1491,3.1105,3.1077,3.1206,3.1004,3.0802,3.05,3.0242,2.986,2.9332,2.8618,2.8929,2.955,2.9737,2.9796,2.9747,2.9473,2.8915,2.8187,2.7488,2.7309,2.7452,2.7857,2.7762,2.7668,2.7904,2.8139,2.8348,2.8301,2.8535,2.8885,2.9347,2.9439,2.9623,3.008,3.017,3.0216,3.0216,3.0011,3.0011,3.017,3.0011,2.9829,2.9531,2.9255,2.9139,2.9117,2.8885,2.8885,2.9093,2.8885,2.8792,0.0,0.0,0.0,0.0,0.0,0.0,0.0,0.0,2.2192,0.0,0.0,0.0,0.0,0.0,0.0,0.0,0.0,0.0,0.0,0.0,0.0,0.0,0.0,0.0,0.0,0.0,0.0,0.0,0.0,2.5389,2.6664,2.726,2.811,2.9459,2.9587,2.9809,3.0072,3.0231,3.018,2.9994,2.9994,3.0099,3.0235,3.0516,3.0672,3.0827,3.1137,3.124,3.1116,3.1219,3.1219,3.1189,3.1373,3.1373,3.127,3.1373,3.1251,3.1019,3.0924,3.1018,3.1214,3.1302,3.1353,3.1432,3.1338,3.083,3.0324,3.0226,2.9663,2.9074,2.9067,2.9458,2.9986,3.0147,2.9913,2.9571,2.9254,2.8439,2.7681,2.7351,2.7526,2.7762,2.7998,2.7668,2.7641,2.816,2.8348,2.8535,2.8978,2.9117,2.9347,2.9691,2.9737,2.9874,3.017,3.0216,3.0216,3.0216,3.0011,2.9943,3.0011,2.9783,2.9623,2.9485,2.9209,2.9071,2.9071,2.8885,2.8885,2.9071,2.8885,2.8792,2.893,0.0,0.0,0.0,0.0,0.0,0.0,0.0,0.0,0.0,0.0,0.0,0.0,0.0,0.0,0.0,0.0,0.0,0.0,0.0,0.0,0.0,0.0,0.0,0.0,0.0,0.0,0.0,0.0,0.0,2.5609,2.6313,2.7363,2.8773,2.9056,2.9431,2.9994,2.9994,2.9994,2.9994,2.9994,3.0099,3.0287,3.0568,3.0724,3.0827,3.1219,3.1219,3.1034,3.1373,3.1322,3.1086,3.1476,3.1629,3.1629,3.1629,3.1302,3.0865,3.0756,3.0712,3.0777,3.1258,3.1469,3.1505,3.1404,3.0815,3.009,3.0008,2.9401,2.8833,2.9157,2.9594,3.0073,3.0255,2.9771,2.9274,2.9183,2.8195,2.7357,2.7499,2.7762,2.8045,2.8186,2.7951,2.7972,2.8535,2.8675,2.8907,2.9531,2.96,2.9737,2.9966,2.9966,3.0057,3.017,3.0125,3.0034,2.9897,2.9874,2.9806,2.96,2.9554,2.9439,2.9301,2.9117,2.9024,2.9046,2.8885,2.8951,2.9176,2.8905,2.8792,0.0,0.0,0.0,2.8119,0.0,0.0,0.0,0.0,2.315,0.0,0.0,0.0,0.0,0.0,0.0,0.0,0.0,0.0,0.0,0.0,0.0,0.0,0.0,0.0,0.0,0.0,0.0,0.0,0.0,0.0,2.4202,2.5607,2.6929,2.8105,2.8901,2.9539,2.9994,2.9994,2.9994,2.9994,2.9994,2.9994,3.0047,3.0287,3.0547,3.0776,3.0827,3.1137,3.1578,3.1322,3.1373,3.1578,3.1578,3.1629,3.1629,3.1629,3.1302,3.0843,3.0384,3.0231,3.0319,3.0777,3.1034,3.1184,3.0961,3.0404,2.978,2.9594,2.9186,2.8768,2.851,2.895,2.9572,2.9759,2.9257,2.8849,2.9387,2.8362,2.7452,2.7904,2.7998,2.8139,2.8585,2.8885,2.9024,2.9071,2.9301,2.9577,2.9851,2.9897,2.9966,3.017,3.017,3.017,3.0216,3.0011,2.9691,2.9163,2.96,2.9554,2.8839,2.9255,2.9301,2.8839,2.8792,2.8792,2.8792,2.8792,2.9033,2.9493,2.9011,2.8792,0.0,0.0,3.0888,2.9738,0.0,0.0,0.0,0.0,0.0,0.0,0.0,0.0,0.0,0.0,0.0,0.0,0.0,0.0,0.0,0.0,0.0,0.0,0.0,0.0,0.0,0.0,0.0,0.0,0.0,0.0,0.0,2.48,2.6159,2.7668,2.8584,2.9415,3.0235,3.0464,3.0464,3.0287,3.0464,3.0464,3.0287,3.0703,3.0961,3.1086,3.1219,3.1424,3.1578,3.1527,3.1527,3.1629,3.1629,3.1629,3.1586,3.1258,3.0843,3.0384,2.9904,2.9729,2.986,3.0646,3.0967,3.1019,3.1273,3.0939,3.046,3.0052,2.962,2.9226,2.9154,2.931,2.9598,2.9981,2.9499,2.8957,2.8961,2.8466,2.8019,2.7998,2.856,2.9071,2.9209,2.9577,2.976,2.9646,2.9554,2.9715,3.0261,3.0239,3.0125,3.017,3.0216,3.0216,3.0216,3.0125,2.9806,2.9117,2.96,2.9646,2.9024,2.9163,2.9163,2.9,2.8885,2.8792,2.8792,2.9121,2.9314,2.9489,2.9642,2.9458,3.3389,3.2974,0.0,3.0942,2.9862,0.0,2.7801,0.0,0.0,0.0,0.0,0.0,0.0,0.0,0.0,0.0,0.0,0.0,0.0,1.8956,0.0,0.0,0.0,0.0,0.0,0.0,0.0,1.9936,2.0518,0.0,0.0,0.0,2.5353,2.6873,2.7965,2.9053,3.0139,3.0418,3.0554,3.0547,3.0724,3.0724,3.0568,3.1013,3.1167,3.1219,3.1476,3.1629,3.1629,3.1629,3.1629,3.1629,3.1629,3.1629,3.1564,3.1083,3.0493,2.9882,2.9496,2.9478,2.9741,3.0236,3.0674,3.1008,3.0865,3.0887,3.0756,3.0122,2.9729,2.9489,2.9489,2.9358,2.9383,2.9838,2.9406,2.8912,2.8967,2.8671,2.8441,2.8513,2.9071,2.9531,2.9715,2.9988,3.017,3.0011,2.9874,2.9943,3.0397,3.0306,3.0216,3.0216,3.0216,3.017,3.0102,2.9988,2.976,2.9255,2.9646,2.9646,2.9139,2.9163,2.9163,2.9,2.8861,2.888,2.9055,2.9336,2.9663,2.9991,3.0297,3.015]}]]